[[{"header":{"parameterUnit":"m.s-1","parameterCategory":1,"la1":30.6,"la2":29.2853,"lo1":-89.7004,"lo2":-87.6739,"dy":0.0162,"dx":0.0183,"nx":112,"ny":82,"refTime":"2023-08-30T18:00:00:Z","depth":0,"parameterNumber":2,"parameterNumberName":"U-component_of_WINDS"},"data":[0.0,0.0,0.0,0.0,0.0,0.0,0.0,0.0,0.0,0.0,0.0,0.0,0.0,0.0,0.0,0.0,0.0,0.0,0.0,0.0,0.0,0.0,0.0,0.0,0.0,0.0,0.0,0.0,0.0,0.0,0.0,0.0,0.0,0.0,0.0,0.0,0.0,0.0,0.0,0.0,0.0,0.0,0.0,0.0,0.0,0.0,0.0,0.0,0.0,0.0,0.0,0.0,0.0,0.0,0.0,0.0,0.0,0.0,0.0,0.0,0.0,0.0,0.0,0.0,0.0,0.0,0.0,0.0,0.0,0.0,0.0,0.0,0.0,0.0,0.0,0.0,0.0,0.0,0.0,0.0,0.0,0.0,0.0,0.0,0.0,0.0,0.0,0.0,0.0,0.0,-0.8117,-0.8029,-0.8339,-0.8583,-0.8663,-0.8564,-0.8364,-0.8078,0.0,0.0,0.0,0.0,0.0,0.0,0.0,0.0,0.0,0.0,0.0,0.0,0.0,0.0,0.0,0.0,0.0,0.0,0.0,0.0,0.0,0.0,0.0,0.0,0.0,0.0,0.0,0.0,0.0,0.0,0.0,0.0,0.0,0.0,0.0,0.0,0.0,0.0,0.0,0.0,0.0,0.0,0.0,0.0,0.0,0.0,0.0,0.0,0.0,0.0,0.0,0.0,0.0,0.0,0.0,0.0,0.0,0.0,0.0,0.0,0.0,0.0,0.0,0.0,0.0,0.0,0.0,0.0,0.0,0.0,0.0,0.0,0.0,0.0,0.0,0.0,0.0,0.0,0.0,0.0,0.0,0.0,0.0,0.0,0.0,0.0,0.0,0.0,0.0,0.0,0.0,0.0,0.0,0.0,0.0,0.0,0.0,0.0,0.0,0.0,0.0,0.0,0.0,0.0,-0.8921,-0.8327,-0.8762,-0.902,-0.8881,-0.8956,-0.8786,-0.8347,0.0,0.0,0.0,0.0,0.0,0.0,0.0,0.0,0.0,0.0,0.0,0.0,0.0,0.0,0.0,0.0,0.0,0.0,0.0,0.0,0.0,0.0,0.0,0.0,0.0,0.0,0.0,0.0,0.0,0.0,0.0,0.0,0.0,0.0,0.0,0.0,0.0,0.0,0.0,0.0,0.0,0.0,0.0,0.0,0.0,0.0,0.0,0.0,0.0,0.0,0.0,0.0,0.0,0.0,0.0,0.0,0.0,0.0,0.0,0.0,0.0,0.0,0.0,0.0,0.0,0.0,0.0,0.0,0.0,0.0,0.0,0.0,0.0,0.0,0.0,0.0,0.0,0.0,0.0,0.0,0.0,0.0,0.0,0.0,0.0,0.0,0.0,0.0,0.0,0.0,0.0,0.0,0.0,0.0,0.0,0.0,0.0,0.0,0.0,0.0,0.0,0.0,0.0,-0.9808,-0.9477,-0.8696,-0.8969,-0.9181,-0.908,-0.9046,-0.8919,-0.8677,-0.82,0.0,0.0,0.0,0.0,0.0,0.0,0.0,0.0,0.0,0.0,0.0,0.0,0.0,0.0,0.0,0.0,0.0,0.0,0.0,0.0,0.0,0.0,0.0,0.0,0.0,0.0,0.0,0.0,0.0,0.0,0.0,0.0,0.0,0.0,0.0,0.0,0.0,0.0,0.0,0.0,0.0,0.0,0.0,0.0,0.0,0.0,0.0,0.0,0.0,0.0,0.0,0.0,0.0,0.0,0.0,0.0,0.0,0.0,0.0,0.0,0.0,0.0,0.0,0.0,0.0,0.0,0.0,0.0,0.0,0.0,0.0,0.0,0.0,0.0,0.0,0.0,0.0,0.0,0.0,0.0,0.0,0.0,0.0,0.0,0.0,0.0,0.0,0.0,0.0,0.0,0.0,0.0,0.0,0.0,0.0,0.0,0.0,0.0,0.0,0.0,0.0,0.0,-1.0036,-0.9493,-0.8958,-0.9035,-0.9173,-0.9207,-0.9033,-0.8933,-0.8902,-0.8522,0.0,0.0,0.0,0.0,0.0,0.0,0.0,0.0,0.0,0.0,0.0,0.0,0.0,0.0,0.0,0.0,0.0,0.0,0.0,0.0,0.0,0.0,0.0,0.0,0.0,0.0,0.0,0.0,0.0,0.0,0.0,0.0,0.0,0.0,0.0,0.0,0.0,0.0,0.0,0.0,0.0,0.0,0.0,0.0,0.0,0.0,0.0,0.0,0.0,0.0,0.0,0.0,0.0,0.0,0.0,0.0,0.0,0.0,0.0,0.0,0.0,0.0,0.0,0.0,0.0,0.0,0.0,0.0,0.0,0.0,0.0,0.0,0.0,0.0,0.0,0.0,0.0,0.0,0.0,0.0,0.0,0.0,0.0,0.0,0.0,0.0,0.0,0.0,0.0,0.0,0.0,0.0,0.0,0.0,0.0,0.0,0.0,0.0,0.0,0.0,0.0,0.0,-0.9823,-0.8704,-0.8906,-0.8892,-0.9008,-0.92,-0.9164,-0.9103,-0.8895,-0.874,0.0,0.0,0.0,0.0,0.0,0.0,0.0,0.0,0.0,0.0,0.0,0.0,0.0,0.0,0.0,0.0,0.0,0.0,0.0,0.0,0.0,0.0,0.0,0.0,0.0,0.0,0.0,0.0,0.0,0.0,0.0,0.0,0.0,0.0,0.0,0.0,0.0,0.0,0.0,0.0,0.0,0.0,0.0,0.0,0.0,0.0,0.0,0.0,0.0,0.0,0.0,0.0,0.0,0.0,0.0,0.0,0.0,0.0,0.0,0.0,0.0,0.0,0.0,0.0,0.0,0.0,0.0,0.0,0.0,0.0,0.0,0.0,0.0,0.0,0.0,0.0,0.0,0.0,0.0,0.0,0.0,0.0,0.0,0.0,0.0,0.0,0.0,0.0,0.0,0.0,0.0,0.0,0.0,0.0,0.0,0.0,0.0,0.0,0.0,0.0,0.0,0.0,-1.0391,-0.9334,-0.8961,-0.8885,-0.8905,-0.9015,-0.9018,-0.9325,-0.9974,0.0,0.0,0.0,0.0,0.0,0.0,0.0,0.0,0.0,0.0,0.0,0.0,0.0,0.0,0.0,0.0,0.0,0.0,0.0,0.0,0.0,0.0,0.0,0.0,0.0,0.0,0.0,0.0,0.0,0.0,0.0,0.0,0.0,0.0,0.0,0.0,0.0,0.0,0.0,0.0,0.0,0.0,0.0,0.0,0.0,0.0,0.0,0.0,0.0,0.0,0.0,0.0,0.0,0.0,0.0,0.0,0.0,0.0,0.0,0.0,0.0,0.0,0.0,0.0,0.0,0.0,0.0,0.0,0.0,0.0,0.0,0.0,0.0,0.0,0.0,0.0,0.0,0.0,0.0,0.0,0.0,0.0,0.0,0.0,0.0,0.0,0.0,0.0,0.0,0.0,0.0,0.0,0.0,0.0,0.0,0.0,0.0,0.0,0.0,0.0,0.0,0.0,-1.1625,-1.0443,-0.944,-0.8958,-0.8885,-0.8885,-0.8885,-0.8885,-0.924,-1.0,0.0,0.0,0.0,0.0,0.0,0.0,0.0,0.0,0.0,0.0,0.0,0.0,0.0,0.0,0.0,0.0,0.0,0.0,0.0,0.0,0.0,0.0,0.0,0.0,0.0,0.0,0.0,0.0,0.0,0.0,0.0,0.0,0.0,0.0,0.0,0.0,0.0,0.0,0.0,0.0,0.0,0.0,0.0,0.0,0.0,0.0,0.0,0.0,0.0,0.0,0.0,0.0,0.0,0.0,0.0,0.0,0.0,0.0,0.0,0.0,0.0,0.0,0.0,0.0,0.0,0.0,0.0,0.0,0.0,0.0,0.0,0.0,0.0,0.0,0.0,0.0,0.0,0.0,0.0,0.0,0.0,0.0,0.0,0.0,0.0,0.0,0.0,0.0,0.0,0.0,0.0,0.0,0.0,0.0,0.0,0.0,0.0,0.0,0.0,0.0,0.0,0.0,-1.1574,-0.9775,-0.8601,-0.8851,-0.8885,-0.8885,-0.8885,-0.8885,-0.8817,0.0,0.0,0.0,0.0,0.0,0.0,0.0,0.0,0.0,0.0,0.0,0.0,0.0,0.0,0.0,0.0,0.0,0.0,0.0,0.0,0.0,0.0,0.0,0.0,0.0,0.0,0.0,0.0,0.0,0.0,0.0,0.0,0.0,0.0,0.0,0.0,0.0,0.0,0.0,0.0,0.0,0.0,0.0,0.0,0.0,0.0,0.0,0.0,0.0,0.0,0.0,0.0,0.0,0.0,0.0,0.0,0.0,0.0,0.0,0.0,0.0,0.0,0.0,0.0,0.0,0.0,0.0,0.0,0.0,0.0,0.0,0.0,0.0,0.0,0.0,0.0,0.0,0.0,0.0,0.0,0.0,0.0,0.0,0.0,0.0,0.0,0.0,0.0,0.0,0.0,0.0,0.0,0.0,0.0,0.0,0.0,0.0,0.0,0.0,0.0,0.0,0.0,0.0,-1.1574,-0.9775,-0.8601,-0.8851,-0.8885,-0.8885,-0.8885,-0.8712,-0.9071,-1.0058,0.0,0.0,0.0,0.0,0.0,0.0,0.0,0.0,0.0,0.0,0.0,0.0,0.0,0.0,0.0,0.0,0.0,0.0,0.0,0.0,0.0,0.0,0.0,0.0,0.0,0.0,0.0,0.0,0.0,0.0,0.0,0.0,0.0,0.0,0.0,0.0,0.0,0.0,0.0,0.0,0.0,0.0,0.0,0.0,0.0,0.0,0.0,0.0,0.0,0.0,0.0,0.0,0.0,0.0,0.0,0.0,0.0,0.0,0.0,0.0,0.0,0.0,0.0,0.0,0.0,0.0,0.0,0.0,0.0,0.0,0.0,0.0,0.0,0.0,0.0,0.0,0.0,0.0,0.0,0.0,0.0,0.0,0.0,0.0,0.0,0.0,0.0,0.0,0.0,0.0,0.0,0.0,0.0,0.0,0.0,0.0,0.0,0.0,0.0,0.0,0.0,0.0,-1.1522,-0.9671,-0.8495,-0.8851,-0.8885,-0.8881,-0.8768,-0.8712,-0.8958,-0.9708,0.0,0.0,0.0,0.0,0.0,0.0,0.0,0.0,0.0,0.0,0.0,0.0,0.0,0.0,0.0,0.0,0.0,0.0,0.0,0.0,0.0,0.0,0.0,0.0,0.0,0.0,0.0,0.0,0.0,0.0,0.0,0.0,0.0,0.0,0.0,0.0,0.0,0.0,0.0,0.0,0.0,0.0,0.0,0.0,0.0,0.0,0.0,0.0,0.0,0.0,0.0,0.0,0.0,0.0,0.0,0.0,0.0,0.0,0.0,0.0,0.0,0.0,0.0,0.0,0.0,0.0,0.0,0.0,0.0,0.0,0.0,0.0,0.0,0.0,0.0,0.0,0.0,0.0,0.0,0.0,0.0,0.0,0.0,0.0,0.0,0.0,0.0,0.0,0.0,0.0,0.0,0.0,0.0,0.0,0.0,0.0,0.0,0.0,0.0,0.0,0.0,0.0,-1.1522,-0.9514,-0.8285,-0.8796,-0.8881,-0.8768,-0.8543,-0.8712,-0.8714,-0.8368,0.0,0.0,0.0,0.0,0.0,0.0,0.0,0.0,0.0,0.0,0.0,0.0,0.0,0.0,0.0,0.0,0.0,0.0,0.0,0.0,0.0,0.0,0.0,0.0,0.0,0.0,0.0,0.0,0.0,0.0,0.0,0.0,0.0,0.0,0.0,0.0,0.0,0.0,0.0,0.0,0.0,0.0,0.0,0.0,0.0,0.0,0.0,0.0,0.0,0.0,0.0,0.0,0.0,0.0,0.0,0.0,0.0,0.0,0.0,0.0,-1.6193,-1.5753,0.0,0.0,0.0,0.0,0.0,0.0,0.0,0.0,0.0,0.0,0.0,0.0,0.0,0.0,0.0,0.0,0.0,0.0,0.0,0.0,0.0,0.0,0.0,0.0,0.0,0.0,0.0,0.0,0.0,0.0,0.0,0.0,0.0,0.0,0.0,0.0,0.0,0.0,0.0,0.0,-1.1214,-0.9205,-0.7908,-0.8514,-0.8598,-0.8654,-0.8826,-0.8657,-0.8644,-0.8783,-0.8479,0.0,0.0,0.0,0.0,0.0,0.0,0.0,0.0,0.0,0.0,0.0,0.0,0.0,0.0,0.0,0.0,0.0,0.0,0.0,0.0,0.0,0.0,0.0,0.0,0.0,0.0,0.0,0.0,0.0,0.0,0.0,0.0,0.0,0.0,0.0,0.0,0.0,0.0,0.0,0.0,0.0,0.0,0.0,0.0,0.0,0.0,0.0,0.0,0.0,0.0,0.0,0.0,0.0,0.0,0.0,0.0,0.0,0.0,0.0,-1.7117,-1.6652,0.0,0.0,0.0,0.0,0.0,0.0,0.0,0.0,0.0,0.0,0.0,0.0,0.0,0.0,0.0,0.0,0.0,0.0,0.0,0.0,0.0,0.0,0.0,0.0,0.0,0.0,0.0,0.0,0.0,0.0,0.0,0.0,0.0,0.0,0.0,0.0,0.0,0.0,0.0,0.0,-1.1317,-0.9306,-0.8068,-0.8624,-0.8712,-0.8712,-0.8712,-0.8712,-0.8712,-0.8712,-0.8577,0.0,0.0,0.0,0.0,0.0,0.0,0.0,0.0,0.0,0.0,0.0,0.0,0.0,0.0,0.0,0.0,0.0,0.0,0.0,0.0,0.0,0.0,0.0,0.0,0.0,0.0,0.0,0.0,0.0,0.0,0.0,0.0,0.0,0.0,0.0,0.0,0.0,0.0,0.0,0.0,0.0,0.0,0.0,0.0,0.0,0.0,0.0,0.0,0.0,0.0,0.0,0.0,0.0,-1.8982,-1.9235,-1.935,-1.9175,-1.9193,-1.9301,-1.842,-1.8004,-1.7907,-1.7376,0.0,0.0,0.0,0.0,0.0,0.0,0.0,0.0,0.0,0.0,0.0,0.0,0.0,0.0,0.0,0.0,0.0,0.0,0.0,0.0,0.0,0.0,-1.5366,-1.5584,-1.5837,-1.5825,-1.5083,0.0,0.0,0.0,0.0,0.0,0.0,0.0,0.0,0.0,0.0,0.0,-1.1171,-0.9384,-0.8257,-0.8796,-0.8826,-0.8768,-0.8598,-0.8768,-0.8826,-0.8598,-0.8651,-0.8737,0.0,0.0,0.0,0.0,0.0,0.0,0.0,0.0,0.0,0.0,0.0,0.0,0.0,0.0,0.0,0.0,0.0,0.0,0.0,0.0,0.0,0.0,0.0,0.0,0.0,0.0,0.0,0.0,0.0,0.0,0.0,0.0,-1.6593,-1.6966,0.0,0.0,0.0,0.0,0.0,0.0,0.0,0.0,0.0,0.0,0.0,0.0,0.0,-1.8081,-1.8517,-1.9446,-1.9833,-1.9688,-2.0653,-2.0883,-2.0535,-2.0659,-2.0711,-2.0448,-2.0309,0.0,-1.8197,-1.7654,0.0,0.0,0.0,0.0,0.0,0.0,0.0,0.0,0.0,0.0,0.0,0.0,0.0,0.0,0.0,0.0,0.0,0.0,0.0,0.0,0.0,0.0,-1.6133,-1.6169,-1.6392,-1.6435,-1.5861,-1.5584,-1.5375,-1.5039,-1.4639,-1.4351,0.0,0.0,0.0,0.0,0.0,0.0,-0.9644,-0.8587,-0.809,-0.8524,-0.8543,-0.8654,-0.8826,-0.8881,-0.8881,-0.8826,-0.8865,-0.8794,-0.8716,-0.8693,0.0,0.0,0.0,0.0,0.0,0.0,0.0,0.0,0.0,0.0,0.0,0.0,0.0,0.0,0.0,0.0,0.0,0.0,0.0,0.0,0.0,0.0,0.0,0.0,0.0,0.0,0.0,0.0,0.0,-1.6205,-1.696,-1.6477,-1.6736,-1.6616,0.0,0.0,0.0,0.0,0.0,0.0,0.0,0.0,0.0,-1.8571,-1.871,-1.903,-1.9573,-2.0334,-2.0581,-2.0334,-2.1257,-2.1498,-2.113,-2.1245,-2.1233,-2.1106,-2.0798,-2.0273,-1.9573,-1.8885,-1.8131,-1.7358,0.0,0.0,0.0,0.0,-1.6465,-1.6628,-1.7086,-1.7135,-1.6996,-1.6966,0.0,0.0,0.0,0.0,0.0,0.0,0.0,-1.5421,-1.5831,-1.6229,-1.6549,-1.67,-1.6714,-1.6625,-1.6386,-1.5853,-1.5329,-1.4947,-1.4647,-1.4451,-1.4316,-1.3561,0.0,0.0,0.0,-0.9883,-0.956,-0.8797,-0.8317,-0.857,-0.8663,-0.8768,-0.8881,-0.8885,-0.8885,-0.8885,-0.8885,-0.8854,-0.8842,-0.8838,-0.8808,0.0,0.0,0.0,0.0,0.0,0.0,0.0,0.0,0.0,0.0,0.0,0.0,0.0,0.0,0.0,0.0,0.0,0.0,0.0,0.0,0.0,0.0,0.0,0.0,0.0,0.0,0.0,0.0,-1.6899,-1.7618,-1.6622,-1.7569,-1.7696,0.0,0.0,0.0,0.0,0.0,0.0,-1.8251,-1.8481,-1.8957,-1.9748,-1.9839,-2.0104,-2.0581,-2.104,-2.1166,-2.0985,-2.1516,-2.1667,-2.148,-2.148,-2.1438,-2.1347,-2.0871,-2.0629,-2.0515,-1.9851,-1.9145,-1.8438,-1.7901,-1.7406,-1.7026,-1.7219,-1.734,-1.7485,-1.8088,-1.8161,-1.795,-1.775,-1.7243,-1.6573,-1.5903,0.0,0.0,0.0,0.0,-1.5807,-1.6266,-1.6592,-1.6833,-1.6903,-1.6809,-1.6643,-1.64,-1.5781,-1.5187,-1.4838,-1.4624,-1.4423,-1.4238,-1.3086,0.0,-1.2127,-1.0475,-0.9276,-0.9306,-0.889,-0.8584,-0.8699,-0.8849,-0.8885,-0.8885,-0.8885,-0.8885,-0.8885,-0.8885,-0.8885,-0.8885,-0.8885,-0.8885,-0.8885,0.0,0.0,0.0,0.0,0.0,0.0,0.0,0.0,0.0,0.0,0.0,0.0,0.0,0.0,0.0,0.0,0.0,0.0,0.0,0.0,0.0,0.0,0.0,0.0,0.0,0.0,0.0,0.0,0.0,-1.8269,-1.9555,0.0,0.0,0.0,0.0,-1.7443,-1.7925,-1.8571,-1.9409,-1.9398,-1.9839,-2.0581,-2.0923,-2.1118,-2.142,-2.1691,-2.1824,-2.1806,-2.1601,-2.1492,-2.148,-2.148,-2.1335,-2.1064,-2.0786,-2.0527,-2.0273,-1.9983,-1.9537,-1.8982,-1.8456,-1.8076,-1.7817,-1.7829,-1.8004,-1.8239,-1.8281,-1.8281,-1.8269,-1.8257,-1.7551,-1.664,-1.6338,-1.5885,0.0,0.0,-1.6048,-1.6308,-1.6604,-1.6875,-1.6951,-1.6485,-1.6502,-1.6486,-1.566,-1.5259,-1.5005,-1.4971,-1.4604,-1.422,-1.3969,0.0,-1.162,-1.0663,-0.9892,-0.9048,-0.8102,-0.8411,-0.8703,-0.871,-0.8849,-0.8885,-0.8885,-0.8885,-0.8885,-0.8885,-0.8885,-0.8885,-0.8885,-0.8885,-0.8885,-0.8885,-0.8885,0.0,0.0,0.0,0.0,0.0,0.0,0.0,0.0,0.0,0.0,0.0,0.0,0.0,0.0,0.0,0.0,0.0,0.0,0.0,0.0,0.0,0.0,0.0,0.0,0.0,0.0,0.0,0.0,-1.8915,-2.0213,0.0,-1.868,-1.8746,-1.8933,-1.9024,-1.9519,-2.002,-2.0535,-2.0559,-2.0708,-2.1172,-2.1177,-2.1177,-2.1209,-2.148,-2.136,-2.0847,-2.1094,-2.0943,-2.046,-2.0629,-2.0557,-2.0297,-2.0207,-2.011,-2.0002,-1.973,-1.9501,-1.9307,-1.912,-1.8885,-1.8644,-1.8644,-1.871,-1.8794,-1.8794,-1.8456,-1.7907,-1.7225,-1.6863,-1.6652,-1.6362,-1.6151,-1.606,-1.6332,-1.6483,-1.6573,-1.6676,-1.6767,-1.6815,-1.6606,-1.636,-1.6081,-1.5789,-1.4784,-1.4082,-1.4641,-1.3773,-1.2855,-1.2638,-1.1084,-0.9865,-0.9632,-0.8959,-0.8357,-0.8163,-0.8474,-0.871,-0.871,-0.8849,-0.8885,-0.8885,-0.8885,-0.8885,-0.8885,-0.8885,-0.8885,-0.8885,-0.8885,-0.8885,-0.8885,-0.8885,-0.8885,0.0,0.0,0.0,0.0,0.0,0.0,0.0,0.0,0.0,0.0,0.0,0.0,0.0,0.0,0.0,0.0,0.0,0.0,0.0,0.0,0.0,0.0,0.0,0.0,0.0,-1.9326,-2.0371,-1.9326,-2.0786,-2.1245,-1.9639,-1.9965,-2.0315,-2.0418,-2.0828,-2.1148,-2.1395,-2.1401,-2.1378,-2.1474,-2.1299,-2.1183,-2.1001,-2.1112,-2.0895,-2.0279,-2.0539,-2.034,-1.9748,-1.9923,-1.9814,-1.9483,-1.9483,-1.9428,-1.9332,-1.9145,-1.9072,-1.909,-1.9265,-1.9283,-1.9193,-1.9108,-1.8963,-1.8782,-1.8601,-1.8131,-1.7491,-1.6785,-1.6555,-1.6525,-1.6338,-1.6284,-1.6326,-1.6513,-1.6694,-1.6809,-1.6724,-1.6767,-1.6785,-1.6498,-1.6158,-1.584,-1.5637,-1.4386,-1.3444,-1.3915,-1.2861,-1.1935,-1.2022,-1.0331,-0.903,-0.9222,-0.8494,-0.8023,-0.8333,-0.8557,-0.871,-0.871,-0.8849,-0.8885,-0.8885,-0.8984,-0.8991,-0.8888,-0.8885,-0.8861,-0.8807,-0.8807,-0.8807,-0.8807,-0.8799,-0.8768,-0.8768,0.0,0.0,0.0,0.0,0.0,0.0,0.0,0.0,0.0,0.0,0.0,0.0,0.0,0.0,0.0,0.0,0.0,0.0,0.0,0.0,0.0,0.0,0.0,-1.8342,-1.9706,-2.0418,-1.9711,-2.1462,-2.2042,-2.049,-2.1275,-2.177,-2.151,-2.1734,-2.1879,-2.186,-2.1848,-2.1722,-2.1462,-2.1438,-2.1178,-2.0647,-2.0647,-2.0515,-2.0249,-1.9989,-1.9712,-1.944,-1.9499,-1.9151,-1.8674,-1.8674,-1.8529,-1.8294,-1.8281,-1.8294,-1.8354,-1.8861,-1.9217,-1.941,-1.9145,-1.8722,-1.8191,-1.7648,-1.7298,-1.7086,-1.7062,-1.67,-1.6278,-1.6278,-1.6296,-1.6302,-1.6284,-1.6658,-1.7008,-1.6742,-1.6863,-1.6867,-1.608,-1.5852,-1.5672,-1.5093,-1.4056,-1.317,-1.2901,-1.1956,-1.1405,-1.2072,-1.0529,-0.9216,-0.9318,-0.8514,0.0,-0.8462,-0.8618,-0.8716,-0.8716,-0.8855,-0.8888,-0.8885,-0.9069,-0.9089,-0.8885,-0.8875,-0.8807,-0.871,-0.871,-0.8659,-0.8662,-0.8523,-0.8481,-0.8484,0.0,0.0,0.0,0.0,0.0,0.0,0.0,0.0,0.0,0.0,0.0,0.0,0.0,0.0,0.0,0.0,0.0,0.0,0.0,0.0,0.0,-1.7943,-1.9,-1.9392,-2.0653,-2.1529,-2.1498,-2.2255,-2.2479,-2.1776,-2.2055,-2.2048,-2.1782,-2.2005,-2.1987,-2.1607,-2.1468,-2.1231,-2.0901,-2.0521,-2.0255,-2.0104,-2.0104,-1.9965,-1.9688,-1.9422,-1.9157,-1.8891,-1.8704,-1.8535,-1.8402,-1.8402,-1.836,-1.8275,-1.8076,-1.8221,-1.8589,-1.8734,-1.8837,-1.8867,-1.8607,-1.8167,-1.763,-1.7098,-1.6996,-1.6996,-1.641,-1.6247,-1.6278,-1.6278,-1.6284,-1.6284,-1.6284,-1.6398,-1.6459,-1.6187,-1.6163,-1.6181,-1.5929,-1.5246,-1.4629,-1.4455,-1.2856,-1.1598,-1.2153,-1.0732,-0.9512,-0.9843,-0.8965,-0.8221,-0.8119,-0.8234,0.0,-0.8476,-0.8713,-0.8821,-0.8821,-0.9008,-0.9052,-0.8892,-0.9069,-0.9101,-0.8791,-0.8774,-0.8706,-0.855,-0.8438,-0.833,-0.8207,-0.8092,-0.8108,0.0,0.0,0.0,0.0,0.0,0.0,0.0,0.0,0.0,0.0,0.0,0.0,0.0,0.0,0.0,0.0,0.0,0.0,0.0,0.0,0.0,0.0,-1.8619,-1.9603,-2.014,-2.0973,-2.1746,-2.2128,-2.2132,-2.217,-2.2013,-2.1927,-2.1873,-2.1716,-2.1848,-2.1752,-2.1323,-2.1148,-2.0959,-2.0515,-2.0207,-1.9941,-1.9712,-1.9712,-1.9573,-1.9301,-1.9036,-1.8776,-1.8511,-1.8239,-1.8058,-1.7956,-1.7956,-1.7956,-1.7937,-1.7781,-1.7962,-1.836,0.0,0.0,0.0,0.0,-1.7618,-1.708,-1.6543,-1.6459,-1.6513,-1.6042,-1.5994,-1.6115,-1.6115,-1.6115,-1.6115,-1.6115,-1.6205,-1.6235,-1.5964,-1.5648,-1.5323,-1.5214,-1.432,-1.3457,-1.3457,-1.1982,-1.0837,-1.13,-0.9934,0.0,-0.8757,-0.8453,-0.814,-0.8069,-0.8364,-0.8601,-0.8665,-0.8828,-0.8885,-0.8885,-0.9015,-0.9028,-0.8892,-0.9069,0.0,0.0,0.0,-0.8491,-0.8124,-0.8043,0.0,0.0,0.0,-0.7804,-0.7826,-0.7712,0.0,0.0,-0.7881,-0.7908,0.0,0.0,0.0,0.0,0.0,0.0,0.0,0.0,0.0,0.0,0.0,0.0,0.0,0.0,0.0,0.0,-1.8812,-1.9651,-2.031,-2.0625,-2.1036,-2.1758,-2.1565,-2.1408,-2.1522,-2.1444,-2.142,-2.139,-2.1414,-2.1287,-2.1013,-2.0925,0.0,0.0,0.0,-1.9911,-1.9493,-1.9422,-1.9289,-1.9024,-1.8764,-1.8505,-1.8233,-1.7956,-1.7702,-1.7485,-1.7485,-1.7485,-1.7485,-1.7485,-1.7636,-1.7901,-1.8185,-1.8541,-1.8776,-1.7799,-1.7086,-1.6543,-1.606,0.0,0.0,-1.5891,-1.5891,-1.5891,-1.5891,-1.5891,-1.5891,-1.5891,-1.6054,-1.6181,-1.5952,-1.5244,-1.4477,-1.4272,-1.3181,-1.22,-1.22,-1.1311,-1.0435,-1.0341,-0.9444,-0.8648,-0.8526,-0.8492,-0.8526,-0.8665,-0.8699,-0.876,-0.8841,-0.8871,-0.8885,-0.8885,0.0,0.0,-0.8885,-0.9069,-0.9086,-0.8868,-0.8559,-0.817,-0.7575,-0.7551,-0.7662,-0.7807,-0.7642,-0.7537,-0.7551,-0.7324,-0.7324,-0.7551,-0.7823,-0.7885,0.0,0.0,0.0,0.0,0.0,0.0,0.0,0.0,0.0,0.0,0.0,0.0,0.0,0.0,0.0,-1.6662,-1.654,-1.6962,-1.8621,-1.8694,-1.9349,-2.1318,-2.1124,-2.0997,-2.1432,-2.1275,-2.1122,-2.084,-2.1092,-2.084,-2.0152,-2.0116,-1.9965,-1.9633,-1.9416,-1.9259,-1.9151,-1.9151,-1.9018,-1.8758,-1.8499,0.0,-1.7943,-1.7678,-1.7533,-1.7485,-1.7485,-1.7485,-1.7485,-1.7485,-1.7636,-1.7901,-1.8185,-1.8088,-1.7738,-1.7322,-1.6694,-1.603,-1.5928,-1.5891,-1.5891,-1.5891,-1.5891,-1.5891,-1.5891,-1.5891,0.0,-1.5891,-1.5928,-1.5958,-1.5903,-1.5118,-1.4277,-1.4234,-1.258,-1.1055,-1.1055,-1.0023,-0.9064,-0.9036,-0.8771,-0.8557,-0.8652,-0.8564,-0.8492,-0.8523,-0.8632,-0.872,-0.875,-0.8807,-0.8885,-0.8885,-0.9042,-0.9066,-0.8895,-0.9069,-0.8983,-0.8448,-0.7999,-0.7695,-0.7427,-0.7328,-0.7273,-0.7337,-0.7218,-0.7174,-0.7268,-0.721,-0.721,-0.7268,-0.7321,-0.7446,0.0,0.0,0.0,0.0,0.0,0.0,0.0,0.0,0.0,0.0,0.0,-1.6631,-1.6376,0.0,-1.5935,-1.6019,-1.5716,-1.5894,-1.6991,-1.7439,-1.8534,-2.0653,-2.0521,-2.0327,-2.046,-2.0472,-2.0358,-2.0086,-2.0315,-2.0237,-1.9706,-1.9676,-1.9555,-1.9283,-1.9145,-1.9012,-1.8879,-1.8879,-1.8752,-1.8487,-1.8215,-1.801,-1.7865,-1.7605,-1.7485,-1.7485,-1.7485,-1.7485,-1.7491,-1.7624,-1.7756,-1.7871,-1.7883,-1.7642,-1.7255,-1.6996,-1.6471,-1.5891,-1.5891,-1.5891,-1.5891,-1.5891,-1.5891,-1.5891,-1.5891,-1.5891,-1.5891,-1.5891,-1.5891,-1.5785,-1.519,-1.4159,-1.3181,-1.258,-1.1114,-0.9783,-0.9697,-0.919,-0.8665,-0.852,-0.8428,-0.8401,-0.8476,-0.8486,-0.8533,-0.8686,-0.8774,-0.8825,-0.8825,-0.8838,-0.8885,-0.8885,-0.9001,-0.9018,-0.8888,-0.889,-0.8644,-0.8175,-0.7714,-0.7401,-0.7197,-0.7077,-0.7015,-0.6975,-0.6983,-0.7013,-0.7125,-0.7182,-0.721,-0.721,-0.721,-0.7299,0.0,0.0,0.0,0.0,0.0,0.0,0.0,-1.4761,-1.5372,-1.5108,-1.5748,-1.6345,-1.6202,-1.5747,-1.5381,-1.5279,-1.4973,-1.4868,-1.5344,-1.6058,-1.7204,-1.9042,-1.9517,-1.961,-1.922,-1.9297,-1.9308,-1.9084,-1.9074,-1.9146,-1.9404,-1.9191,-1.903,-1.9084,-1.9024,-1.8897,-1.8686,-1.8632,-1.8475,-1.8209,-1.7986,-1.7847,-1.7787,-1.7581,-1.7485,-1.7485,-1.7485,-1.7485,-1.7497,-1.7708,-1.7768,-1.7696,-1.7436,-1.7165,-1.6911,-1.67,-1.6308,-1.5891,-1.5891,-1.5891,-1.5891,-1.5891,-1.5891,-1.5891,-1.5891,-1.5731,-1.5565,-1.5565,-1.5399,-1.5024,-1.411,-1.2965,-1.1814,-1.0945,-0.9783,-0.8807,-0.8737,-0.8665,-0.8554,-0.8316,-0.8245,-0.8235,-0.8316,-0.8387,-0.8574,-0.8797,-0.8865,-0.8885,-0.8885,-0.8885,-0.8885,-0.8885,-0.8885,-0.8881,-0.8826,-0.8543,-0.8266,-0.7937,-0.7561,-0.7288,-0.7073,-0.6902,-0.6836,-0.6836,-0.6912,-0.695,-0.695,-0.7098,-0.7141,-0.7141,-0.7141,-0.7163,-1.4588,-1.3696,-1.3319,-1.4224,-1.3487,-1.2922,0.0,-1.4318,-1.4455,-1.6345,-1.5849,-1.5495,-1.6685,-1.4969,-1.3398,-1.3537,-1.26,-1.2293,-1.3396,-1.3536,-1.3961,-1.5354,-1.7677,-1.8877,-1.8095,-1.7834,-1.7648,-1.762,-1.6507,-1.6815,-1.9004,-1.7939,-1.7857,-1.9072,-1.8849,-1.8716,-1.8686,-1.845,-1.8197,-1.7919,-1.7889,-1.775,-1.7527,-1.7497,-1.7485,-1.7485,-1.7485,-1.7485,-1.7485,-1.7515,-1.7388,-1.7153,-1.6887,-1.6616,-1.6368,-1.6338,-1.6139,-1.5891,-1.5891,-1.5891,-1.5891,-1.5891,-1.5891,-1.5891,-1.5891,-1.519,-1.4379,-1.4379,-1.3619,-1.2743,-1.2635,-1.176,-1.0836,-1.0726,-0.9693,-0.873,-0.8713,-0.8506,-0.8361,-0.833,-0.816,-0.8109,-0.8248,-0.8387,-0.854,-0.871,-0.8852,-0.8885,-0.8885,-0.8885,-0.8885,-0.8885,-0.8885,-0.8826,-0.8543,-0.8263,-0.7937,-0.766,-0.7365,-0.7191,-0.7191,-0.7027,-0.6964,-0.6964,-0.6872,-0.6823,-0.6823,-0.6836,-0.6842,-0.6842,-0.6842,-0.6961,-1.3663,-1.3519,-1.3633,-1.2791,-1.2832,-1.3177,-1.3221,-1.3582,-1.4043,-1.447,-1.4707,-1.4875,-1.472,-1.3843,-1.2954,-1.2303,-1.1688,-1.1441,-1.1993,-1.2476,-1.3299,-1.4707,-1.5897,-1.6459,-1.613,-1.6014,-1.5959,-1.5959,-1.5429,-1.5522,-1.6602,-1.6073,-1.634,-1.762,-1.7518,-1.7701,-1.8215,-1.81,-1.7913,-1.7648,-1.7648,-1.7587,-1.7485,-1.7485,-1.7485,-1.7473,-1.7322,-1.734,-1.7461,-1.7153,-1.705,-1.705,-1.6622,-1.6386,-1.626,-1.6109,-1.5982,-1.5891,-1.5891,-1.5891,-1.5891,-1.5891,-1.5891,-1.5785,-1.5137,-1.46,-1.4056,-1.3344,-1.2797,-1.2254,-1.1596,-1.1055,-1.0511,-0.9805,-0.9142,-0.8686,-0.8598,-0.8418,-0.8245,-0.8153,-0.8157,-0.8194,-0.831,-0.8462,-0.8635,-0.8703,-0.8842,-0.8885,-0.8885,-0.8885,-0.8885,-0.8885,-0.8885,-0.8771,-0.854,-0.8211,-0.7881,-0.7607,-0.7324,-0.721,-0.721,-0.6978,-0.6877,-0.6877,-0.6757,-0.6695,-0.6695,-0.6766,-0.6801,-0.6801,-0.6801,-0.6855,-1.3126,-1.3156,-1.3252,-1.1548,-1.1967,-1.254,-1.1725,-1.2375,-1.3054,-1.2816,-1.3303,-1.3577,-1.3041,-1.2748,-1.235,-1.1331,-1.1182,-1.1118,-1.1063,-1.1652,-1.2649,-1.4095,-1.3849,-1.3775,-1.4302,-1.427,-1.4261,-1.4315,-1.3944,-1.4065,-1.4842,-1.4851,-1.5198,-1.6065,-1.6626,-1.7078,-1.7385,-1.7619,-1.7672,-1.7485,-1.7485,-1.7485,-1.7485,-1.7485,-1.7443,-1.7364,-1.7171,-1.7159,-1.7237,-1.6857,-1.6767,-1.6827,-1.6435,-1.6235,-1.6151,-1.5958,-1.5891,-1.5891,-1.5891,-1.5891,-1.5891,-1.5891,-1.5672,-1.5298,-1.4439,-1.3727,-1.3073,-1.22,-1.171,-1.1219,-1.0406,-1.0186,-0.997,-0.9099,-0.8791,-0.8628,-0.856,-0.8367,-0.8197,-0.8167,-0.8221,-0.8333,-0.8374,-0.854,-0.871,-0.871,-0.8842,-0.8885,-0.8885,-0.8885,-0.8885,-0.8885,-0.8826,-0.8657,-0.8377,-0.8045,-0.7756,-0.7448,-0.7276,-0.7147,-0.7114,-0.6861,-0.6752,-0.6752,-0.6632,-0.6567,-0.6567,-0.666,-0.67,-0.67,-0.67,-0.6719,-1.3402,-1.2544,-1.1778,-1.1301,-1.0546,-1.0029,-1.0272,-1.0513,-1.1002,-1.2359,-1.1653,-1.1247,-1.2561,-1.1781,-1.0907,-1.0765,-1.0978,-1.1012,-1.0571,-1.0629,-1.1245,-1.2508,-1.1458,-1.1196,-1.2734,-1.2722,-1.269,-1.2869,-1.1489,-1.1854,-1.4768,-1.4645,-1.4591,-1.4719,-1.6803,-1.7276,-1.604,-1.7019,-1.7491,-1.7485,-1.7485,-1.7485,-1.7485,-1.7485,-1.734,-1.7105,-1.7092,-1.6954,-1.6724,-1.6706,-1.6543,-1.6302,-1.629,-1.6127,-1.5897,-1.5891,-1.5891,-1.5891,-1.5891,-1.5891,-1.5891,-1.5891,-1.5137,-1.4277,-1.4223,-1.2635,-1.0781,-1.0781,-0.9915,-0.8992,-0.8937,-0.8937,-0.8937,-0.8885,-0.871,-0.8526,-0.8672,-0.8357,-0.8079,-0.8414,-0.8364,-0.8368,-0.8452,-0.8608,-0.871,-0.871,-0.8842,-0.8885,-0.8885,-0.8885,-0.8885,-0.8885,-0.8654,-0.8377,-0.8045,-0.7771,-0.7445,-0.7054,-0.6991,-0.6937,-0.6817,-0.6692,-0.6624,-0.6624,-0.6454,-0.6392,-0.6392,-0.6395,-0.6398,-0.6398,-0.6398,-0.646,-1.2459,-1.1661,-1.0955,-1.0387,-1.0103,-1.0025,-1.0232,-1.0317,-1.0479,-1.0987,-1.1106,-1.1296,-1.179,-1.1655,-1.1512,-1.1452,-1.122,-1.0931,-1.0677,-1.0602,-1.1388,-1.3704,-1.2737,-1.2822,-1.5071,-1.2834,-1.1221,-1.1276,-1.0777,-1.0858,-1.177,-1.1876,-1.2179,-1.2882,-1.4401,-1.5416,-1.5753,-1.6926,-1.7062,-1.6225,-1.6225,-1.6563,-1.7219,-1.7219,-1.708,-1.6821,-1.6634,-1.661,-1.667,-1.6314,-1.6205,-1.6266,-1.6091,-1.597,-1.5891,-1.5891,-1.5891,-1.5891,-1.5891,-1.5891,-1.5891,-1.5891,-1.5624,-1.5024,-1.3506,-1.2472,-1.1492,-0.997,-0.9136,-0.8811,-0.8858,-0.8788,-0.8662,-0.8764,-0.8632,-0.8496,-0.8547,-0.8438,-0.8364,-0.8462,-0.8526,-0.8577,-0.8625,-0.876,-0.8807,-0.8807,-0.8851,-0.8885,-0.8885,-0.8885,-0.8826,-0.8654,-0.8543,-0.8266,-0.7771,-0.7662,-0.7476,-0.7155,-0.7027,-0.6967,-0.6923,-0.6728,-0.6619,-0.6619,-0.6449,-0.6387,-0.6387,-0.6387,-0.6387,-0.6387,-0.6387,-0.6408,-1.1553,-1.0996,-1.0453,-0.9797,-0.9737,-0.9852,-1.0005,-1.008,-1.0131,-1.0185,-1.0852,-1.1378,-1.1378,-1.1563,-1.1739,-1.2045,-1.1599,-1.1156,-1.1059,-1.0998,-1.1896,-1.4385,-1.3439,-1.3722,-1.6488,-1.3797,-1.1622,-1.1177,-1.1231,-1.1006,-1.0354,-1.0753,-1.1121,-1.1282,-1.2921,-1.3973,-1.4197,-1.551,-1.5752,-1.4917,-1.5312,-1.5784,-1.6443,-1.6762,-1.6803,-1.6537,-1.6356,-1.6326,-1.638,-1.603,-1.5988,-1.6127,-1.5958,-1.5952,-1.603,-1.5928,-1.5946,-1.6018,-1.5922,-1.5891,-1.5891,-1.5891,-1.5618,-1.4917,-1.3014,-1.2146,-1.1383,-0.9427,-0.8828,-0.8733,-0.8832,-0.8669,-0.8506,-0.8604,-0.8516,-0.8421,-0.8472,-0.8442,-0.8438,-0.8543,-0.8645,-0.8726,-0.8781,-0.8817,-0.8865,-0.8811,-0.8804,-0.8821,-0.8875,-0.8885,-0.8771,-0.854,-0.8374,-0.81,-0.7662,-0.7456,-0.7298,-0.7087,-0.6918,-0.6834,-0.679,-0.6638,-0.6554,-0.6554,-0.6427,-0.6387,-0.6387,-0.6387,-0.6387,-0.6387,-0.6387,-0.6387,-1.0634,-1.0464,-1.0287,-0.9594,-0.9381,-0.9422,-0.9574,-0.9707,-0.9839,-0.9985,-1.0784,-1.1427,-1.1419,-1.1447,-1.1721,-1.2475,-1.2106,-1.1688,-1.1558,-1.1628,-1.2412,-1.4325,-1.3417,-1.3809,-1.6642,-1.5471,-1.3913,-1.2507,-1.2613,-1.2067,-1.0453,-1.1362,-1.1333,-1.0036,-1.2318,-1.3006,-1.1692,-1.2946,-1.3605,-1.3725,-1.4573,-1.5045,-1.514,-1.6113,-1.647,-1.6205,-1.626,-1.6121,-1.5891,-1.5891,-1.5891,-1.5891,-1.5903,-1.6072,-1.6278,-1.6006,-1.6066,-1.6241,-1.5982,-1.5891,-1.5891,-1.5891,-1.5137,-1.3948,-1.2743,-1.1651,-1.0566,-0.9316,-0.8876,-0.8753,-0.8814,-0.8637,-0.8462,-0.8469,-0.837,-0.8357,-0.8442,-0.837,-0.8364,-0.8645,-0.8706,-0.8757,-0.8848,-0.8871,-0.8821,-0.872,-0.8699,-0.8754,-0.8851,-0.8865,-0.8751,-0.8475,-0.8143,-0.787,-0.7595,-0.7215,-0.6937,-0.682,-0.669,-0.6567,-0.64,-0.6389,-0.6387,-0.6387,-0.6387,-0.6387,-0.6387,-0.6387,-0.6387,-0.6387,-0.6387,-0.6387,-1.035,-0.9966,-0.9536,-0.9449,-0.9381,-0.9422,-0.9574,-0.9551,-0.9735,-1.0531,-1.1224,-1.1682,-1.159,-1.1932,-1.2005,-1.1454,-1.114,-1.0909,-1.0636,-1.0728,-1.1337,-1.2603,-1.3394,-1.4509,-1.6076,-1.7038,-1.6768,-1.4887,-1.315,-1.1949,-1.1352,-1.0805,-1.03,-0.9883,-1.1409,-1.2049,-1.1692,-1.2053,-1.2711,-1.366,-1.2863,-1.2866,-1.357,-1.4657,-1.4977,-1.4797,-1.5606,-1.5952,-1.5891,-1.5891,-1.5891,-1.591,-1.6103,-1.6223,-1.6278,-1.6223,-1.6247,-1.626,-1.5988,-1.5891,-1.5891,-1.5891,-1.5137,-1.3948,-1.2743,-1.22,-1.171,-1.0566,-1.0023,-0.9877,-1.001,-0.9105,-0.818,-0.8296,-0.8347,-0.8333,-0.8368,-0.8381,-0.8452,-0.8526,-0.8632,-0.8723,-0.876,-0.8767,-0.8716,-0.8564,-0.854,-0.8598,-0.875,-0.8511,-0.8217,-0.8046,-0.7732,-0.7463,-0.7193,-0.7056,-0.6972,-0.694,-0.6738,-0.6605,-0.6575,-0.6435,-0.6387,-0.6387,-0.6387,-0.6387,-0.6387,-0.6387,-0.6387,-0.6387,-0.6387,-0.6387,-0.9549,-0.9316,-0.8994,-0.915,-0.9188,-0.9322,-0.9864,-0.9927,-1.0194,-1.1201,-1.1963,-1.2244,-1.17,-1.1995,-1.2147,-1.1582,-1.1265,-1.1049,-1.0944,-1.094,-1.1494,-1.288,-1.3761,-1.494,-1.6825,-1.7848,-1.7893,-1.672,-1.4963,-1.3544,-1.2603,-1.1963,-1.1305,-1.0668,-1.1329,-1.145,-1.0846,-1.0849,-1.123,-1.1928,-1.1584,-1.1628,-1.2108,-1.3228,-1.3892,-1.4223,-1.4869,-1.5458,-1.5891,-1.5891,-1.5958,-1.6072,-1.6223,-1.6356,-1.6453,-1.6338,-1.6296,-1.626,-1.5982,-1.5891,-1.5832,-1.5298,-1.4708,-1.3894,-1.2146,-1.1978,-1.2146,-1.0996,-1.0469,-1.0216,-1.0322,-0.9193,-0.8012,-0.8147,-0.817,-0.817,-0.817,-0.8286,-0.8408,-0.8469,-0.855,-0.8611,-0.8611,-0.8611,-0.856,-0.8411,-0.8387,-0.8421,-0.8506,-0.8289,-0.7992,-0.7802,-0.7487,-0.7223,-0.6958,-0.6855,-0.6825,-0.6825,-0.6643,-0.6489,-0.6489,-0.6422,-0.6387,-0.6387,-0.6387,-0.6387,-0.6387,-0.6387,-0.6387,-0.6387,-0.6387,-0.6387,-0.8842,-0.8876,-0.8928,-0.9249,-0.9164,-0.9377,-1.0453,-1.0698,-1.0933,-1.2018,-1.2718,-1.2884,-1.1913,-1.202,-1.224,-1.2037,-1.1786,-1.1606,-1.1599,-1.1678,-1.222,-1.3793,-1.4166,-1.5288,-1.7728,-1.7901,-1.7823,-1.7823,-1.7045,-1.5817,-1.4043,-1.3784,-1.3186,-1.1989,-1.1908,-1.1354,-1.0272,-1.0272,-1.0194,-1.0044,-1.1032,-1.1322,-1.0944,-1.2033,-1.2977,-1.3727,-1.3894,-1.4595,-1.5678,-1.5678,-1.5917,-1.6229,-1.6266,-1.6429,-1.6616,-1.6374,-1.6278,-1.6241,-1.5982,-1.5891,-1.5731,-1.4761,-1.4326,-1.384,-1.1764,-1.1851,-1.2375,-1.1235,-1.0662,-1.0396,-1.0215,-0.9122,-0.8015,-0.7995,-0.7988,-0.7988,-0.7988,-0.8143,-0.8282,-0.8425,-0.8455,-0.8455,-0.8455,-0.8455,-0.8404,-0.8262,-0.8241,-0.8241,-0.8241,-0.8092,-0.787,-0.7644,-0.7311,-0.7042,-0.6801,-0.669,-0.6619,-0.6619,-0.6454,-0.6387,-0.6387,-0.6387,-0.6387,-0.6387,-0.6387,-0.6387,-0.6387,-0.6387,-0.6387,-0.6387,-0.6387,-0.6387,-0.9855,-0.9716,-1.0124,-1.1207,-1.0661,-1.0257,-1.1576,-1.166,0.0,-1.2796,-1.2995,-1.2949,-1.2594,-1.2889,-1.27,-1.1324,-1.1415,-1.1356,-1.0657,-1.1465,-1.2105,-1.2174,-1.4036,-1.5531,-1.5991,-1.6978,-1.7551,-1.7551,-1.741,-1.6736,-1.5337,-1.4262,-1.3605,-1.3366,-1.3145,-1.2944,-1.2704,-1.2704,-1.2543,-1.2343,-1.2572,-1.2056,-1.094,-1.1945,-1.2014,-1.1383,-1.2309,-1.3398,-1.4487,-1.4487,-1.5053,-1.5976,-1.6193,-1.6308,-1.635,-1.6302,-1.6278,-1.6241,-1.5982,-1.5891,-1.5891,-1.5678,-1.4976,-1.4116,-1.3727,-1.3586,-1.3324,-1.2259,-1.172,-1.1288,-1.031,-0.9122,-0.8197,-0.8019,-0.7988,-0.7988,-0.7988,-0.8012,-0.8126,-0.8279,-0.8357,-0.8357,-0.8357,-0.8357,-0.8255,-0.8102,-0.8029,-0.8029,-0.8029,-0.7648,-0.7397,-0.7571,-0.7076,-0.6741,-0.6793,-0.669,-0.6619,-0.6619,-0.6454,-0.6387,-0.6387,-0.6387,-0.6387,-0.6387,-0.6387,-0.6387,-0.6387,-0.6387,-0.6387,-0.6387,-0.6387,-0.6387,-1.0755,-1.07,-1.0917,-1.1628,-1.1345,-1.1191,-1.2375,0.0,0.0,-1.3557,-1.3736,-1.3464,-1.2802,-1.3015,-1.2868,-1.1608,-1.1298,-1.1391,-1.1902,-1.2085,-1.2572,-1.3784,-1.5027,-1.6008,-1.6537,-1.712,-1.7424,-1.7292,-1.728,-1.7041,-1.6396,-1.5041,-1.4275,-1.4265,-1.3529,-1.3072,-1.3072,-1.3072,-1.2969,-1.2763,-1.2871,-1.2476,-1.1687,-1.2248,-1.2521,-1.2526,-1.3073,-1.3997,-1.5095,-1.5232,-1.5609,-1.6103,-1.6229,-1.6193,-1.606,-1.5928,-1.5789,-1.565,-1.5523,-1.5572,-1.5662,-1.5529,-1.4924,-1.4008,-1.3118,-1.3309,-1.3661,-1.3018,-1.2304,-1.1554,-1.1001,-0.9505,-0.8133,-0.8008,-0.7988,-0.7988,-0.7988,-0.7988,-0.8012,-0.8136,-0.815,-0.815,-0.815,-0.815,-0.8126,-0.8002,-0.7988,-0.7988,-0.7988,-0.7537,-0.7237,-0.737,-0.6864,-0.6548,-0.6605,-0.6556,-0.6473,-0.6473,-0.6419,-0.6387,-0.6387,-0.6387,-0.6387,-0.6387,-0.6387,-0.6387,-0.6387,-0.6387,-0.6387,-0.6387,-0.6387,-0.6387,-1.1721,-1.167,-1.1768,-1.2181,-1.2043,-1.2081,-1.3125,-1.3309,-1.3462,-1.4142,-1.4298,-1.4052,-1.3221,-1.3243,-1.315,-1.2264,-1.1744,-1.1928,-1.3222,-1.3045,-1.3615,-1.5732,-1.6227,0.0,-1.7444,-1.743,-1.7292,-1.7026,-1.6954,-1.6948,-1.7002,-1.5892,-1.5214,-1.5197,-1.4179,-1.3645,-1.3645,-1.3645,-1.3541,-1.3332,-1.3541,-1.333,-1.2807,-1.2867,-1.3237,-1.3786,-1.3786,-1.4454,-1.5494,-1.5659,-1.5868,-1.603,-1.603,-1.5903,-1.5698,-1.5493,-1.5282,-1.5107,-1.5107,-1.524,-1.5372,-1.5107,-1.4752,-1.4221,-1.2785,-1.3117,-1.392,-1.3472,-1.2622,-1.1768,-1.1325,-0.9788,-0.8325,-0.8045,-0.7988,-0.7988,-0.7988,-0.7988,-0.7988,-0.7988,-0.7988,-0.7988,-0.7988,-0.7988,-0.7988,-0.7988,-0.7988,-0.7988,-0.7988,-0.7537,-0.7188,-0.7188,-0.6736,-0.6398,-0.6422,-0.64,-0.6387,-0.6387,-0.6387,-0.6387,-0.6387,-0.6387,-0.6387,-0.6387,-0.6387,-0.6387,-0.6387,-0.6387,-0.6387,-0.6387,-0.6387,-0.6387,-1.2856,-1.257,-1.2872,-1.4129,-1.3511,-1.2948,-1.426,0.0,-1.4184,-1.4298,-1.4298,-1.425,-1.4148,-1.419,-1.3967,-1.3372,-1.3208,-1.3172,-1.3147,-1.4262,-1.5313,-1.5953,0.0,0.0,-1.7509,-1.7267,-1.702,-1.6754,-1.6501,-1.6471,-1.6724,-1.66,-1.6526,-1.6526,-1.617,-1.5979,-1.5979,-1.5997,-1.5873,-1.5601,-1.5861,-1.5287,-1.4002,-1.4024,-1.3532,-1.258,-1.258,-1.3115,0.0,-1.401,-1.448,-1.5215,-1.5215,-1.5203,-1.5179,-1.5155,-1.5125,-1.5107,-1.5107,-1.5125,-1.5101,-1.4835,-1.5005,-1.5325,-1.4879,-1.4699,-1.4427,-1.3424,-1.3004,-1.2393,-1.0313,-0.9692,-0.9361,-0.8268,-0.7988,-0.7988,-0.7988,-0.7988,-0.7988,-0.7988,-0.7988,-0.7988,-0.7988,-0.7988,-0.7988,-0.7988,-0.7988,-0.7988,-0.7988,-0.7537,-0.7188,-0.7188,-0.6736,-0.643,-0.6592,-0.6452,-0.6387,-0.6387,-0.6387,-0.6387,-0.6387,-0.6387,-0.6387,-0.6387,-0.6387,-0.6387,-0.6387,-0.6387,-0.6387,-0.6387,-0.6387,-0.6387,-1.3757,-1.3661,-1.3786,-1.434,-1.4038,-1.3786,-1.434,0.0,-1.4298,-1.4298,-1.4298,-1.4298,-1.4298,-1.4298,-1.4207,-1.3966,-1.3483,-1.3501,-1.4435,-1.4629,-1.5145,-1.65,-1.6971,-1.7189,-1.7243,-1.7008,-1.6742,-1.6471,-1.6199,-1.6024,-1.5982,-1.6127,-1.6211,-1.6211,-1.6103,-1.6048,-1.6048,-1.6054,-1.6,-1.5891,-1.5994,-1.5773,-1.5238,-1.5035,-1.4748,-1.4256,-1.4107,-1.4257,0.0,-1.4746,-1.4924,-1.5107,-1.5107,-1.501,-1.4853,-1.4684,-1.4624,-1.4624,-1.4624,-1.4733,-1.4829,-1.4552,-1.4721,-1.498,-1.4702,-1.4666,-1.458,-1.4004,-1.2921,-1.1722,-1.0801,-0.9661,-0.861,-0.8101,-0.7988,-0.7988,-0.7988,-0.7988,-0.7988,-0.7988,-0.7988,-0.7988,-0.7988,-0.7988,-0.7988,-0.7988,-0.7988,-0.7988,-0.7988,-0.7537,-0.7188,-0.7188,-0.6736,-0.6406,-0.6454,-0.6414,-0.6387,-0.6387,-0.6387,-0.6387,-0.6387,-0.6387,-0.6387,-0.6387,-0.6387,-0.6387,-0.6387,-0.6387,-0.6387,-0.6387,-0.6387,-0.6387,-1.4298,-1.4298,-1.4298,-1.4298,-1.4298,-1.4298,0.0,0.0,-1.4298,-1.4298,-1.4298,-1.4298,-1.4298,-1.4298,-1.4298,-1.4298,-1.3762,-1.3862,-1.5203,-1.4919,-1.5201,-1.6768,-1.6809,-1.6773,-1.696,-1.6664,-1.6344,-1.6066,-1.5879,-1.5656,-1.5396,-1.5559,-1.5656,-1.5656,-1.5656,-1.5656,-1.5656,-1.5656,-1.5656,-1.5656,-1.5656,-1.5656,-1.565,-1.5469,-1.5384,-1.5372,-1.5191,-1.5065,0.0,-1.5191,-1.5107,-1.4865,-1.4865,-1.4757,-1.457,-1.437,-1.4298,-1.4298,-1.4298,-1.4425,-1.4558,-1.4358,-1.4431,-1.4558,-1.4358,-1.4437,-1.4552,-1.4352,-1.278,-1.1219,-1.1219,-0.9608,-0.7988,-0.7988,-0.7988,-0.7988,-0.7988,-0.7988,-0.7988,-0.7988,-0.7988,-0.7988,-0.7988,-0.7988,-0.7988,-0.7988,-0.7988,-0.7988,-0.7988,-0.759,-0.7288,-0.7188,-0.6789,-0.6487,-0.6387,-0.6387,-0.6387,-0.6387,-0.6387,-0.6387,-0.6387,-0.6387,-0.6387,-0.6387,-0.6387,-0.6387,-0.6387,-0.6387,-0.6387,-0.6387,-0.6387,-0.6387,-1.4298,-1.4298,-1.4298,-1.4298,-1.4298,-1.4298,-1.4298,-1.4298,-1.4298,-1.4298,-1.4298,-1.4298,-1.4298,-1.4298,-1.4298,-1.4298,-1.4298,-1.4491,-1.5034,-1.5336,-1.5801,-1.661,-1.6706,-1.67,-1.6706,-1.6211,-1.5789,-1.5529,-1.5505,-1.539,-1.5125,-1.5113,-1.5113,-1.5113,-1.5113,-1.5113,-1.5113,-1.5113,-1.5113,-1.5113,-1.5113,-1.5113,-1.5113,-1.5113,-1.5113,-1.5113,-1.5107,-1.4962,0.0,-1.4727,-1.4558,-1.4304,-1.4304,-1.4304,-1.4298,-1.4298,-1.4298,-1.4298,-1.4298,-1.4298,-1.4298,-1.4298,-1.4298,-1.4298,-1.4298,-1.4298,-1.4298,-1.4298,-1.278,-1.1219,-1.1219,-0.9608,-0.7988,-0.7988,-0.7988,-0.7988,-0.7988,-0.7988,-0.7988,-0.7988,-0.7988,-0.7988,-0.7988,-0.7988,-0.7988,-0.7988,-0.7988,-0.7988,-0.7988,-0.7743,-0.7494,-0.7238,-0.6942,-0.6692,-0.6437,-0.6387,-0.6387,-0.6387,-0.6387,-0.6387,-0.6387,-0.6387,-0.6387,-0.6387,-0.6387,-0.6387,-0.6387,-0.6387,-0.6387,-0.6387,-0.6387,-0.6387,-1.4298,-1.4298,-1.4298,-1.4298,-1.4448,-1.4592,-1.4592,-1.4592,-1.4592,-1.4592,-1.4442,-1.4298,-1.4298,-1.4298,-1.4298,-1.4298,-1.4298,-1.4358,-1.4527,-1.4944,-1.5396,-1.5825,-1.6193,-1.6272,-1.5916,-1.5722,-1.5517,-1.5252,-1.5234,-1.5119,-1.4853,-1.4841,-1.492,-1.5101,-1.5107,-1.5107,-1.5107,-1.5107,-1.5107,-1.5107,-1.5107,-1.5107,-1.5101,-1.492,-1.4841,-1.4829,-1.4636,-1.4509,-1.4431,-1.4431,-1.4377,-1.4298,-1.4298,-1.4298,-1.4298,-1.4298,-1.4298,-1.4298,-1.4298,-1.4298,-1.4298,-1.4298,-1.4298,-1.4298,-1.4298,-1.4298,-1.4004,-1.2587,-1.1707,-1.0877,-0.941,-0.8528,-0.7988,-0.7988,-0.7988,-0.7988,-0.7988,-0.7988,-0.7988,-0.7988,-0.7988,-0.7988,-0.7988,-0.7988,-0.7988,-0.7988,-0.7988,-0.7988,-0.7988,-0.7743,-0.7547,-0.7494,-0.7095,-0.6692,-0.6437,-0.6387,-0.6387,-0.6387,-0.6387,-0.6387,-0.6387,-0.6387,-0.6387,-0.6387,-0.6387,-0.6387,-0.6387,-0.6387,-0.6387,-0.6387,-0.6387,-0.6387,0.0,-1.4592,-1.4592,-1.4592,-1.4736,0.0,-1.4838,-1.4838,-1.4838,-1.4838,-1.4742,-1.4592,-1.4592,-1.4544,-1.4442,-1.4442,-1.4394,-1.4334,-1.4437,-1.4835,-1.524,-1.5602,-1.5849,-1.5855,-1.5529,-1.5409,-1.524,-1.498,-1.4962,-1.4841,-1.457,-1.4558,-1.4636,-1.4799,-1.4805,-1.4805,-1.4805,-1.4805,-1.4805,-1.4805,-1.4805,-1.4805,-1.4799,-1.4636,-1.4558,-1.4552,-1.4377,-1.4298,0.0,-1.4189,-1.4208,-1.4286,-1.4189,-1.4208,-1.4298,-1.4298,-1.4298,-1.4298,-1.4298,-1.4298,-1.4298,-1.4298,-1.4226,-1.4129,-1.4032,-1.4141,-1.4052,-1.2732,-1.2096,-1.1463,-1.0145,-0.9509,-0.9217,-0.9217,-0.9217,-0.9217,-0.9217,-0.8874,-0.8627,-0.8627,-0.8283,-0.7988,-0.7988,-0.7988,-0.7988,-0.7988,-0.7988,-0.7988,-0.7988,-0.7842,-0.7693,-0.7596,-0.7194,-0.6839,-0.6589,-0.6437,-0.6387,-0.6387,-0.6387,-0.6387,-0.6387,-0.6387,-0.6387,-0.6387,-0.6387,-0.6387,-0.6387,-0.6387,-0.6387,-0.6387,-0.6387,-0.6387,0.0,-1.5267,-1.5172,-1.5131,-1.5131,-1.5131,-1.5131,-1.5131,0.0,-1.5131,-1.5131,-1.5089,-1.5108,-1.4898,-1.4742,-1.4767,-1.4508,-1.4395,-1.4672,-1.4962,-1.5324,-1.5831,-1.5656,-1.5475,-1.5421,-1.5215,-1.4962,-1.4678,-1.466,-1.4545,-1.4286,-1.425,-1.425,-1.4268,-1.425,-1.425,-1.4268,-1.4268,-1.4262,-1.4244,-1.428,-1.4286,-1.4268,-1.4286,-1.4298,-1.4298,-1.4298,-1.4298,-1.428,-1.4032,-1.4081,-1.4268,-1.4008,-1.4063,-1.4292,-1.428,-1.428,-1.4292,-1.4274,-1.4268,-1.4268,-1.425,-1.4075,-1.3833,-1.3592,-1.3851,-1.4244,-1.4166,-1.3434,-1.2657,-1.263,-1.1901,-1.1219,-1.1219,-1.1219,-1.1219,-1.1219,-1.0342,-0.9608,-0.9608,-0.8726,-0.7988,-0.7988,-0.7988,-0.7988,-0.7988,-0.7988,-0.7988,-0.7988,-0.7988,-0.7892,-0.7646,-0.7391,-0.7089,-0.6845,-0.6589,-0.6387,-0.6387,-0.6387,-0.6387,-0.6387,-0.6387,-0.6387,-0.6387,-0.6387,-0.6387,-0.6387,-0.6387,-0.6387,-0.6387,-0.6387,-0.6387,-1.8048,0.0,-1.5994,-1.5267,-1.5267,-1.5404,0.0,-1.5404,-1.5404,-1.5404,0.0,-1.5147,-1.5356,-1.5175,-1.5051,-1.5265,-1.4921,-1.4684,-1.4961,-1.5259,-1.5529,-1.5849,-1.5656,-1.5258,-1.4636,-1.4721,-1.4612,-1.4135,-1.4099,-1.4069,-1.4002,-1.3809,-1.3791,-1.399,-1.3803,-1.3797,-1.3996,-1.3996,-1.3894,-1.3707,-1.4105,-1.4189,-1.4002,-1.4208,-1.4298,-1.4298,-1.4298,-1.4298,-1.4292,-1.4232,-1.4244,-1.4268,-1.4008,-1.4063,-1.4274,-1.4075,-1.4123,-1.4268,-1.4069,-1.3996,-1.3966,-1.3761,-1.3658,-1.3598,-1.3538,-1.3598,-1.3552,-1.2939,-1.2605,-1.2263,-1.1711,-1.1365,-1.1219,-1.1219,-1.1219,-1.1219,-1.1219,-1.0342,-0.9608,-0.9608,-0.8726,-0.7988,-0.7988,-0.7988,-0.7988,-0.7988,-0.7988,-0.7988,-0.7988,-0.7988,-0.7992,-0.7892,-0.7487,-0.7188,-0.7089,-0.6686,-0.6387,-0.6387,-0.6387,-0.6387,-0.6387,-0.6387,-0.6387,-0.6387,-0.6387,-0.6387,-0.6387,-0.6387,-0.6387,-0.6387,-0.6387,-0.6387,-1.9613,-1.8542,-1.7436,-1.6936,-1.6789,-1.6672,-1.6398,0.0,0.0,0.0,0.0,0.0,-1.5605,-1.5522,-1.5467,-1.5486,-1.5388,-1.5356,-1.5626,-1.556,-1.5664,-1.6062,-1.5497,-1.5016,-1.4696,-1.4473,-1.4226,-1.393,-1.3797,-1.3725,-1.3725,-1.3592,-1.358,-1.3725,-1.3471,-1.3465,-1.3725,-1.3725,-1.3652,-1.3519,-1.3803,-1.3863,-1.3731,-1.3876,-1.3936,-1.3936,-1.3936,-1.3936,-1.393,-1.3809,-1.3833,-1.3912,-1.3646,-1.3707,-1.3924,-1.3779,-1.3815,-1.3918,-1.3773,-1.3725,-1.3682,-1.3423,-1.3338,-1.3308,-1.3181,-1.3139,-1.3114,-1.3055,-1.3046,-1.2961,-1.2673,-1.2635,-1.2635,-1.2635,-1.2635,-1.2635,-1.2635,-1.1414,-1.0342,-1.0342,-0.9069,-0.7988,-0.7988,-0.7988,-0.7988,-0.7988,-0.7988,-0.7988,-0.7988,-0.7988,-0.7988,-0.7988,-0.7537,-0.7188,-0.7188,-0.6686,-0.6387,-0.6387,-0.6387,-0.6387,-0.6387,-0.6387,-0.6387,-0.6387,-0.6387,-0.6387,-0.6387,-0.6387,-0.6387,-0.6387,-0.6387,-0.6387,-2.0579,-1.9802,-1.9155,-1.888,-1.8528,-1.8167,-1.7632,0.0,0.0,0.0,0.0,0.0,0.0,-1.5866,0.0,0.0,-1.5819,-1.6094,-1.6347,-1.5894,-1.5708,-1.6051,-1.5287,-1.4799,-1.4859,-1.4286,-1.3876,-1.3791,-1.358,-1.3459,-1.3459,-1.3417,-1.3411,-1.3453,-1.32,-1.3169,-1.3387,-1.3435,-1.3435,-1.3393,-1.3477,-1.3495,-1.3459,-1.3495,-1.3513,-1.3513,-1.3513,0.0,-1.3501,-1.3227,-1.327,-1.3489,-1.3179,-1.3239,-1.3513,-1.3471,-1.3477,-1.3507,-1.3471,-1.3429,-1.3357,-1.3133,-1.3061,-1.3012,-1.2777,-1.2705,-1.2862,-1.3628,-1.3845,-1.3918,-1.422,-1.4298,-1.4298,-1.4298,-1.4298,-1.4298,-1.4298,-1.278,-1.1365,-1.1219,-0.9608,-0.8187,-0.8038,-0.7988,-0.7988,-0.7988,-0.7988,-0.7988,-0.7988,-0.7988,-0.7988,-0.7988,-0.7537,-0.7188,-0.7188,-0.6686,-0.6387,-0.6387,-0.6387,-0.6387,-0.6387,-0.6387,-0.6387,-0.6387,-0.6387,-0.6387,-0.6387,-0.6387,-0.6387,-0.6387,-0.6387,-0.6387,-2.0771,-2.0973,-2.0862,-1.9209,-1.8748,-1.8678,-1.8596,0.0,0.0,0.0,0.0,0.0,0.0,-1.5984,-1.5911,0.0,-1.6041,-1.6125,-1.6665,-1.6207,-1.5684,-1.5321,-1.5125,-1.4708,-1.3845,-1.3845,-1.3725,-1.3278,-1.3161,-1.3137,-1.3137,-1.2958,-1.294,-1.3131,-1.2916,-1.2789,-1.2825,-1.3067,-1.3061,-1.2831,-1.3296,-1.3399,-1.3149,-1.3417,-1.3513,-1.3513,0.0,-1.3513,-1.3513,-1.3471,-1.3477,-1.3489,-1.3179,-1.3239,-1.3489,-1.3266,-1.3326,-1.3483,-1.326,-1.3025,-1.2819,-1.2783,-1.2771,-1.2759,-1.2717,-1.2705,-1.2825,-1.3411,-1.3574,-1.3688,-1.4171,-1.4298,-1.4298,-1.4298,-1.4298,-1.4298,-1.4298,-1.3318,-1.2242,-1.1365,-1.0194,-0.9069,-0.8137,-0.7988,-0.7988,-0.7988,-0.7988,-0.7988,-0.7988,-0.7988,-0.7988,-0.7988,-0.7537,-0.7188,-0.7188,-0.6686,-0.6387,-0.6387,-0.6387,-0.6387,-0.6387,-0.6387,-0.6387,-0.6387,-0.6387,-0.6387,-0.6387,-0.6387,-0.6387,-0.6387,-0.6387,-0.6387,-2.1108,-2.1127,-2.1019,-2.0079,-2.0136,-2.0272,-2.0017,-1.9762,0.0,0.0,0.0,0.0,0.0,0.0,-1.7141,-1.723,-1.6716,-1.6484,-1.6977,-1.6125,-1.5413,-1.531,-1.4947,-1.4479,-1.3984,-1.3791,-1.3538,-1.3107,-1.2982,-1.2898,-1.2898,-1.2777,-1.2765,-1.2892,-1.2771,-1.2705,-1.2705,-1.2831,-1.2831,-1.2705,-1.2958,-1.3012,-1.2904,-1.3019,-1.3079,-1.3079,0.0,-1.3079,-1.3079,-1.3079,-1.3079,-1.3067,-1.2946,-1.297,-1.3061,-1.294,-1.297,-1.3061,-1.294,-1.2813,-1.2705,-1.2705,-1.2705,-1.2705,-1.2705,-1.2705,-1.2789,-1.3188,-1.3405,-1.3634,-1.4159,-1.4298,-1.4298,-1.4298,-1.4298,-1.4298,-1.4298,-1.3463,-1.2387,-1.1414,-1.0342,-0.9266,-0.8187,-0.7988,-0.7988,-0.7988,-0.7988,-0.7988,-0.7988,-0.7988,-0.7988,-0.7988,-0.7537,-0.7188,-0.7188,-0.6686,-0.6387,-0.6387,-0.6387,-0.6387,-0.6387,-0.6387,-0.6387,-0.6387,-0.6387,-0.6387,-0.6387,-0.6387,-0.6387,-0.6387,-0.6387,-0.6387,-2.144,-2.1081,-2.0871,-2.0685,0.0,-2.1381,-2.1265,-2.0976,0.0,0.0,0.0,0.0,0.0,-1.7597,-1.7774,-1.7808,-1.7193,-1.6847,-1.714,-1.6132,-1.5339,-1.5301,-1.4789,-1.4369,-1.4039,-1.3698,-1.3353,-1.3043,-1.2825,-1.2681,-1.2614,-1.2614,-1.2584,-1.2524,-1.2524,-1.2524,-1.2524,-1.2524,-1.2584,-1.2705,-1.2644,-1.2644,-1.2699,-1.2638,-1.2614,-1.2614,-1.2614,-1.2578,-1.2524,-1.2584,-1.2614,-1.262,-1.2681,-1.2705,-1.2705,-1.2705,-1.2705,-1.2705,-1.2705,-1.2705,-1.2705,-1.2705,-1.2705,-1.2705,-1.2705,-1.2705,-1.2765,-1.2999,-1.3266,-1.3544,-1.4069,-1.4208,-1.422,-1.4286,-1.4298,-1.4298,-1.4298,-1.3661,-1.278,-1.1755,-1.0877,-0.9998,-0.8924,-0.8726,-0.8726,-0.8726,-0.8726,-0.8726,-0.8726,-0.8531,-0.8382,-0.8382,-0.7686,-0.7138,-0.7036,-0.6637,-0.6387,-0.6387,-0.6387,-0.6387,-0.6387,-0.6387,-0.6387,-0.6387,-0.6387,-0.6387,-0.6387,-0.6387,-0.6387,-0.6387,-0.6387,-0.6387,-2.1486,-2.132,-2.1042,-2.0382,-2.0407,0.0,-2.1971,-2.2162,0.0,-2.1947,0.0,0.0,0.0,-1.7085,-1.6605,-1.7166,-1.6923,-1.6847,-1.714,-1.6626,-1.5828,-1.4879,-1.4856,-1.4484,-1.3278,-1.3384,-1.3287,-1.2753,-1.2717,-1.2596,-1.2355,-1.2343,-1.2228,-1.1986,-1.198,-1.198,-1.198,-1.198,-1.2222,-1.2699,-1.2457,-1.2469,-1.2693,-1.2451,-1.2343,-1.2343,-1.2343,-1.2204,-1.1999,-1.224,-1.2343,-1.2367,-1.2608,-1.2705,-1.2705,-1.2705,-1.2705,-1.2705,-1.2705,-1.2705,-1.2705,-1.2705,-1.2705,-1.2705,-1.2705,-1.2705,-1.2765,-1.2999,-1.3095,-1.3227,-1.3797,-1.3936,-1.3996,-1.4238,-1.4298,-1.4298,-1.4298,-1.425,-1.3854,-1.278,-1.2533,-1.2145,-1.1121,-1.0979,-1.0979,-1.0979,-1.0979,-1.0979,-1.0979,-1.0096,-0.946,-0.946,-0.8127,-0.6989,-0.6487,-0.6437,-0.6387,-0.6387,-0.6387,-0.6387,-0.6387,-0.6387,-0.6387,-0.6387,-0.6387,-0.6387,-0.6387,-0.6387,-0.6387,-0.6387,-0.6387,-0.6387,-2.1453,-2.1233,-2.1085,-2.0415,-2.0298,0.0,0.0,-2.2282,-2.2272,-2.2236,-2.2646,0.0,0.0,0.0,-1.7549,-1.7667,-1.7123,-1.673,-1.6892,-1.6099,-1.5329,-1.4917,-1.4537,-1.3977,-1.3188,-1.3034,-1.2766,-1.2246,-1.2216,-1.2174,-1.2077,-1.2071,-1.1982,-1.1886,-1.188,-1.188,-1.188,-1.188,-1.1982,-1.2216,-1.2119,-1.2079,-1.2216,-1.2113,-1.2071,-1.2071,-1.2071,-1.197,-1.1904,-1.2204,-1.2312,-1.2337,-1.2602,-1.2705,-1.2705,-1.2705,-1.2705,-1.2705,-1.2705,-1.2705,-1.2705,-1.2705,-1.2705,-1.2705,-1.2705,-1.2705,-1.2729,-1.2831,-1.2862,-1.3025,-1.3725,-1.3785,-1.3767,-1.4195,-1.4171,-1.4099,-1.4262,-1.4298,-1.4004,-1.2926,-1.2678,-1.2387,-1.1365,-1.1219,-1.1219,-1.1219,-1.1219,-1.0974,-1.0293,-1.044,-1.0096,-0.8726,-0.7783,-0.6989,-0.6437,-0.6387,-0.6387,-0.6387,-0.6387,-0.6387,-0.6387,-0.6387,-0.6387,-0.6387,-0.6369,-0.6366,-0.6387,-0.6366,-0.6369,-0.6387,-0.6387,-0.6387,-2.1694,-2.1227,-2.0934,0.0,0.0,0.0,-2.1773,-2.2052,-2.2199,-2.2584,-2.2668,-2.2351,-2.1156,0.0,0.0,-1.8025,-1.7427,-1.6891,-1.6502,-1.5654,-1.5014,-1.4648,-1.4172,-1.3617,-1.2929,-1.2679,-1.2395,-1.195,-1.188,-1.1844,-1.176,-1.176,-1.1718,-1.1667,-1.1667,-1.1667,-1.1667,-1.1667,-1.1667,-1.1667,-1.1706,-1.1797,-1.192,-1.1796,-1.176,-1.176,-1.176,-1.1745,-1.1685,-1.1956,-1.2161,-1.2337,-1.2602,-1.2705,-1.2705,-1.2705,-1.265,-1.2578,-1.2578,-1.2524,-1.2457,-1.2457,-1.2512,-1.2578,-1.2578,-1.2638,-1.2705,-1.2705,-1.2705,-1.285,-1.3495,-1.3525,-1.3525,-1.4051,-1.4039,-1.3978,-1.4244,-1.4298,-1.41,-1.3366,-1.3216,-1.2974,-1.2296,-1.2198,-1.2198,-1.2198,-1.2198,-1.1901,-1.117,-1.1414,-1.0779,-0.8474,-0.7595,-0.6927,-0.6432,-0.6382,-0.6382,-0.6382,-0.6382,-0.6382,-0.6382,-0.6347,-0.6325,-0.6325,-0.6287,-0.6287,-0.6325,-0.6323,-0.6342,-0.6385,-0.6371,-0.6387,-2.2262,-2.1404,-2.0557,0.0,0.0,0.0,-2.1319,-2.157,-2.2025,-2.3233,-2.2114,-2.1027,-2.1445,-2.0241,0.0,-1.7938,-1.7801,-1.7349,-1.6001,-1.5565,-1.5027,-1.3912,-1.3821,-1.341,-1.2372,-1.228,-1.216,-1.1914,-1.1874,-1.176,-1.1501,-1.1489,-1.1363,-1.1123,-1.1111,-1.1111,-1.1111,-1.1111,-1.1111,-1.1111,-1.1298,-1.158,-1.1862,-1.1603,-1.1483,-1.1477,-1.1477,-1.1327,-1.1129,-1.1375,-1.1796,-1.2324,-1.2584,-1.2693,-1.2693,-1.2693,-1.253,-1.2312,-1.2312,-1.2137,-1.188,-1.188,-1.2095,-1.2312,-1.2312,-1.2493,-1.2699,-1.2699,-1.2699,-1.2765,-1.2999,-1.3071,-1.3254,-1.3779,-1.39,-1.3972,-1.4232,-1.4292,-1.4292,-1.4292,-1.4292,-1.4292,-1.4292,-1.4292,-1.4292,-1.4292,-1.4292,-1.4292,-1.4292,-1.3312,-1.1648,-0.9095,-0.7791,-0.6891,-0.6363,-0.6317,-0.6317,-0.6317,-0.6314,-0.6314,-0.6317,-0.6151,-0.6086,-0.6086,-0.6251,-0.6254,-0.6086,-0.6317,-0.6374,-0.632,-0.6382,-0.6384,-2.2465,-2.1811,0.0,-2.0917,0.0,0.0,0.0,-2.1188,0.0,0.0,-2.1137,-2.0332,-2.0718,-1.9894,0.0,-1.8311,-1.7916,-1.7198,-1.5991,-1.5937,-1.5411,-1.3648,-1.3505,-1.3133,-1.211,-1.1854,-1.1648,-1.1371,-1.1353,-1.1317,-1.12,-1.1238,-1.1196,-1.1111,-1.1111,-1.1111,-1.1111,-1.1223,-1.1298,-1.1298,-1.1521,-1.1508,-1.1261,-1.1181,-1.104,-1.0862,-1.0725,-1.0707,-1.0858,-1.1129,-1.1329,-1.1473,-1.1552,-1.1703,-1.1838,-1.1838,-1.1904,-1.2041,-1.2041,-1.1986,-1.188,-1.188,-1.1934,-1.2041,-1.2041,-1.2048,-1.2155,-1.2155,-1.2288,-1.2451,-1.253,-1.2693,-1.2964,-1.3501,-1.3489,-1.3429,-1.3688,-1.3749,-1.3749,-1.3749,-1.3894,-1.3966,-1.3779,-1.39,-1.396,-1.3773,-1.3749,-1.3531,-1.2989,-1.0756,-0.9127,-0.8691,-0.7731,-0.6855,-0.6194,-0.614,-0.614,-0.614,-0.6059,-0.6089,-0.6311,-0.6151,-0.6086,-0.6086,-0.6037,-0.6037,-0.6086,-0.607,-0.6132,-0.632,-0.6301,-0.6361,-2.2693,-2.2026,0.0,-2.1026,-2.085,-2.0778,-2.0657,0.0,0.0,0.0,-2.0744,-2.0241,-2.0677,-2.0155,-1.945,-1.8786,-1.817,-1.7373,-1.6251,-1.5737,-1.5047,-1.3716,-1.3265,-1.2745,-1.2055,-1.1738,-1.152,-1.1347,-1.1335,-1.1335,-1.1335,-1.1335,-1.1335,-1.1335,-1.1335,-1.1335,-1.1335,-1.1446,-1.1521,-1.1521,-1.1706,-1.1633,-1.1228,-1.119,-1.1117,-1.1026,-1.0709,-1.061,-1.0695,-1.0851,-1.0954,-1.0966,-1.1069,-1.1242,-1.1477,-1.1369,-1.1423,-1.1582,-1.1441,-1.1405,-1.1405,-1.1405,-1.1549,-1.1724,-1.1724,-1.1802,-1.188,-1.188,-1.2035,-1.2155,-1.2155,-1.2355,-1.2687,-1.323,-1.3236,-1.3149,-1.3459,-1.3513,-1.3513,-1.3513,-1.364,-1.3701,-1.3544,-1.3646,-1.3701,-1.3538,-1.3513,-1.3197,-1.2314,-1.0265,-0.8807,-0.857,-0.757,-0.6703,-0.6065,-0.6013,-0.6013,-0.6013,-0.5945,-0.5969,-0.6116,-0.601,-0.5947,-0.5947,-0.5918,-0.5918,-0.5947,-0.5966,-0.6026,-0.6124,-0.6273,-0.6306,-2.3119,-2.2243,0.0,-2.0923,-2.0918,0.0,-2.064,-2.0475,-2.0512,-2.0869,0.0,-2.0521,-2.0879,-2.0649,-2.0099,-1.922,-1.849,-1.7688,-1.6644,-1.537,-1.4401,-1.3998,-1.3174,-1.2477,-1.2107,-1.1828,-1.1706,-1.1706,-1.1706,-1.1706,-1.1706,-1.1706,-1.1706,-1.1706,-1.1706,-1.1706,-1.1706,-1.1706,-1.1744,-1.1744,-1.1929,-1.1909,-1.1667,-1.1493,-1.1508,-1.1581,-1.1214,-1.0922,-1.0725,-1.0743,-1.0743,-1.0743,-1.0985,-1.1245,-1.1464,-1.1141,-1.1088,-1.1076,-1.0773,-1.0701,-1.0719,-1.0719,-1.1069,-1.1453,-1.1453,-1.1621,-1.1848,-1.1848,-1.1826,-1.1844,-1.1844,-1.2042,-1.2403,-1.2854,-1.3049,-1.3151,-1.3387,-1.3441,-1.3441,-1.3441,-1.3465,-1.3471,-1.3447,-1.3465,-1.3471,-1.3441,-1.3351,-1.2989,-1.2126,-1.1166,-1.0057,-0.8672,-0.7622,-0.6767,-0.6247,-0.6202,-0.6159,-0.6068,-0.6022,-0.5976,-0.5888,-0.5742,-0.5688,-0.5688,-0.5836,-0.5836,-0.5688,-0.595,-0.6002,-0.5909,-0.6132,-0.6295,-2.5081,-2.3409,0.0,0.0,-2.1174,-2.0399,-2.0114,-1.9921,-1.9765,-1.9718,-1.9622,-1.9586,-1.9668,-1.9622,-1.9377,-1.887,-1.8632,-1.8068,-1.6606,-1.6505,-1.5778,-1.3623,-1.3535,-1.3161,-1.1914,-1.1745,-1.1706,-1.1706,-1.1706,-1.1706,-1.1706,-1.1706,-1.1706,-1.1706,-1.1706,-1.1706,-1.1706,-1.1855,-1.1929,-1.1929,-1.215,-1.2198,-1.2131,-1.1748,-1.1375,-1.1071,-1.1194,-1.1101,-1.0883,-1.1098,-1.106,-1.0871,-1.0934,-1.1123,-1.1301,-1.0841,-1.0949,-1.12,-1.0783,-1.0756,-1.0935,-1.0935,-1.1046,-1.1202,-1.1202,-1.1238,-1.1286,-1.1286,-1.1405,-1.1579,-1.1579,-1.1772,-1.2035,-1.2115,-1.2493,-1.2813,-1.2868,-1.288,-1.288,-1.288,-1.3055,-1.3139,-1.2916,-1.3061,-1.3089,-1.291,-1.2224,-1.1723,-1.1641,-1.085,-1.0084,-0.9541,-0.9281,-0.8967,-0.8544,-0.8368,-0.7934,-0.7183,-0.6964,-0.6522,-0.5768,-0.5702,-0.5688,-0.5688,-0.5712,-0.5712,-0.5688,-0.5739,-0.5841,-0.5904,-0.5956,-0.6083,-2.6271,0.0,0.0,-2.2319,0.0,-2.0264,-2.0108,-1.9833,-1.9557,-1.9469,-1.939,-1.9301,-1.9301,-1.9146,-1.8953,-1.8742,-1.8385,-1.7824,-1.7035,-1.6714,-1.6021,-1.4625,-1.4358,-1.3962,-1.3157,-1.3084,-1.3084,-1.3084,-1.3084,-1.3084,-1.3084,-1.3084,-1.3084,-1.3084,-1.3084,-1.2901,-1.2586,-1.2659,-1.2512,-1.215,-1.2268,-1.2305,-1.2298,-1.2035,-1.1703,-1.128,-1.1394,-1.1317,-1.1083,-1.109,-1.1013,-1.088,-1.088,-1.1051,-1.1242,-1.0732,-1.0792,-1.1039,-1.0491,-1.0461,-1.0622,-1.0622,-1.0753,-1.0924,-1.0924,-1.1009,-1.1111,-1.1223,-1.1327,-1.1481,-1.1557,-1.1798,-1.2008,-1.2008,-1.226,-1.2481,-1.2355,-1.2427,-1.2518,-1.2518,-1.2632,-1.2687,-1.2542,-1.2638,-1.2729,-1.2705,-1.2272,-1.1845,-1.145,-1.1022,-1.045,-0.9783,-0.9695,-0.9557,-0.9222,-0.9008,-0.8496,-0.7577,-0.7228,-0.67,-0.5733,-0.5688,-0.5688,-0.5688,-0.5688,-0.5688,-0.5688,-0.5688,-0.5721,-0.5822,-0.5877,-0.5972,-2.7406,0.0,-2.4991,-2.2478,-2.1193,0.0,-2.0381,-2.0029,-1.9715,-1.9715,-1.9508,-1.9301,-1.9301,-1.9036,-1.877,-1.8632,-1.8045,-1.755,-1.7413,-1.6563,-1.5939,-1.5833,-1.5215,-1.4752,-1.4601,-1.4601,-1.4601,-1.4601,-1.4601,-1.4601,-1.4601,-1.4601,-1.4601,-1.4601,-1.4601,-1.425,-1.3499,-1.3499,-1.3098,-1.2305,-1.2305,-1.2305,-1.2305,-1.2305,-1.2114,-1.1805,-1.1755,-1.1621,-1.1458,-1.1221,-1.1131,-1.1131,-1.1131,-1.1272,-1.1413,-1.0866,-1.0861,-1.0977,-1.0347,-1.0203,-1.0363,-1.0286,-1.0467,-1.073,-1.0779,-1.0943,-1.1168,-1.1397,-1.1446,-1.1484,-1.1669,-1.1853,-1.2037,-1.2037,-1.2141,-1.2213,-1.1996,-1.2136,-1.2287,-1.2246,-1.2282,-1.2312,-1.2312,-1.2355,-1.2439,-1.2608,-1.2674,-1.2388,-1.1567,-1.1515,-1.1192,-1.0231,-1.0144,-1.0053,-0.9822,-0.9492,-0.8842,-0.7834,-0.7401,-0.6745,-0.5733,-0.5688,-0.5688,-0.5688,-0.5688,-0.5688,-0.5688,-0.5688,-0.5688,-0.5691,-0.5831,-0.5885,0.0,0.0,-2.5284,0.0,-2.1886,-2.1555,0.0,0.0,-2.0225,0.0,-1.9706,-1.9301,-1.9301,-1.9256,-1.8999,-1.8274,-1.8072,-1.7789,-1.7082,-1.6831,-1.6508,-1.5868,-1.5727,-1.5365,-1.4673,-1.4601,-1.4601,-1.4601,-1.4601,-1.4601,-1.4601,-1.4601,-1.4601,-1.4601,-1.4601,-1.425,-1.3499,-1.3499,-1.3098,-1.2305,-1.2305,-1.2305,-1.2305,-1.2305,-1.2268,-1.2224,-1.2221,-1.2208,-1.2164,-1.2131,-1.2111,-1.2111,-1.2111,-1.2138,-1.2095,-1.1621,-1.16,-1.1653,-1.0868,-1.0755,-1.0949,-1.0703,-1.071,-1.0836,-1.1116,-1.1247,-1.1329,-1.16,-1.1669,-1.1669,-1.1706,-1.1738,-1.1764,-1.1764,-1.1942,-1.2115,-1.2157,-1.2191,-1.2175,-1.1974,-1.2155,-1.2312,-1.2312,-1.2499,-1.2584,-1.2397,-1.256,-1.2578,-1.2224,-1.2349,-1.2443,-1.2314,-1.2272,-1.2272,-1.2223,-1.1278,-1.0231,-0.9039,-0.8006,-0.6918,-0.5733,-0.5688,-0.5688,-0.5688,-0.5688,-0.5688,-0.5688,-0.5688,-0.5688,-0.5688,-0.5704,-0.5809,-2.951,-2.7347,-2.5276,0.0,-2.311,-2.244,-2.1593,-2.1155,-2.0828,-2.0381,-1.9872,-1.9469,-1.9469,-1.9022,-1.8493,-1.8145,-1.7706,-1.7312,-1.6963,-1.6908,-1.6795,-1.6438,-1.6403,-1.6298,-1.5939,-1.5895,-1.5895,-1.5895,-1.5895,-1.5895,-1.5895,-1.5895,-1.5895,-1.5895,-1.5895,-1.5321,-1.4135,-1.4106,-1.3528,-1.2305,-1.2305,-1.2305,-1.2305,-1.2305,-1.2305,-1.2305,-1.2305,-1.2305,-1.2305,-1.2305,-1.2305,-1.2305,-1.2305,-1.2305,-1.2271,-1.1906,-1.1835,-1.181,-1.128,-1.1007,-1.0861,-1.0737,-1.0643,-1.0628,-1.0975,-1.1172,-1.1386,-1.1777,-1.1855,-1.1892,-1.2003,-1.204,-1.204,-1.204,-1.2144,-1.22,-1.2094,-1.2138,-1.2095,-1.1899,-1.1839,-1.188,-1.2071,-1.2071,-1.2059,-1.2089,-1.2318,-1.2445,-1.233,-1.2542,-1.265,-1.2499,-1.2614,-1.2644,-1.2499,-1.1551,-1.0544,-0.9483,-0.8225,-0.7007,-0.5952,-0.5777,-0.5688,-0.5688,-0.5688,-0.5688,-0.5688,-0.5688,-0.5688,-0.5688,-0.5688,-0.5715,0.0,0.0,-2.638,-2.5364,-2.4506,-2.3627,0.0,0.0,-2.1652,-2.0867,-2.0285,-1.9819,-1.9634,-1.8869,-1.821,-1.7999,-1.7449,-1.7018,-1.6917,-1.6908,-1.6908,-1.6908,-1.6908,-1.6908,-1.6908,-1.6908,-1.6908,-1.6908,-1.6908,-1.6908,-1.6908,-1.6908,-1.6908,-1.6908,-1.6908,-1.6254,-1.4931,-1.4708,-1.4063,-1.2952,-1.2952,-1.2989,-1.3055,-1.3055,-1.3055,-1.3018,-1.2512,-1.2305,-1.2305,-1.2305,-1.2305,-1.2305,-1.2305,-1.2305,-1.2278,-1.2094,-1.2013,-1.1973,-1.1637,-1.1294,-1.1001,-1.0895,-1.0769,-1.072,-1.1037,-1.1224,-1.144,-1.1942,-1.2031,-1.2028,-1.2248,-1.2305,-1.2305,-1.2305,-1.2305,-1.2224,-1.204,-1.1991,-1.1961,-1.1808,-1.1678,-1.1651,-1.1918,-1.1817,-1.1754,-1.1952,-1.2192,-1.2288,-1.2222,-1.2385,-1.2433,-1.2234,-1.2445,-1.2439,-1.1993,-1.1187,-1.0279,-0.9318,-0.8053,-0.6962,-0.6127,-0.5908,-0.5777,-0.5688,-0.5688,-0.5688,-0.5688,-0.5688,-0.5688,-0.5688,-0.5688,-0.5688,0.0,-3.0705,0.0,-2.6894,-2.6024,0.0,0.0,0.0,-2.2686,-2.1869,-2.1189,-2.0494,-1.9725,-1.9088,-1.843,-1.7651,-1.7495,-1.7339,-1.6963,-1.6908,-1.6908,-1.6908,-1.6908,-1.6908,-1.6908,-1.6908,-1.6908,-1.6908,-1.6908,-1.6908,-1.6908,-1.6908,-1.6908,-1.6908,-1.6908,-1.6517,-1.5762,-1.4966,-1.4645,-1.476,-1.476,-1.4859,-1.5057,-1.5057,-1.5057,-1.495,-1.3091,-1.2305,-1.2305,-1.2305,-1.2305,-1.2305,-1.2305,-1.2305,-1.2298,-1.2285,-1.2278,-1.2238,-1.1986,-1.1873,-1.1777,-1.1462,-1.1369,-1.1422,-1.1757,-1.1622,-1.1535,-1.2108,-1.2104,-1.1957,-1.2231,-1.2305,-1.2305,-1.2305,-1.2305,-1.2224,-1.204,-1.1868,-1.1732,-1.1695,-1.1765,-1.1885,-1.2157,-1.2241,-1.2276,-1.2288,-1.23,-1.2222,-1.1934,-1.1916,-1.1956,-1.1904,-1.2174,-1.1951,-1.1061,-1.0366,-0.9488,-0.8356,-0.736,-0.6615,-0.6127,-0.6083,-0.5952,-0.5688,-0.5688,-0.5688,-0.5688,-0.5688,-0.5688,-0.5688,-0.5688,-0.5688,0.0,0.0,0.0,-2.8416,-2.7449,-2.6485,-2.4931,-2.4201,-2.3683,-2.2861,-2.1681,-2.0714,-2.0474,-1.9178,-1.8036,-1.7739,-1.7355,-1.7064,-1.6927,-1.6908,-1.6908,-1.6908,-1.6908,-1.6908,-1.6908,-1.6908,-1.6908,-1.6908,-1.6908,-1.6908,-1.6908,-1.6908,-1.6908,-1.6908,-1.6908,-1.6586,-1.5939,-1.5188,-1.4895,-1.51,-1.51,-1.5136,-1.5199,-1.5199,-1.5199,-1.5163,-1.445,-1.3882,-1.3426,-1.3954,-1.3593,-1.2783,-1.3644,-1.368,-1.328,-1.3637,-1.3323,-1.2742,-1.2636,-1.2026,-1.1289,-1.1182,-1.1022,-1.0922,-1.1216,-1.1236,-1.1229,-1.1623,-1.1663,-1.1657,-1.1944,-1.2024,-1.2107,-1.2258,-1.2305,-1.2268,-1.2224,-1.204,-1.1892,-1.1892,-1.1789,-1.1746,-1.1688,-1.171,-1.1695,-1.154,-1.1836,-1.1968,-1.1663,-1.1922,-1.2,-1.167,-1.1868,-1.1624,-1.0616,-0.9906,-0.9108,-0.8199,-0.7112,-0.6395,-0.6176,-0.6048,-0.5868,-0.5688,-0.5688,-0.5688,-0.5688,-0.5688,-0.5688,-0.5688,-0.5688,-0.5688,-3.2946,0.0,0.0,0.0,-2.8528,-2.749,-2.5858,-2.5213,-2.4648,-2.3424,-2.2432,-2.1635,-2.105,-1.955,-1.8254,-1.7881,-1.728,-1.6908,-1.6908,-1.6908,-1.6908,-1.6908,-1.6908,-1.6908,-1.6908,-1.6908,-1.6908,-1.6908,-1.6908,-1.6908,-1.6908,-1.6908,-1.6943,-1.7003,-1.7003,-1.683,-1.6508,-1.6009,-1.5851,-1.6044,-1.6044,-1.6088,-1.6158,-1.6158,-1.6158,-1.6158,-1.6158,-1.549,-1.443,-1.4985,-1.4601,-1.3709,-1.4366,-1.4474,-1.425,-1.3998,-1.3639,-1.3204,-1.2885,-1.2103,-1.1289,-1.1289,-1.1122,-1.0889,-1.1082,-1.1069,-1.1056,-1.1309,-1.1322,-1.1349,-1.1643,-1.1724,-1.177,-1.1964,-1.2084,-1.2158,-1.2158,-1.2121,-1.2114,-1.2114,-1.1929,-1.1775,-1.1727,-1.1627,-1.1507,-1.1485,-1.1651,-1.1688,-1.1513,-1.1712,-1.1775,-1.1387,-1.1591,-1.139,-1.0469,-1.0024,-0.9453,-0.8641,-0.7903,-0.7289,-0.6744,-0.6618,-0.6296,-0.5863,-0.5733,-0.5688,-0.5688,-0.5688,-0.5688,-0.5688,-0.5688,-0.5688,0.0,0.0,0.0,0.0,0.0,0.0,-2.6351,0.0,-2.5648,-2.3597,-2.3499,-2.3271,-2.1397,-2.0275,-1.9243,-1.8086,-1.735,-1.6908,-1.6908,-1.6908,-1.6908,-1.6908,-1.6908,-1.6908,-1.6908,-1.6908,-1.6908,-1.6908,-1.6908,-1.6908,-1.6908,-1.6908,-1.7003,-1.7201,-1.7201,-1.7314,-1.7505,-1.7505,-1.7564,-1.7706,-1.7706,-1.7818,-1.8008,-1.8008,-1.8008,-1.8008,-1.8008,-1.6975,-1.5269,-1.5269,-1.5269,-1.5128,-1.4394,-1.4565,-1.5005,-1.3339,-1.3142,-1.3592,-1.2691,-1.2179,-1.1937,-1.1937,-1.1706,-1.143,-1.143,-1.1236,-1.1102,-1.135,-1.1229,-1.1082,-1.1336,-1.1382,-1.1389,-1.1389,-1.165,-1.1893,-1.1899,-1.2091,-1.2291,-1.2305,-1.215,-1.21,-1.2356,-1.2056,-1.1879,-1.2138,-1.1808,-1.1489,-1.1477,-1.1248,-1.1123,-1.1111,-1.1321,-1.1222,-1.0522,-1.0723,-1.0486,-0.9555,-0.9743,-0.925,-0.7851,-0.7827,-0.7261,-0.6127,-0.5863,-0.5733,-0.5733,-0.5688,-0.5688,-0.5688,-0.5688,-0.5688,-3.4474,0.0,0.0,0.0,0.0,0.0,-2.7799,-2.7487,-2.6961,-2.5256,-2.4601,-2.3902,-2.2545,-2.1008,-1.9916,-1.9781,-1.84,-1.7323,-1.7323,-1.7323,-1.7289,-1.7141,-1.7254,-1.722,-1.6943,-1.7038,-1.7072,0.0,-1.6908,-1.6968,-1.7107,-1.7254,-1.7367,-1.7426,-1.7426,-1.7486,-1.7647,-1.7647,-1.7759,-1.794,-1.794,-1.794,-1.8008,-1.8008,-1.8008,-1.8008,-1.8008,-1.7725,-1.7226,-1.7226,-1.6585,-1.5631,-1.6367,-1.631,-1.5762,-1.5685,-1.5092,-1.4302,-1.4065,-1.3405,-1.2663,-1.2575,-1.2474,-1.2397,-1.2239,-1.2139,-1.2086,-1.2177,-1.1799,-1.1312,-1.1168,-1.1269,-1.1389,-1.1389,-1.1455,-1.1603,-1.1859,-1.1966,-1.2087,-1.2265,-1.2261,-1.2177,-1.2114,-1.1902,-1.1702,-1.1626,-1.1565,-1.1417,-1.1256,-1.1341,-1.1341,-1.1135,-1.1184,-1.0916,-1.0138,-1.0131,-0.9891,-0.9247,-0.9268,-0.8918,-0.797,-0.7936,-0.7415,-0.634,-0.6083,-0.5997,-0.5997,-0.5777,-0.5688,-0.5688,-0.5688,-0.5688,-3.4661,-3.3562,-3.239,-3.1748,0.0,0.0,-2.8263,-2.8004,-2.7465,-2.5465,-2.4996,-2.4519,-2.3079,-2.1869,-2.1013,-2.0907,-1.9633,-1.8476,-1.7988,-1.793,-1.7759,-1.7382,-1.7426,-1.7401,-1.7185,-1.7254,-1.7289,-1.7151,-1.7072,-1.7072,-1.7201,-1.7392,-1.7529,-1.7588,-1.7588,-1.7657,-1.7818,-1.7828,-1.7896,-1.8008,-1.8008,-1.8008,-1.8008,-1.8008,-1.8008,-1.8008,-1.8008,-1.8008,-1.7998,-1.7822,-1.7324,-1.668,-1.6961,-1.6994,-1.676,-1.6172,-1.5752,-1.5367,-1.4744,-1.4089,-1.3406,-1.3126,-1.2979,-1.2856,-1.2726,-1.2696,-1.2634,-1.2297,-1.1694,-1.1094,-1.0897,-1.0942,-1.1062,-1.1062,-1.1156,-1.1296,-1.147,-1.1732,-1.1993,-1.2245,-1.2305,-1.2261,-1.215,-1.1966,-1.1781,-1.1669,-1.1552,-1.1412,-1.1241,-1.1294,-1.1254,-1.1129,-1.1111,-1.0972,-1.0596,-1.057,-1.0479,-1.0277,-1.0023,-0.9493,-0.8641,-0.8255,-0.7577,-0.6521,-0.6316,-0.6169,-0.6083,-0.5822,-0.5688,-0.5688,-0.5688,-0.5688,-3.4622,-3.355,-3.2559,-3.2043,-3.1178,0.0,-2.8389,-2.8263,-2.7741,-2.5216,-2.5335,-2.538,-2.3542,-2.2966,-2.2535,-2.1906,-2.1172,-2.0246,-1.8857,-1.8677,-1.8418,-1.7735,-1.7666,-1.7632,-1.7505,-1.7505,-1.7539,-1.7505,-1.7348,-1.727,-1.727,-1.7461,-1.7598,-1.774,-1.774,-1.7818,-1.8008,-1.8008,-1.8008,-1.8008,-1.8008,-1.8008,-1.8042,-1.8008,-1.8008,-1.8042,-1.7993,-1.7973,-1.7978,-1.7556,-1.7621,-1.7891,-1.6711,-1.6901,-1.76,-1.5671,-1.5605,-1.6285,-1.5019,-1.443,-1.4168,-1.3745,-1.345,-1.3252,-1.3221,-1.3221,-1.3039,-1.2174,-1.1351,-1.0744,-1.0688,-1.0656,-1.0624,-1.0624,-1.0787,-1.0955,-1.0982,-1.1437,-1.1893,-1.2151,-1.2258,-1.2305,-1.2305,-1.212,-1.2003,-1.2003,-1.1669,-1.1446,-1.1409,-1.1223,-1.1111,-1.1111,-1.1111,-1.1214,-1.1423,-1.1447,-1.1555,-1.1826,-1.1193,-1.0445,-0.9498,-0.8664,-0.7697,-0.6665,-0.6496,-0.6343,-0.6127,-0.5863,-0.5733,-0.5688,-0.5688,-0.5688,-3.519,-3.4111,-3.303,-3.2187,-3.1346,0.0,-3.0152,-3.0125,-2.9603,-2.747,-2.7565,-2.7395,-2.5384,-2.4937,-2.4766,-2.4431,-2.3755,-2.2445,-2.0107,-1.9802,-1.9474,-1.8643,-1.8643,-1.8395,-1.7573,-1.7588,-1.7623,-1.7505,-1.7545,-1.7604,-1.7604,-1.7794,-1.7906,-1.794,-1.794,-1.7974,-1.8008,-1.8008,-1.8008,-1.8008,-1.8008,-1.8076,-1.8236,-1.8076,-1.8144,-1.8395,-1.7903,-1.7787,-1.7865,-1.7426,-1.7543,-1.7896,-1.6954,-1.6744,-1.686,-1.6121,-1.5766,-1.5587,-1.5321,-1.5175,-1.51,-1.4915,-1.482,-1.4754,-1.4636,-1.4606,-1.4359,-1.31,-1.2251,-1.1615,-1.1122,-1.087,-1.0776,-1.0776,-1.0728,-1.074,-1.0942,-1.1082,-1.1249,-1.1502,-1.1977,-1.2305,-1.2305,-1.212,-1.2003,-1.2003,-1.1781,-1.1595,-1.1409,-1.1372,-1.1298,-1.1111,-1.1111,-1.1135,-1.119,-1.119,-1.1273,-1.1549,-1.0858,-1.0082,-0.9356,-0.864,-0.7843,-0.6843,-0.6765,-0.6612,-0.6343,-0.6127,-0.5908,-0.5688,-0.5688,-0.5688,-3.6232,-3.5268,-3.4269,-3.3775,-3.2857,0.0,0.0,-3.0784,-3.0173,-2.849,-2.8398,-2.8179,-2.677,-2.6367,-2.6148,-2.5802,-2.4997,-2.4003,-2.2847,-2.1639,-2.0398,-1.9189,-1.91,-1.8777,-1.7837,-1.7794,-1.7794,-1.7623,-1.7759,-1.7818,-1.7706,-1.7896,-1.8008,-1.8008,-1.8008,-1.8008,-1.8008,-1.8008,-1.8042,-1.8144,-1.8144,-1.8127,-1.8095,-1.8214,-1.8108,-1.7863,-1.7788,-1.7668,-1.7502,-1.705,-1.7166,-1.7533,-1.6849,-1.673,-1.69,-1.6384,-1.6186,-1.6156,-1.584,-1.5732,-1.5703,-1.541,-1.5313,-1.5284,-1.5225,-1.4922,-1.4469,-1.3795,-1.307,-1.2343,-1.1725,-1.1476,-1.132,-1.1021,-1.0902,-1.0848,-1.0902,-1.1019,-1.1135,-1.1182,-1.1563,-1.1911,-1.2058,-1.2012,-1.1992,-1.2131,-1.1966,-1.1818,-1.1706,-1.1521,-1.1372,-1.126,-1.1149,-1.1111,-1.1111,-1.1111,-1.1194,-1.1471,-1.03,-0.9528,-0.9289,-0.8216,-0.7425,-0.6991,-0.6907,-0.6768,-0.6612,-0.6482,-0.626,-0.5908,-0.5777,-0.5688,-3.7302,-3.6513,-3.5647,-3.529,-3.437,-3.3213,0.0,0.0,0.0,-2.9453,-2.9169,-2.8907,-2.8225,-2.7863,-2.7537,-2.7176,-2.6196,-2.5573,-2.5818,-2.3877,-2.1875,-2.0246,-1.9868,-1.9431,-1.862,-1.86,-1.8441,-1.7978,-1.8237,-1.8222,-1.7784,-1.7896,-1.8008,-1.8008,-1.8008,-1.8008,-1.8008,-1.8042,-1.8144,-1.8303,-1.8337,-1.8268,-1.8069,-1.8355,-1.8107,-1.7467,-1.7718,-1.7577,-1.7133,-1.6678,-1.6709,-1.7001,-1.6548,-1.6648,-1.6989,-1.6417,-1.6446,-1.6704,-1.6186,-1.6038,-1.5939,-1.5527,-1.541,-1.541,-1.541,-1.4874,-1.4273,-1.4273,-1.3704,-1.2978,-1.242,-1.2166,-1.1927,-1.1452,-1.1209,-1.1059,-1.0902,-1.1024,-1.113,-1.1007,-1.1129,-1.1404,-1.1759,-1.1866,-1.1986,-1.2184,-1.2117,-1.204,-1.2003,-1.1706,-1.1484,-1.1409,-1.126,-1.1149,-1.1111,-1.1111,-1.1133,-1.1207,-0.9725,-0.8897,-0.894,-0.7613,-0.6923,-0.7092,-0.6984,-0.6897,-0.6836,-0.6836,-0.6571,-0.6169,-0.5908,-0.5777,-3.7914,-3.736,-3.6653,-3.5202,-3.4473,-3.3882,-3.2997,0.0,-3.2109,-3.1545,0.0,-3.0839,-3.0331,0.0,0.0,-2.981,-2.8707,-2.788,-2.7792,-2.6526,-2.4872,-2.2971,-2.1918,-2.1101,-2.0536,-2.0808,-2.04,-1.8975,-1.9474,-1.9308,-1.8018,-1.7974,-1.8008,-1.8008,-1.8008,-1.8008,-1.8008,-1.8178,-1.8269,-1.8303,-1.8414,-1.8553,-1.8703,-1.8563,-1.84,-1.8224,-1.7758,-1.7359,-1.6998,-1.6574,-1.643,-1.6471,-1.6102,-1.6226,-1.6528,-1.6097,-1.5995,-1.5996,-1.5791,-1.5751,-1.5703,-1.5498,-1.541,-1.541,-1.541,-1.4971,-1.4469,-1.4469,-1.3953,-1.342,-1.3351,-1.2795,-1.2235,-1.2182,-1.1608,-1.109,-1.1059,-1.1087,-1.1052,-1.0855,-1.0851,-1.0984,-1.1376,-1.1697,-1.1913,-1.1946,-1.2138,-1.2187,-1.2003,-1.1966,-1.1781,-1.1446,-1.1372,-1.1298,-1.1111,-1.1111,-1.0824,-1.0111,-0.9233,-0.8401,-0.7734,-0.706,-0.6858,-0.7092,-0.7082,-0.7078,-0.7051,-0.6881,-0.6656,-0.6343,-0.6169,-0.6038,-3.7946,-3.81,-3.7964,-3.6261,-3.5604,-3.5001,-3.3615,-3.3039,-3.2741,-3.2543,0.0,0.0,0.0,0.0,0.0,0.0,-2.9987,-2.9207,-2.9134,-2.7859,-2.6202,-2.4357,-2.3726,0.0,-2.1713,-2.1588,-2.1127,-2.0009,-2.0599,-2.0599,-1.9551,-1.9497,-1.9497,-1.9497,-1.9497,-1.9497,-1.9497,-1.9595,-1.9474,-1.9187,-1.8949,-1.8601,-1.8171,-1.8075,-1.7833,-1.7482,-1.7506,-1.7364,-1.7084,-1.6761,-1.663,-1.6602,-1.6316,-1.6296,-1.6399,-1.6109,-1.6009,-1.599,-1.5856,-1.5827,-1.5798,-1.5643,-1.5575,-1.5546,-1.5449,-1.5206,-1.503,-1.503,-1.4815,-1.4519,-1.4172,-1.3532,-1.2887,-1.2512,-1.188,-1.1373,-1.1247,-1.1216,-1.1185,-1.0996,-1.087,-1.0851,-1.1005,-1.1229,-1.1511,-1.1852,-1.2013,-1.2075,-1.2168,-1.2077,-1.1892,-1.1595,-1.1484,-1.1335,-1.1111,-1.1111,-1.0962,-1.0625,-0.9836,-0.9062,-0.8325,-0.7712,-0.7507,-0.7699,-0.7314,-0.7095,-0.7095,-0.701,-0.6922,-0.6786,-0.6302,-0.6083,-3.7647,-3.8221,-3.8484,-3.6755,-3.6179,-3.5633,-3.4139,-3.3561,-3.3346,-3.3346,-3.3303,0.0,0.0,0.0,-3.2381,-3.2004,0.0,-3.048,-3.046,-2.9305,-2.783,-2.6195,-2.588,-2.517,0.0,-2.3181,-2.2619,-2.1571,-2.182,-2.1606,-2.0645,-2.059,-2.059,-2.059,-2.059,-2.059,-2.059,-2.0655,-2.0395,-1.9845,-1.9591,-1.9062,-1.8262,-1.8282,-1.7981,-1.747,-1.7709,-1.7647,-1.7385,-1.7032,-1.692,-1.6892,-1.6705,-1.663,-1.6591,-1.6296,-1.6181,-1.6153,-1.6019,-1.5943,-1.5885,-1.5798,-1.5759,-1.573,-1.5575,-1.5507,-1.5478,-1.5478,-1.5449,-1.5294,-1.4854,-1.4252,-1.3593,-1.294,-1.2313,-1.1771,-1.1459,-1.1365,-1.1341,-1.1185,-1.1028,-1.0933,-1.0902,-1.0957,-1.1136,-1.1598,-1.1732,-1.185,-1.2144,-1.2068,-1.1918,-1.1811,-1.1632,-1.1484,-1.1298,-1.126,-1.1186,-1.0956,-1.0137,-0.9364,-0.8672,-0.8144,-0.7838,-0.7769,-0.7288,-0.7058,-0.7095,-0.7058,-0.7038,-0.7038,-0.6508,-0.6305,0.0,0.0,0.0,-3.6055,-3.5625,-3.5425,-3.4727,-3.4416,-3.4269,-3.4269,-3.4056,-3.3867,-3.3867,-3.3533,-3.3222,-3.3064,-3.2432,0.0,0.0,-3.1289,-3.0417,-2.9123,-2.8559,-2.7866,0.0,-2.6489,-2.5655,-2.3925,-2.3222,-2.2209,-2.0677,-2.059,-2.059,-2.059,-2.059,-2.059,-2.059,-2.0728,-2.0511,-2.0017,-2.0324,-2.0181,-1.9626,-1.9761,-1.9575,-1.9102,-1.872,-1.8318,-1.7843,-1.7385,-1.719,-1.719,-1.719,-1.7162,-1.7117,-1.6563,-1.6374,-1.6374,-1.6153,-1.6009,-1.5885,-1.5885,-1.5885,-1.5885,-1.5885,-1.5798,-1.5701,-1.5701,-1.5546,-1.541,-1.5381,-1.4913,-1.4291,-1.3623,-1.2948,-1.2305,-1.1709,-1.1591,-1.1529,-1.1334,-1.1303,-1.1247,-1.1122,-1.1028,-1.1002,-1.1022,-1.1263,-1.155,-1.1879,-1.1919,-1.1919,-1.1977,-1.1966,-1.1892,-1.1706,-1.1669,-1.1366,-1.0565,-0.9599,-0.8745,-0.8036,-0.7819,-0.7471,-0.6965,-0.6932,-0.696,-0.7095,-0.696,-0.6893,-0.6896,-0.6819,-0.6792,0.0,0.0,-3.7208,-3.6039,0.0,0.0,-3.4781,-3.4539,-3.4495,-3.4495,-3.4431,-3.4333,-3.4184,-3.4049,-3.3891,-3.3665,-3.3274,-3.2867,0.0,-3.2243,-3.1726,-3.0796,-2.9587,-2.8434,-2.7507,-2.7143,-2.6242,-2.4559,-2.4136,-2.3567,-2.2641,-2.2359,-2.231,-2.2445,-2.2445,-2.2372,-2.2249,-2.217,-2.1739,-2.0979,-2.0512,-1.9968,-1.9354,-1.9099,-1.9003,-1.9039,-1.8588,-1.8452,-1.8437,-1.781,-1.7534,-1.7507,-1.7284,-1.719,-1.719,-1.7004,-1.692,-1.6892,-1.6637,-1.6524,-1.6449,-1.6124,-1.6038,-1.6009,-1.5943,-1.5856,-1.5827,-1.5827,-1.573,-1.5604,-1.5604,-1.4706,-1.3782,-1.3532,-1.2681,-1.1856,-1.1654,-1.1591,-1.1591,-1.1498,-1.1404,-1.1279,-1.1247,-1.1143,-1.109,-1.1126,-1.1303,-1.153,-1.1866,-1.2037,-1.2118,-1.199,-1.2003,-1.1929,-1.1706,-1.1706,-1.1589,-1.1323,-1.0838,-1.024,-0.9484,-0.8843,-0.8148,-0.7434,-0.7073,-0.6859,-0.6851,-0.6859,-0.6832,-0.678,-0.6743,-0.6692,-3.5458,-3.6061,0.0,-3.5674,-3.5509,0.0,-3.4904,0.0,-3.472,-3.4762,-3.4751,-3.4678,-3.4542,-3.4454,-3.4333,0.0,0.0,-3.3533,0.0,-3.2836,-3.2492,-3.1896,-3.0844,-2.9735,-2.8555,-2.8004,-2.7004,-2.5248,-2.4845,-2.4333,-2.3641,-2.3407,-2.333,-2.345,-2.345,-2.342,-2.3288,-2.3153,-2.26,-2.1638,-2.1129,-2.0459,-1.9648,-1.9387,-1.941,-1.9591,-1.9095,-1.9016,-1.9172,-1.856,-1.8302,-1.8263,-1.8073,-1.7897,-1.7717,-1.7329,-1.719,-1.719,-1.7004,-1.6948,-1.6892,-1.6495,-1.6343,-1.6324,-1.6144,-1.6029,-1.5931,-1.577,-1.5754,-1.5729,-1.557,-1.4906,-1.4163,-1.3674,-1.2926,-1.2143,-1.1716,-1.1591,-1.1591,-1.1591,-1.1498,-1.1397,-1.1397,-1.1279,-1.1154,-1.106,-1.1127,-1.129,-1.1558,-1.181,-1.1995,-1.1956,-1.2054,-1.204,-1.1929,-1.1892,-1.1892,-1.1892,-1.1403,-1.0726,-0.9911,-0.8937,-0.8054,-0.735,-0.694,-0.677,-0.678,-0.677,-0.6715,-0.662,-0.662,-0.6615]},{"header":{"parameterUnit":"m.s-1","parameterCategory":1,"la1":30.6,"la2":29.2853,"lo1":-89.7004,"lo2":-87.6739,"dy":0.0162,"dx":0.0183,"nx":112,"ny":82,"refTime":"2023-08-30T18:00:00:Z","depth":0,"parameterNumber":3,"parameterNumberName":"V-component_of_WINDS"},"data":[0.0,0.0,0.0,0.0,0.0,0.0,0.0,0.0,0.0,0.0,0.0,0.0,0.0,0.0,0.0,0.0,0.0,0.0,0.0,0.0,0.0,0.0,0.0,0.0,0.0,0.0,0.0,0.0,0.0,0.0,0.0,0.0,0.0,0.0,0.0,0.0,0.0,0.0,0.0,0.0,0.0,0.0,0.0,0.0,0.0,0.0,0.0,0.0,0.0,0.0,0.0,0.0,0.0,0.0,0.0,0.0,0.0,0.0,0.0,0.0,0.0,0.0,0.0,0.0,0.0,0.0,0.0,0.0,0.0,0.0,0.0,0.0,0.0,0.0,0.0,0.0,0.0,0.0,0.0,0.0,0.0,0.0,0.0,0.0,0.0,0.0,0.0,0.0,0.0,0.0,4.7237,4.8302,5.12,5.3436,5.4313,5.5238,5.434,5.1005,0.0,0.0,0.0,0.0,0.0,0.0,0.0,0.0,0.0,0.0,0.0,0.0,0.0,0.0,0.0,0.0,0.0,0.0,0.0,0.0,0.0,0.0,0.0,0.0,0.0,0.0,0.0,0.0,0.0,0.0,0.0,0.0,0.0,0.0,0.0,0.0,0.0,0.0,0.0,0.0,0.0,0.0,0.0,0.0,0.0,0.0,0.0,0.0,0.0,0.0,0.0,0.0,0.0,0.0,0.0,0.0,0.0,0.0,0.0,0.0,0.0,0.0,0.0,0.0,0.0,0.0,0.0,0.0,0.0,0.0,0.0,0.0,0.0,0.0,0.0,0.0,0.0,0.0,0.0,0.0,0.0,0.0,0.0,0.0,0.0,0.0,0.0,0.0,0.0,0.0,0.0,0.0,0.0,0.0,0.0,0.0,0.0,0.0,0.0,0.0,0.0,0.0,0.0,0.0,4.7271,4.9103,5.0991,5.2492,5.3427,5.4246,5.3581,5.0902,0.0,0.0,0.0,0.0,0.0,0.0,0.0,0.0,0.0,0.0,0.0,0.0,0.0,0.0,0.0,0.0,0.0,0.0,0.0,0.0,0.0,0.0,0.0,0.0,0.0,0.0,0.0,0.0,0.0,0.0,0.0,0.0,0.0,0.0,0.0,0.0,0.0,0.0,0.0,0.0,0.0,0.0,0.0,0.0,0.0,0.0,0.0,0.0,0.0,0.0,0.0,0.0,0.0,0.0,0.0,0.0,0.0,0.0,0.0,0.0,0.0,0.0,0.0,0.0,0.0,0.0,0.0,0.0,0.0,0.0,0.0,0.0,0.0,0.0,0.0,0.0,0.0,0.0,0.0,0.0,0.0,0.0,0.0,0.0,0.0,0.0,0.0,0.0,0.0,0.0,0.0,0.0,0.0,0.0,0.0,0.0,0.0,0.0,0.0,0.0,0.0,0.0,0.0,4.6895,4.7919,4.9952,5.1193,5.2068,5.2502,5.334,5.2945,5.0827,5.0352,0.0,0.0,0.0,0.0,0.0,0.0,0.0,0.0,0.0,0.0,0.0,0.0,0.0,0.0,0.0,0.0,0.0,0.0,0.0,0.0,0.0,0.0,0.0,0.0,0.0,0.0,0.0,0.0,0.0,0.0,0.0,0.0,0.0,0.0,0.0,0.0,0.0,0.0,0.0,0.0,0.0,0.0,0.0,0.0,0.0,0.0,0.0,0.0,0.0,0.0,0.0,0.0,0.0,0.0,0.0,0.0,0.0,0.0,0.0,0.0,0.0,0.0,0.0,0.0,0.0,0.0,0.0,0.0,0.0,0.0,0.0,0.0,0.0,0.0,0.0,0.0,0.0,0.0,0.0,0.0,0.0,0.0,0.0,0.0,0.0,0.0,0.0,0.0,0.0,0.0,0.0,0.0,0.0,0.0,0.0,0.0,0.0,0.0,0.0,0.0,0.0,0.0,4.7726,4.8553,5.0481,5.1241,5.1692,5.1885,5.2569,5.2329,5.0808,4.9922,0.0,0.0,0.0,0.0,0.0,0.0,0.0,0.0,0.0,0.0,0.0,0.0,0.0,0.0,0.0,0.0,0.0,0.0,0.0,0.0,0.0,0.0,0.0,0.0,0.0,0.0,0.0,0.0,0.0,0.0,0.0,0.0,0.0,0.0,0.0,0.0,0.0,0.0,0.0,0.0,0.0,0.0,0.0,0.0,0.0,0.0,0.0,0.0,0.0,0.0,0.0,0.0,0.0,0.0,0.0,0.0,0.0,0.0,0.0,0.0,0.0,0.0,0.0,0.0,0.0,0.0,0.0,0.0,0.0,0.0,0.0,0.0,0.0,0.0,0.0,0.0,0.0,0.0,0.0,0.0,0.0,0.0,0.0,0.0,0.0,0.0,0.0,0.0,0.0,0.0,0.0,0.0,0.0,0.0,0.0,0.0,0.0,0.0,0.0,0.0,0.0,0.0,4.775,4.8741,5.051,5.075,5.1087,5.1846,5.1972,5.1625,5.077,4.9885,0.0,0.0,0.0,0.0,0.0,0.0,0.0,0.0,0.0,0.0,0.0,0.0,0.0,0.0,0.0,0.0,0.0,0.0,0.0,0.0,0.0,0.0,0.0,0.0,0.0,0.0,0.0,0.0,0.0,0.0,0.0,0.0,0.0,0.0,0.0,0.0,0.0,0.0,0.0,0.0,0.0,0.0,0.0,0.0,0.0,0.0,0.0,0.0,0.0,0.0,0.0,0.0,0.0,0.0,0.0,0.0,0.0,0.0,0.0,0.0,0.0,0.0,0.0,0.0,0.0,0.0,0.0,0.0,0.0,0.0,0.0,0.0,0.0,0.0,0.0,0.0,0.0,0.0,0.0,0.0,0.0,0.0,0.0,0.0,0.0,0.0,0.0,0.0,0.0,0.0,0.0,0.0,0.0,0.0,0.0,0.0,0.0,0.0,0.0,0.0,0.0,0.0,4.761,4.8584,5.05,5.0712,5.0827,5.1125,5.1144,5.0931,5.0429,0.0,0.0,0.0,0.0,0.0,0.0,0.0,0.0,0.0,0.0,0.0,0.0,0.0,0.0,0.0,0.0,0.0,0.0,0.0,0.0,0.0,0.0,0.0,0.0,0.0,0.0,0.0,0.0,0.0,0.0,0.0,0.0,0.0,0.0,0.0,0.0,0.0,0.0,0.0,0.0,0.0,0.0,0.0,0.0,0.0,0.0,0.0,0.0,0.0,0.0,0.0,0.0,0.0,0.0,0.0,0.0,0.0,0.0,0.0,0.0,0.0,0.0,0.0,0.0,0.0,0.0,0.0,0.0,0.0,0.0,0.0,0.0,0.0,0.0,0.0,0.0,0.0,0.0,0.0,0.0,0.0,0.0,0.0,0.0,0.0,0.0,0.0,0.0,0.0,0.0,0.0,0.0,0.0,0.0,0.0,0.0,0.0,0.0,0.0,0.0,0.0,0.0,4.7062,4.7598,4.8564,5.0481,5.0712,5.0712,5.0712,5.0712,5.047,4.9986,0.0,0.0,0.0,0.0,0.0,0.0,0.0,0.0,0.0,0.0,0.0,0.0,0.0,0.0,0.0,0.0,0.0,0.0,0.0,0.0,0.0,0.0,0.0,0.0,0.0,0.0,0.0,0.0,0.0,0.0,0.0,0.0,0.0,0.0,0.0,0.0,0.0,0.0,0.0,0.0,0.0,0.0,0.0,0.0,0.0,0.0,0.0,0.0,0.0,0.0,0.0,0.0,0.0,0.0,0.0,0.0,0.0,0.0,0.0,0.0,0.0,0.0,0.0,0.0,0.0,0.0,0.0,0.0,0.0,0.0,0.0,0.0,0.0,0.0,0.0,0.0,0.0,0.0,0.0,0.0,0.0,0.0,0.0,0.0,0.0,0.0,0.0,0.0,0.0,0.0,0.0,0.0,0.0,0.0,0.0,0.0,0.0,0.0,0.0,0.0,0.0,0.0,4.7075,4.778,4.8779,5.0519,5.0712,5.0712,5.0712,5.0712,5.0327,0.0,0.0,0.0,0.0,0.0,0.0,0.0,0.0,0.0,0.0,0.0,0.0,0.0,0.0,0.0,0.0,0.0,0.0,0.0,0.0,0.0,0.0,0.0,0.0,0.0,0.0,0.0,0.0,0.0,0.0,0.0,0.0,0.0,0.0,0.0,0.0,0.0,0.0,0.0,0.0,0.0,0.0,0.0,0.0,0.0,0.0,0.0,0.0,0.0,0.0,0.0,0.0,0.0,0.0,0.0,0.0,0.0,0.0,0.0,0.0,0.0,0.0,0.0,0.0,0.0,0.0,0.0,0.0,0.0,0.0,0.0,0.0,0.0,0.0,0.0,0.0,0.0,0.0,0.0,0.0,0.0,0.0,0.0,0.0,0.0,0.0,0.0,0.0,0.0,0.0,0.0,0.0,0.0,0.0,0.0,0.0,0.0,0.0,0.0,0.0,0.0,0.0,0.0,4.7075,4.778,4.8779,5.0519,5.0712,5.0712,5.0712,5.0702,5.048,4.9994,0.0,0.0,0.0,0.0,0.0,0.0,0.0,0.0,0.0,0.0,0.0,0.0,0.0,0.0,0.0,0.0,0.0,0.0,0.0,0.0,0.0,0.0,0.0,0.0,0.0,0.0,0.0,0.0,0.0,0.0,0.0,0.0,0.0,0.0,0.0,0.0,0.0,0.0,0.0,0.0,0.0,0.0,0.0,0.0,0.0,0.0,0.0,0.0,0.0,0.0,0.0,0.0,0.0,0.0,0.0,0.0,0.0,0.0,0.0,0.0,0.0,0.0,0.0,0.0,0.0,0.0,0.0,0.0,0.0,0.0,0.0,0.0,0.0,0.0,0.0,0.0,0.0,0.0,0.0,0.0,0.0,0.0,0.0,0.0,0.0,0.0,0.0,0.0,0.0,0.0,0.0,0.0,0.0,0.0,0.0,0.0,0.0,0.0,0.0,0.0,0.0,0.0,4.7087,4.7801,4.8797,5.0519,5.0712,5.0693,5.0693,5.0702,5.0481,4.9944,0.0,0.0,0.0,0.0,0.0,0.0,0.0,0.0,0.0,0.0,0.0,0.0,0.0,0.0,0.0,0.0,0.0,0.0,0.0,0.0,0.0,0.0,0.0,0.0,0.0,0.0,0.0,0.0,0.0,0.0,0.0,0.0,0.0,0.0,0.0,0.0,0.0,0.0,0.0,0.0,0.0,0.0,0.0,0.0,0.0,0.0,0.0,0.0,0.0,0.0,0.0,0.0,0.0,0.0,0.0,0.0,0.0,0.0,0.0,0.0,0.0,0.0,0.0,0.0,0.0,0.0,0.0,0.0,0.0,0.0,0.0,0.0,0.0,0.0,0.0,0.0,0.0,0.0,0.0,0.0,0.0,0.0,0.0,0.0,0.0,0.0,0.0,0.0,0.0,0.0,0.0,0.0,0.0,0.0,0.0,0.0,0.0,0.0,0.0,0.0,0.0,0.0,4.7087,4.7832,4.8853,5.0529,5.0693,5.0693,5.0711,5.0702,5.0385,4.9671,0.0,0.0,0.0,0.0,0.0,0.0,0.0,0.0,0.0,0.0,0.0,0.0,0.0,0.0,0.0,0.0,0.0,0.0,0.0,0.0,0.0,0.0,0.0,0.0,0.0,0.0,0.0,0.0,0.0,0.0,0.0,0.0,0.0,0.0,0.0,0.0,0.0,0.0,0.0,0.0,0.0,0.0,0.0,0.0,0.0,0.0,0.0,0.0,0.0,0.0,0.0,0.0,0.0,0.0,0.0,0.0,0.0,0.0,0.0,0.0,4.9837,4.8481,0.0,0.0,0.0,0.0,0.0,0.0,0.0,0.0,0.0,0.0,0.0,0.0,0.0,0.0,0.0,0.0,0.0,0.0,0.0,0.0,0.0,0.0,0.0,0.0,0.0,0.0,0.0,0.0,0.0,0.0,0.0,0.0,0.0,0.0,0.0,0.0,0.0,0.0,0.0,0.0,4.7162,4.7913,4.8896,5.0538,5.0702,5.0692,5.0702,5.0712,5.0635,5.0452,4.9672,0.0,0.0,0.0,0.0,0.0,0.0,0.0,0.0,0.0,0.0,0.0,0.0,0.0,0.0,0.0,0.0,0.0,0.0,0.0,0.0,0.0,0.0,0.0,0.0,0.0,0.0,0.0,0.0,0.0,0.0,0.0,0.0,0.0,0.0,0.0,0.0,0.0,0.0,0.0,0.0,0.0,0.0,0.0,0.0,0.0,0.0,0.0,0.0,0.0,0.0,0.0,0.0,0.0,0.0,0.0,0.0,0.0,0.0,0.0,5.2679,5.1249,0.0,0.0,0.0,0.0,0.0,0.0,0.0,0.0,0.0,0.0,0.0,0.0,0.0,0.0,0.0,0.0,0.0,0.0,0.0,0.0,0.0,0.0,0.0,0.0,0.0,0.0,0.0,0.0,0.0,0.0,0.0,0.0,0.0,0.0,0.0,0.0,0.0,0.0,0.0,0.0,4.7137,4.7873,4.887,5.0519,5.0702,5.0702,5.0702,5.0702,5.0702,5.0702,4.9913,0.0,0.0,0.0,0.0,0.0,0.0,0.0,0.0,0.0,0.0,0.0,0.0,0.0,0.0,0.0,0.0,0.0,0.0,0.0,0.0,0.0,0.0,0.0,0.0,0.0,0.0,0.0,0.0,0.0,0.0,0.0,0.0,0.0,0.0,0.0,0.0,0.0,0.0,0.0,0.0,0.0,0.0,0.0,0.0,0.0,0.0,0.0,0.0,0.0,0.0,0.0,0.0,0.0,5.8419,5.9199,5.9552,5.9014,5.9069,5.9404,5.6692,5.541,5.5113,5.3478,0.0,0.0,0.0,0.0,0.0,0.0,0.0,0.0,0.0,0.0,0.0,0.0,0.0,0.0,0.0,0.0,0.0,0.0,0.0,0.0,0.0,0.0,4.7293,4.7961,4.8742,4.8704,4.642,0.0,0.0,0.0,0.0,0.0,0.0,0.0,0.0,0.0,0.0,0.0,4.7212,4.7997,4.9016,5.0529,5.0702,5.0693,5.0702,5.0693,5.0702,5.0702,5.0019,4.9548,0.0,0.0,0.0,0.0,0.0,0.0,0.0,0.0,0.0,0.0,0.0,0.0,0.0,0.0,0.0,0.0,0.0,0.0,0.0,0.0,0.0,0.0,0.0,0.0,0.0,0.0,0.0,0.0,0.0,0.0,0.0,0.0,5.0878,5.164,0.0,0.0,0.0,0.0,0.0,0.0,0.0,0.0,0.0,0.0,0.0,0.0,0.0,5.5035,5.6989,5.985,6.1038,6.0593,6.3565,6.427,6.2966,6.3583,6.3505,6.2933,6.2506,0.0,5.6004,5.4333,0.0,0.0,0.0,0.0,0.0,0.0,0.0,0.0,0.0,0.0,0.0,0.0,0.0,0.0,0.0,0.0,0.0,0.0,0.0,0.0,0.0,0.0,4.9652,4.9763,5.045,5.058,4.8816,4.7961,4.7495,4.7336,4.6254,4.5342,0.0,0.0,0.0,0.0,0.0,0.0,4.7667,4.8702,4.9677,5.0596,5.0711,5.0692,5.0702,5.0693,5.0693,5.0702,5.0596,5.0192,4.9433,4.9298,0.0,0.0,0.0,0.0,0.0,0.0,0.0,0.0,0.0,0.0,0.0,0.0,0.0,0.0,0.0,0.0,0.0,0.0,0.0,0.0,0.0,0.0,0.0,0.0,0.0,0.0,0.0,0.0,0.0,4.9875,5.2197,5.0711,5.1509,5.1138,0.0,0.0,0.0,0.0,0.0,0.0,0.0,0.0,0.0,5.7156,5.7583,5.8568,6.024,6.258,6.3342,6.258,6.5422,6.6165,6.5032,6.5385,6.5348,6.4958,6.401,6.2394,6.024,5.8122,5.58,5.3423,0.0,0.0,0.0,0.0,5.0673,5.1175,5.2587,5.2735,5.2308,5.2215,0.0,0.0,0.0,0.0,0.0,0.0,0.0,4.746,4.8723,4.9949,5.0933,5.1398,5.1824,5.1935,5.1191,5.009,4.8801,4.7406,4.6989,4.6538,4.5578,4.5238,0.0,0.0,0.0,4.6001,4.6987,4.8049,4.9046,4.9874,5.0413,5.0693,5.0693,5.0712,5.0712,5.0712,5.0712,5.0539,5.0144,5.0125,4.9952,0.0,0.0,0.0,0.0,0.0,0.0,0.0,0.0,0.0,0.0,0.0,0.0,0.0,0.0,0.0,0.0,0.0,0.0,0.0,0.0,0.0,0.0,0.0,0.0,0.0,0.0,0.0,0.0,5.2011,5.4221,5.1156,5.4073,5.4463,0.0,0.0,0.0,0.0,0.0,0.0,5.6172,5.6878,5.8345,6.0778,6.1057,6.1874,6.3342,6.4753,6.5144,6.4586,6.6221,6.6685,6.6109,6.6109,6.5979,6.5701,6.4233,6.349,6.3137,6.1094,5.8921,5.6747,5.5094,5.3571,5.2401,5.2995,5.3367,5.3813,5.567,5.5893,5.5243,5.463,5.307,5.1008,4.8946,0.0,0.0,0.0,0.0,4.8649,5.006,5.1063,5.1806,5.2215,5.2512,5.2585,5.2211,5.1218,4.9868,4.7972,4.7834,4.7548,4.6032,4.5824,0.0,4.4672,4.5148,4.5848,4.652,4.7674,4.8682,4.9336,5.0183,5.0712,5.0712,5.0712,5.0712,5.0712,5.0712,5.0712,5.0712,5.0712,5.0712,5.0712,0.0,0.0,0.0,0.0,0.0,0.0,0.0,0.0,0.0,0.0,0.0,0.0,0.0,0.0,0.0,0.0,0.0,0.0,0.0,0.0,0.0,0.0,0.0,0.0,0.0,0.0,0.0,0.0,0.0,5.6227,6.0184,0.0,0.0,0.0,0.0,5.3683,5.5169,5.7156,5.9513,5.9701,6.0831,6.3342,6.4155,6.4995,6.5924,6.676,6.7168,6.7112,6.6481,6.6147,6.6109,6.6109,6.5664,6.4828,6.3973,6.3175,6.2394,6.1503,6.0128,5.8419,5.6803,5.5633,5.4834,5.4871,5.541,5.6134,5.6265,5.6265,5.6227,5.619,5.4017,5.1212,5.0283,4.889,0.0,0.0,4.9392,5.019,5.1101,5.1936,5.2364,5.1693,5.2138,5.2287,5.0826,5.0499,5.0453,5.034,4.9105,4.7813,4.6971,0.0,4.5754,4.5064,4.5799,4.655,4.6843,4.8316,4.9356,4.9394,5.0183,5.0712,5.0712,5.0712,5.0712,5.0712,5.0712,5.0712,5.0712,5.0712,5.0712,5.0712,5.0712,0.0,0.0,0.0,0.0,0.0,0.0,0.0,0.0,0.0,0.0,0.0,0.0,0.0,0.0,0.0,0.0,0.0,0.0,0.0,0.0,0.0,0.0,0.0,0.0,0.0,0.0,0.0,0.0,5.8215,6.2209,0.0,5.749,5.7695,5.8271,5.8549,6.0072,6.1614,6.2966,6.3041,6.3732,6.5162,6.4935,6.4935,6.5274,6.6109,6.5738,6.4159,6.4921,6.4456,6.297,6.349,6.3267,6.2469,6.219,6.1893,6.1558,6.0723,6.0017,5.9422,5.8846,5.8122,5.7379,5.7379,5.7583,5.7843,5.7843,5.6803,5.5113,5.3014,5.1899,5.1249,5.0358,4.9707,4.9429,5.0265,5.0729,5.1008,5.1323,5.1602,5.1751,5.149,5.1302,5.1001,5.0459,5.0111,4.9724,4.9033,4.8634,4.7975,4.6557,4.639,4.6165,4.5316,4.609,4.6799,4.6892,4.8365,4.9394,4.9394,5.0183,5.0712,5.0712,5.0712,5.0712,5.0712,5.0712,5.0712,5.0712,5.0712,5.0712,5.0712,5.0712,5.0712,0.0,0.0,0.0,0.0,0.0,0.0,0.0,0.0,0.0,0.0,0.0,0.0,0.0,0.0,0.0,0.0,0.0,0.0,0.0,0.0,0.0,0.0,0.0,0.0,0.0,5.9478,6.2465,5.9478,6.3973,6.5385,6.0444,6.1447,6.2524,6.284,6.4103,6.5088,6.5603,6.5622,6.5794,6.6091,6.5552,6.4953,6.4396,6.4976,6.4308,6.2413,6.3212,6.2599,6.0778,6.1317,6.0983,5.9961,5.9961,5.9794,5.9497,5.8921,5.8698,5.8754,5.9292,5.9348,5.9069,5.8809,5.8364,5.7806,5.7249,5.58,5.3831,5.1658,5.0952,5.0859,5.0283,5.0116,5.0246,5.0822,5.1379,5.1732,5.1472,5.1602,5.1658,5.1155,5.0669,5.0238,4.9974,4.9759,4.9313,4.8329,4.8419,4.8092,4.6276,4.6363,4.6455,4.5839,4.6397,4.6996,4.7259,4.8529,4.9394,4.9394,5.0183,5.0712,5.0712,5.0952,5.0991,5.0731,5.0712,5.0577,5.0269,5.0269,5.0269,5.0269,5.0548,5.0693,5.0693,0.0,0.0,0.0,0.0,0.0,0.0,0.0,0.0,0.0,0.0,0.0,0.0,0.0,0.0,0.0,0.0,0.0,0.0,0.0,0.0,0.0,0.0,0.0,5.645,6.0648,6.284,6.0441,6.5807,6.7837,6.3063,6.5478,6.7001,6.6202,6.689,6.7335,6.728,6.7243,6.6852,6.6054,6.5979,6.5181,6.3546,6.3546,6.3137,6.232,6.1521,6.0667,5.9831,5.9791,5.8939,5.7472,5.7472,5.7026,5.6302,5.6265,5.6302,5.6487,5.8048,5.9144,5.9738,5.8921,5.7621,5.5986,5.4314,5.3237,5.2587,5.2512,5.1398,5.0098,5.0098,5.0153,5.0172,5.0116,5.1268,5.2345,5.1528,5.1899,5.2104,5.0613,5.0275,5.0086,4.9365,4.9427,4.9367,4.857,4.863,4.82,4.6263,4.6298,4.6597,4.6577,4.679,0.0,4.799,4.8875,4.9433,4.9433,5.0221,5.0731,5.0712,5.1433,5.1548,5.0712,5.0654,5.0269,4.9394,4.9394,4.9423,4.9442,5.0259,5.0682,5.0701,0.0,0.0,0.0,0.0,0.0,0.0,0.0,0.0,0.0,0.0,0.0,0.0,0.0,0.0,0.0,0.0,0.0,0.0,0.0,0.0,0.0,5.5224,5.8475,5.9682,6.3565,6.6258,6.6165,6.824,6.8927,6.702,6.7627,6.7855,6.7038,6.7725,6.767,6.65,6.5826,6.5102,6.4326,6.3156,6.2339,6.1874,6.1874,6.1447,6.0593,5.9775,5.8958,5.8141,5.7565,5.7045,5.6636,5.6636,5.6506,5.6246,5.5633,5.6079,5.7212,5.7658,5.7973,5.8066,5.7268,5.5912,5.4258,5.2624,5.2308,5.2308,5.0506,5.0005,5.0098,5.0098,5.0116,5.0116,5.0116,5.0469,5.0655,4.9819,4.9745,4.98,4.9389,4.9482,4.9586,4.9393,4.9712,4.974,4.8742,4.8914,4.8649,4.6808,4.6666,4.6624,4.6047,4.6999,0.0,4.8067,4.9413,5.0346,5.0346,5.1087,5.1337,5.075,5.1433,5.1288,4.9856,4.976,4.9375,4.849,4.9104,4.9776,5.0391,5.0033,5.013,0.0,0.0,0.0,0.0,0.0,0.0,0.0,0.0,0.0,0.0,0.0,0.0,0.0,0.0,0.0,0.0,0.0,0.0,0.0,0.0,0.0,0.0,5.7305,6.0333,6.1986,6.4549,6.668,6.785,6.8116,6.798,6.7497,6.7484,6.7317,6.6834,6.7243,6.6945,6.5626,6.5088,6.4266,6.3137,6.219,6.1373,6.0667,6.0667,6.024,5.9404,5.8586,5.7788,5.697,5.6134,5.5577,5.5261,5.5261,5.5261,5.5206,5.4723,5.528,5.6506,0.0,0.0,0.0,0.0,5.4221,5.2568,5.0915,5.0655,5.0822,4.9373,4.9224,4.9596,4.9596,4.9596,4.9596,4.9596,4.9875,4.9968,4.9132,4.9254,4.954,4.9185,4.9331,4.9573,4.9573,4.991,4.9911,4.8947,4.9103,0.0,4.754,4.7337,4.7372,4.7265,4.8047,4.8779,4.9144,5.0067,5.0712,5.0712,5.1125,5.1202,5.075,5.1433,0.0,0.0,0.0,4.9412,4.8227,4.8715,0.0,0.0,0.0,5.0336,5.0846,5.0844,0.0,0.0,5.0838,5.1012,0.0,0.0,0.0,0.0,0.0,0.0,0.0,0.0,0.0,0.0,0.0,0.0,0.0,0.0,0.0,0.0,5.9212,6.1856,6.345,6.419,6.5227,6.6964,6.6369,6.5887,6.5993,6.5998,6.5924,6.5831,6.5905,6.5515,6.4433,6.44,0.0,0.0,0.0,6.128,5.9773,5.9775,5.9367,5.8549,5.7751,5.6952,5.6116,5.5261,5.4481,5.3813,5.3813,5.3813,5.3813,5.3813,5.4277,5.5094,5.5967,5.7063,5.7788,5.4779,5.2587,5.0915,4.9429,0.0,0.0,4.8909,4.8909,4.8909,4.8909,4.8909,4.8909,4.8909,4.941,4.98,4.9094,4.9666,5.0281,4.9568,4.9627,4.9857,4.9857,4.9986,4.9897,4.9178,4.9159,4.9048,4.8355,4.8163,4.8355,4.9144,4.9336,4.9683,5.0462,5.0635,5.0712,5.0712,0.0,0.0,5.0712,5.1433,5.1529,5.0616,5.0471,4.9823,4.8514,4.8359,4.8718,4.9644,5.0381,5.0811,5.0908,5.0901,5.0901,5.0908,5.0827,5.1233,0.0,0.0,0.0,0.0,0.0,0.0,0.0,0.0,0.0,0.0,0.0,0.0,0.0,0.0,0.0,5.7396,6.015,6.2485,6.3884,6.3619,6.4035,6.61,6.5013,6.4623,6.5961,6.5478,6.4768,6.414,6.4675,6.414,6.2023,6.1911,6.1447,6.0425,5.9757,5.9274,5.8939,5.8939,5.8531,5.7732,5.6933,0.0,5.5224,5.4407,5.3961,5.3813,5.3813,5.3813,5.3813,5.3813,5.4277,5.5094,5.5967,5.567,5.4593,5.3311,5.1379,4.9336,4.902,4.8909,4.8909,4.8909,4.8909,4.8909,4.8909,4.8909,0.0,4.8909,4.902,4.9113,4.8946,4.9256,4.9587,4.9437,4.9762,5.0123,5.0123,4.9822,4.9509,4.9355,4.8808,4.8529,4.9067,4.8567,4.8163,4.8336,4.8952,4.9452,4.9625,5.0269,5.0712,5.0712,5.1279,5.1414,5.077,5.1433,5.127,4.9816,4.9118,4.893,4.9327,4.867,4.9034,5.0604,5.0167,5.0252,5.0909,5.0898,5.0898,5.0909,5.0882,5.0963,0.0,0.0,0.0,0.0,0.0,0.0,0.0,0.0,0.0,0.0,0.0,5.1954,5.3773,0.0,5.7217,6.0311,6.1601,6.2583,6.369,6.2617,6.2322,6.4037,6.3156,6.2562,6.297,6.3007,6.2654,6.1819,6.2524,6.2283,6.0648,6.0555,6.0184,5.9348,5.8921,5.8512,5.8103,5.8103,5.7713,5.6896,5.606,5.5429,5.4983,5.4184,5.3813,5.3813,5.3813,5.3813,5.3831,5.424,5.4648,5.5001,5.5039,5.4296,5.3107,5.2308,5.0692,4.8909,4.8909,4.8909,4.8909,4.8909,4.8909,4.8909,4.8909,4.8909,4.8909,4.8909,4.8909,4.8943,4.911,4.9377,4.9627,4.9762,5.013,5.0327,4.9886,4.9585,4.9144,4.8317,4.7798,4.7644,4.8067,4.8125,4.8394,4.926,4.976,5.0048,5.0048,5.0442,5.0712,5.0712,5.1048,5.1144,5.0731,5.1068,5.0971,5.0198,4.9401,4.9153,4.9637,4.8806,4.8756,4.9629,4.9687,4.99,5.0299,5.0705,5.0898,5.0898,5.0898,5.1122,0.0,0.0,0.0,0.0,0.0,0.0,0.0,5.085,5.0873,5.2905,5.3166,5.3884,5.6736,5.7512,5.8944,6.2736,6.2971,6.2835,6.3304,6.1815,6.0999,6.1801,6.1201,6.0577,6.0271,6.0739,6.0776,6.0069,6.0727,6.0725,5.972,5.9727,5.945,5.8735,5.8549,5.8159,5.7509,5.7342,5.6859,5.6042,5.5354,5.4927,5.4741,5.411,5.3813,5.3813,5.3813,5.3813,5.385,5.45,5.4686,5.4463,5.3664,5.2828,5.2048,5.1398,5.019,4.8909,4.8909,4.8909,4.8909,4.8909,4.8909,4.8909,4.8909,4.896,4.8993,4.8993,4.9025,4.9141,4.9411,4.9684,4.993,5.0147,5.0327,5.0269,4.9548,4.9144,4.8509,4.7163,4.6759,4.6701,4.6865,4.7567,4.8625,5.0212,5.0596,5.0712,5.0712,5.0712,5.0712,5.0712,5.0712,5.0693,5.0702,5.0711,5.0757,5.0829,5.0215,4.988,4.9931,4.9107,4.8643,4.8643,4.9184,4.9455,4.9455,5.0105,5.0415,5.0415,5.0415,5.0964,4.4896,4.4972,4.6834,5.0435,5.0556,5.1348,0.0,5.6898,5.5895,5.7954,5.8638,5.8854,5.8913,6.0037,6.1387,6.2676,6.3707,6.3986,6.3025,6.2016,6.1081,6.0181,5.9439,5.9642,6.1332,6.094,6.0547,6.0453,6.0807,6.0378,5.8925,5.9136,5.9099,5.8698,5.8011,5.7602,5.7509,5.6785,5.6004,5.515,5.5057,5.463,5.3943,5.385,5.3813,5.3813,5.3813,5.3813,5.3813,5.3905,5.3515,5.2791,5.1974,5.1138,5.0376,5.0283,4.967,4.8909,4.8909,4.8909,4.8909,4.8909,4.8909,4.8909,4.8909,4.911,4.9334,4.9334,4.9529,4.9721,4.9749,4.9943,5.0171,5.0195,4.9867,4.951,4.9413,4.824,4.7115,4.6942,4.6278,4.599,4.6778,4.7567,4.8432,4.9394,5.0202,5.0712,5.0712,5.0712,5.0712,5.0712,5.0712,5.0702,5.0711,5.0738,5.0829,5.0872,5.0797,5.0763,5.0763,4.9997,4.9552,4.9552,4.8894,4.8546,4.8546,4.8643,4.8682,4.8682,4.8682,4.9533,4.765,4.7935,4.916,5.1783,5.294,5.4363,5.7844,5.768,5.7389,5.9416,5.982,5.9939,6.044,6.1488,6.2619,6.3666,6.3841,6.3668,6.3168,6.1322,5.9989,5.982,5.907,5.9098,6.0463,6.0292,6.0084,6.0084,6.0203,6.0017,5.9363,5.9467,5.9172,5.8314,5.7977,5.7227,5.606,5.5707,5.5131,5.4314,5.4314,5.4128,5.3813,5.3813,5.3813,5.3775,5.3311,5.3367,5.3738,5.2791,5.2475,5.2475,5.1156,5.0432,5.0042,4.9577,4.9187,4.8909,4.8909,4.8909,4.8909,4.8909,4.8909,4.8943,4.9127,4.9289,4.9427,4.9583,4.9707,4.9844,4.9981,5.0123,5.026,5.0442,4.9932,4.926,4.8759,4.774,4.6759,4.624,4.6259,4.6471,4.6827,4.799,4.8971,4.9356,5.0144,5.0712,5.0712,5.0712,5.0712,5.0712,5.0712,5.0712,5.0692,5.0766,5.0838,5.0899,5.0901,5.0898,5.0898,4.9649,4.8933,4.8933,4.8082,4.7637,4.7637,4.814,4.8392,4.8392,4.8392,4.8778,4.8772,4.9532,5.0558,5.2635,5.4542,5.6276,5.7628,5.7911,5.8282,5.9654,6.0008,6.0307,6.1024,6.1964,6.2801,6.3449,6.3416,6.3051,6.2346,6.0649,5.951,5.9566,5.9102,5.9079,5.9858,5.9725,5.9687,5.9915,5.9802,5.9733,5.9807,5.9563,5.9032,5.8174,5.7508,5.6519,5.5137,5.4836,5.4388,5.3813,5.3813,5.3813,5.3813,5.3813,5.3683,5.3441,5.2847,5.281,5.3051,5.1881,5.1602,5.1788,5.058,4.9968,4.9707,4.9113,4.8909,4.8909,4.8909,4.8909,4.8909,4.8909,4.8959,4.9077,4.9337,4.9499,4.9655,4.9857,4.9974,5.0087,5.0302,5.0347,5.041,5.0634,4.9856,4.8933,4.8548,4.7451,4.649,4.6317,4.6624,4.6962,4.7192,4.8432,4.9394,4.9394,5.0144,5.0712,5.0712,5.0712,5.0712,5.0712,5.0702,5.0712,5.0739,5.0793,5.0758,5.0587,5.0573,5.0453,5.0221,4.8817,4.8043,4.8043,4.7192,4.6728,4.6728,4.7386,4.7676,4.7676,4.7676,4.7811,4.6546,4.7856,4.9537,5.3168,5.4894,5.6162,5.7885,5.8873,5.936,5.9092,5.9952,6.0685,6.0387,6.132,6.1858,6.105,6.2262,6.2454,5.9954,6.0281,6.0308,5.9161,5.9293,5.9681,6.0231,5.9535,5.9382,6.0222,5.9805,5.9594,5.9785,5.9011,5.8521,5.8489,5.6275,5.5212,5.5482,5.4392,5.3831,5.3813,5.3813,5.3813,5.3813,5.3813,5.3367,5.2642,5.2605,5.2178,5.1472,5.1416,5.0915,5.0172,5.0135,4.9633,4.8927,4.8909,4.8909,4.8909,4.8909,4.8909,4.8909,4.8909,4.9127,4.9384,4.9399,4.9749,5.0183,5.0183,5.0421,5.0673,5.0683,5.0683,5.0683,5.0712,4.9394,4.8355,4.9183,4.7394,4.6114,4.7721,4.7432,4.7154,4.7932,4.8817,4.9394,4.9394,5.0144,5.0712,5.0712,5.0712,5.0712,5.0712,5.0692,5.0739,5.0793,5.0855,5.0568,4.9796,4.9745,4.9359,4.8508,4.7618,4.7134,4.7134,4.629,4.5845,4.5845,4.5865,4.5884,4.5884,4.5884,4.6329,4.7535,4.9284,5.1264,5.4388,5.5871,5.6857,5.803,5.8511,5.8681,5.8568,5.781,5.7116,5.6996,5.826,5.9223,5.8917,6.0909,6.1993,6.055,6.0127,5.9625,5.8775,5.8972,5.9054,5.8802,5.9111,5.9458,5.9746,5.96,5.9307,5.8834,5.9032,5.8551,5.722,5.6192,5.5354,5.4711,5.4093,5.3907,5.4124,5.4124,5.3756,5.2995,5.2995,5.2568,5.1769,5.1193,5.1119,5.1305,5.0209,4.9875,5.006,4.9522,4.915,4.8909,4.8909,4.8909,4.8909,4.8909,4.8909,4.8909,4.8909,4.8995,4.9141,4.9539,4.979,5.0025,5.041,5.0211,4.9971,5.0558,4.9837,4.9125,4.9702,4.8952,4.8182,4.8471,4.7855,4.7432,4.799,4.8355,4.8644,4.8913,4.9683,5.0269,5.0269,5.0519,5.0712,5.0712,5.0712,5.0702,5.0692,5.0711,5.0757,5.0855,5.0891,5.0781,5.0511,4.9997,4.9571,4.9262,4.7869,4.7096,4.7096,4.6252,4.5807,4.5807,4.5807,4.5807,4.5807,4.5807,4.5962,4.8587,5.0116,5.1668,5.418,5.5222,5.5876,5.6742,5.7165,5.7453,5.7761,5.6486,5.5306,5.5306,5.6206,5.6748,5.6064,5.8311,5.9828,5.8952,5.8626,5.847,5.8511,5.8796,5.8851,5.8461,5.8593,5.8764,5.887,5.9158,5.9022,5.8346,5.8373,5.7887,5.6721,5.5969,5.5273,5.4651,5.4313,5.4264,5.4479,5.4065,5.3501,5.2751,5.2363,5.1714,5.0896,5.0339,5.0246,5.0413,4.9336,4.9206,4.9633,4.9113,4.9094,4.9336,4.902,4.9076,4.9299,4.9002,4.8909,4.8909,4.8909,4.8976,4.9174,4.9651,4.987,5.005,5.0554,5.0067,4.9529,5.0087,4.9163,4.824,4.8798,4.8298,4.7759,4.8048,4.7875,4.7855,4.8452,4.9029,4.949,4.9798,5.0327,5.0596,5.0289,5.025,5.0346,5.0654,5.0712,5.0712,5.0692,5.072,5.0784,5.0891,5.0645,5.0333,5.0028,4.9223,4.8624,4.8314,4.7231,4.6631,4.6631,4.6097,4.5807,4.5807,4.5807,4.5807,4.5807,4.5807,4.5807,4.9496,5.031,5.0845,5.2728,5.3203,5.3433,5.4299,5.5049,5.5799,5.6626,5.5803,5.4937,5.4899,5.5033,5.4556,5.2724,5.4892,5.6499,5.5568,5.6212,5.7164,5.8265,5.8701,5.8931,5.9007,5.7991,5.74,5.7603,5.8399,5.8654,5.817,5.7123,5.6651,5.6915,5.5565,5.4966,5.5301,5.4981,5.4821,5.4791,5.3682,5.3125,5.3017,5.1892,5.0877,5.006,5.0042,4.9615,4.8909,4.8909,4.8909,4.8909,4.8946,4.9466,5.0098,4.9262,4.9447,4.9986,4.9187,4.8909,4.8909,4.8909,4.9127,4.9457,4.9721,4.9968,5.0249,5.0575,5.0019,4.9327,4.9356,4.8673,4.799,4.8029,4.7471,4.7096,4.7875,4.7471,4.7432,4.9029,4.9375,4.9663,5.05,5.0635,5.0346,4.9452,4.9336,4.9644,5.0519,5.0596,5.0596,5.0643,5.0698,5.0761,5.0822,5.0148,4.9359,4.8527,4.7599,4.6728,4.5904,4.5826,4.5807,4.5807,4.5807,4.5807,4.5807,4.5807,4.5807,4.5807,4.5807,4.5807,4.8957,5.0391,5.1766,5.2913,5.3203,5.3433,5.4299,5.4164,5.3834,5.3863,5.1966,5.0101,4.9461,5.1427,5.3053,5.2755,5.6649,5.9218,5.7739,5.8239,5.8322,5.7142,5.7443,5.7393,5.6528,5.7061,5.6836,5.5317,5.6397,5.6824,5.6109,5.6575,5.6609,5.6049,5.546,5.5204,5.5301,5.5223,5.5056,5.4787,5.4097,5.3333,5.2473,5.1327,5.0359,4.9557,4.9308,4.9094,4.8909,4.8909,4.8909,4.8964,4.9559,4.993,5.0098,4.993,5.0005,5.0042,4.9206,4.8909,4.8909,4.8909,4.9127,4.9457,4.9721,4.9857,4.9974,5.0249,4.9264,4.8277,4.8928,4.7673,4.6394,4.7048,4.7038,4.6962,4.7154,4.7528,4.7932,4.8355,4.8952,4.9471,4.9683,4.9721,4.9433,4.8567,4.8432,4.8759,4.9625,4.9211,4.9102,4.9744,4.9873,4.9934,4.9993,4.9815,4.961,4.9378,4.7947,4.6999,4.6786,4.6155,4.5807,4.5807,4.5807,4.5807,4.5807,4.5807,4.5807,4.5807,4.5807,4.5807,4.8841,4.9959,5.101,5.1895,5.2106,5.2201,5.2579,5.2288,5.1839,5.1591,4.9593,4.7772,4.7365,4.9485,5.1336,5.1447,5.5369,5.8199,5.7642,5.7623,5.7455,5.692,5.6774,5.6495,5.5902,5.6178,5.5897,5.4689,5.5842,5.6143,5.514,5.5682,5.5879,5.5527,5.5376,5.5351,5.5473,5.5492,5.5197,5.4651,5.4206,5.3277,5.1927,5.1149,5.0305,4.9399,4.9209,4.9027,4.8909,4.8909,4.9113,4.9466,4.993,5.0339,5.0636,5.0283,5.0153,5.0042,4.9187,4.8909,4.8907,4.9077,4.9257,4.9472,4.987,4.9891,4.987,5.0116,4.8991,4.7807,4.8304,4.702,4.5729,4.6201,4.6336,4.6336,4.6336,4.699,4.7682,4.8029,4.849,4.8836,4.8836,4.8836,4.8548,4.7702,4.7567,4.7759,4.824,4.8238,4.8407,4.8913,4.9001,4.9061,4.9119,4.8778,4.8566,4.8566,4.727,4.6542,4.6542,4.6058,4.5807,4.5807,4.5807,4.5807,4.5807,4.5807,4.5807,4.5807,4.5807,4.5807,4.8596,4.9087,4.9375,5.021,5.0364,5.0285,5.0252,5.0061,4.983,4.958,4.8093,4.6855,4.6909,4.8433,4.9787,5.0138,5.3162,5.5798,5.6697,5.6142,5.5986,5.6907,5.6292,5.5835,5.6011,5.53,5.4853,5.4853,5.5753,5.585,5.4791,5.4776,5.4924,5.5217,5.5135,5.5192,5.5423,5.5423,5.5001,5.4194,5.3922,5.2983,5.1486,5.1102,5.0407,4.9499,4.9472,4.927,4.8978,4.8978,4.9352,4.9949,5.006,5.0562,5.1138,5.0395,5.0098,4.9986,4.9187,4.8909,4.896,4.9241,4.9349,4.9488,4.9962,4.9841,4.9633,4.9903,4.885,4.7629,4.7548,4.6656,4.5748,4.5633,4.5594,4.5594,4.5594,4.6182,4.6971,4.7778,4.7952,4.7952,4.7952,4.7952,4.7663,4.6855,4.674,4.674,4.674,4.74,4.7992,4.8265,4.8199,4.8199,4.8392,4.7599,4.7096,4.7096,4.629,4.5807,4.5807,4.5807,4.5807,4.5807,4.5807,4.5807,4.5807,4.5807,4.5807,4.5807,4.5807,4.5807,4.6866,4.7493,4.8146,4.8788,4.859,4.8517,4.9645,4.8802,0.0,4.7546,4.6662,4.5721,4.503,4.6873,4.9329,5.1884,5.4581,5.6766,5.7855,5.764,5.695,5.5777,5.5015,5.4612,5.4642,5.4261,5.4017,5.4017,5.4186,5.4316,5.4382,5.4654,5.4821,5.488,5.423,5.3917,5.3954,5.3954,5.353,5.2675,5.262,5.222,5.1467,5.0481,5.0043,5.005,4.983,4.9569,4.9302,4.9302,4.9235,4.9169,4.9837,5.019,5.032,5.0172,5.0098,4.9986,4.9187,4.8909,4.8909,4.8978,4.9176,4.943,4.9499,4.8991,4.8455,4.8715,4.8124,4.7244,4.6748,4.6656,4.649,4.5768,4.5594,4.5594,4.5594,4.5729,4.6086,4.6951,4.7096,4.7096,4.7096,4.7096,4.6817,4.5951,4.5825,4.5825,4.5825,4.6009,4.6703,4.8139,4.7701,4.7591,4.8333,4.7599,4.7096,4.7096,4.629,4.5807,4.5807,4.5807,4.5807,4.5807,4.5807,4.5807,4.5807,4.5807,4.5807,4.5807,4.5807,4.5807,4.6126,4.658,4.7051,4.7745,4.7713,4.7528,4.7637,0.0,0.0,4.5585,4.5103,4.4736,4.4463,4.6149,4.8235,5.0279,5.2869,5.5065,5.6295,5.6855,5.6709,5.5542,5.5117,5.4698,5.4091,5.3889,5.3627,5.3218,5.3181,5.3237,5.3419,5.333,5.3277,5.3239,5.3028,5.2921,5.2921,5.2921,5.2504,5.167,5.2106,5.1719,5.0621,5.0529,5.022,4.9776,4.9655,4.9423,4.9181,4.9629,4.9696,4.9559,4.9949,4.9837,4.9429,4.902,4.8593,4.8166,4.7776,4.7924,4.8203,4.7794,4.8436,4.9258,4.8532,4.8196,4.8037,4.7749,4.7151,4.6556,4.6269,4.62,4.6124,4.571,4.5594,4.5594,4.5594,4.5594,4.5729,4.6144,4.622,4.622,4.622,4.622,4.6086,4.5671,4.5594,4.5594,4.5594,4.5651,4.6016,4.6865,4.6626,4.6593,4.6999,4.6651,4.6426,4.6426,4.6039,4.5807,4.5807,4.5807,4.5807,4.5807,4.5807,4.5807,4.5807,4.5807,4.5807,4.5807,4.5807,4.5807,4.5527,4.5742,4.5918,4.6679,4.6775,4.6503,4.5772,4.5475,4.5084,4.4178,4.4005,4.4064,4.4279,4.5434,4.6821,4.8291,5.0368,5.245,5.4292,5.5399,5.5905,5.5549,5.5448,0.0,5.3887,5.3645,5.3218,5.2401,5.2178,5.2159,5.2327,5.198,5.1776,5.172,5.1785,5.1827,5.1827,5.1827,5.1431,5.0638,5.1431,5.1082,4.9745,5.0435,5.0279,4.9503,4.9503,4.919,4.877,4.9476,4.9573,4.9336,4.9336,4.8946,4.8314,4.7683,4.7033,4.6494,4.6494,4.6903,4.7311,4.6494,4.7508,4.879,4.7509,4.7297,4.7372,4.679,4.6298,4.5918,4.5848,4.5802,4.5753,4.5624,4.5594,4.5594,4.5594,4.5594,4.5594,4.5594,4.5594,4.5594,4.5594,4.5594,4.5594,4.5594,4.5594,4.5594,4.5594,4.5651,4.5708,4.5708,4.5757,4.5884,4.6058,4.5904,4.5807,4.5807,4.5807,4.5807,4.5807,4.5807,4.5807,4.5807,4.5807,4.5807,4.5807,4.5807,4.5807,4.5807,4.5807,4.5807,4.4468,4.457,4.4707,4.5329,4.5069,4.4787,4.5227,0.0,4.4144,4.4005,4.4005,4.402,4.4033,4.4163,4.5155,4.7814,4.8447,4.9811,5.3224,5.417,5.4754,5.5405,0.0,0.0,5.3887,5.3144,5.2382,5.1565,5.0785,5.0692,5.1472,5.1471,5.1434,5.1434,5.0707,5.0296,5.0296,5.0352,4.9961,4.9105,4.9924,5.0,4.9442,4.9517,4.9634,4.9762,4.9762,4.9159,0.0,4.8261,4.7735,4.6828,4.6828,4.6791,4.6717,4.6643,4.655,4.6494,4.6494,4.655,4.6475,4.5658,4.6527,4.7696,4.6834,4.6092,4.5584,4.5686,4.5726,4.5652,4.5346,4.5842,4.6269,4.5723,4.5594,4.5594,4.5594,4.5594,4.5594,4.5594,4.5594,4.5594,4.5594,4.5594,4.5594,4.5594,4.5594,4.5594,4.5594,4.5651,4.5708,4.5708,4.5757,4.6116,4.6902,4.6271,4.5807,4.5807,4.5807,4.5807,4.5807,4.5807,4.5807,4.5807,4.5807,4.5807,4.5807,4.5807,4.5807,4.5807,4.5807,4.5807,4.4136,4.4166,4.4229,4.4463,4.4355,4.4229,4.4463,0.0,4.4005,4.4005,4.4005,4.4005,4.4005,4.4005,4.4383,4.5503,4.6259,4.7473,4.9724,5.0807,5.1959,5.3551,5.3219,5.2902,5.307,5.2345,5.1528,5.0692,4.9856,4.9317,4.9187,4.9633,4.9893,4.9893,4.9559,4.9392,4.9392,4.941,4.9243,4.8909,4.9224,4.9275,4.9075,4.8607,4.8429,4.8515,4.8009,4.7557,0.0,4.7674,4.7332,4.6494,4.6494,4.6197,4.5714,4.5194,4.5008,4.5008,4.5008,4.5342,4.5639,4.4785,4.5305,4.6104,4.5249,4.5138,4.5207,4.4755,4.4876,4.5123,4.4991,4.5449,4.5898,4.5654,4.5594,4.5594,4.5594,4.5594,4.5594,4.5594,4.5594,4.5594,4.5594,4.5594,4.5594,4.5594,4.5594,4.5594,4.5594,4.5651,4.5708,4.5708,4.5757,4.5942,4.629,4.6,4.5807,4.5807,4.5807,4.5807,4.5807,4.5807,4.5807,4.5807,4.5807,4.5807,4.5807,4.5807,4.5807,4.5807,4.5807,4.5807,4.4005,4.4005,4.4005,4.4005,4.4005,4.4005,0.0,0.0,4.4005,4.4005,4.4005,4.4005,4.4005,4.4005,4.4005,4.4005,4.4666,4.5698,4.714,4.8234,4.972,5.1992,5.1732,5.1621,5.2197,5.1286,5.0302,4.9447,4.8872,4.8184,4.7386,4.7887,4.8184,4.8184,4.8184,4.8184,4.8184,4.8184,4.8184,4.8184,4.8184,4.8184,4.8166,4.7608,4.7348,4.7311,4.6754,4.6364,0.0,4.6754,4.6494,4.5751,4.5751,4.5417,4.4841,4.4228,4.4005,4.4005,4.4005,4.4395,4.4804,4.4191,4.4413,4.4804,4.4191,4.4432,4.4785,4.4172,4.4388,4.4788,4.4788,4.5201,4.5594,4.5594,4.5594,4.5594,4.5594,4.5594,4.5594,4.5594,4.5594,4.5594,4.5594,4.5594,4.5594,4.5594,4.5594,4.5594,4.5594,4.5662,4.5692,4.5708,4.5769,4.5793,4.5807,4.5807,4.5807,4.5807,4.5807,4.5807,4.5807,4.5807,4.5807,4.5807,4.5807,4.5807,4.5807,4.5807,4.5807,4.5807,4.5807,4.5807,4.4005,4.4005,4.4005,4.4005,4.4005,4.4005,4.4005,4.4005,4.4005,4.4005,4.4005,4.4005,4.4005,4.4005,4.4005,4.4005,4.4005,4.4599,4.6271,4.72,4.863,5.1119,5.1416,5.1398,5.1416,4.9893,4.8593,4.7794,4.772,4.7367,4.655,4.6513,4.6513,4.6513,4.6513,4.6513,4.6513,4.6513,4.6513,4.6513,4.6513,4.6513,4.6513,4.6513,4.6513,4.6513,4.6494,4.6048,0.0,4.5324,4.4804,4.4023,4.4023,4.4023,4.4005,4.4005,4.4005,4.4005,4.4005,4.4005,4.4005,4.4005,4.4005,4.4005,4.4005,4.4005,4.4005,4.4005,4.4388,4.4788,4.4788,4.5201,4.5594,4.5594,4.5594,4.5594,4.5594,4.5594,4.5594,4.5594,4.5594,4.5594,4.5594,4.5594,4.5594,4.5594,4.5594,4.5594,4.5594,4.5657,4.5698,4.57,4.5765,4.5803,4.58,4.5807,4.5807,4.5807,4.5807,4.5807,4.5807,4.5807,4.5807,4.5807,4.5807,4.5807,4.5807,4.5807,4.5807,4.5807,4.5807,4.5807,4.4005,4.4005,4.4005,4.4005,4.3976,4.3929,4.3929,4.3929,4.3929,4.3929,4.3958,4.4005,4.4005,4.4005,4.4005,4.4005,4.4005,4.4191,4.4711,4.5992,4.7386,4.8704,4.9837,5.0079,4.8983,4.8389,4.7757,4.694,4.6884,4.6531,4.5714,4.5677,4.5918,4.6475,4.6494,4.6494,4.6494,4.6494,4.6494,4.6494,4.6494,4.6494,4.6475,4.5918,4.5677,4.5639,4.5045,4.4655,4.4413,4.4413,4.4246,4.4005,4.4005,4.4005,4.4005,4.4005,4.4005,4.4005,4.4005,4.4005,4.4005,4.4005,4.4005,4.4005,4.4005,4.4005,4.4079,4.4443,4.4663,4.4872,4.5243,4.5457,4.5594,4.5594,4.5594,4.5594,4.5594,4.5594,4.5594,4.5594,4.5594,4.5594,4.5594,4.5594,4.5594,4.5594,4.5594,4.5594,4.5594,4.5657,4.5709,4.5698,4.5762,4.5803,4.58,4.5807,4.5807,4.5807,4.5807,4.5807,4.5807,4.5807,4.5807,4.5807,4.5807,4.5807,4.5807,4.5807,4.5807,4.5807,4.5807,4.5807,0.0,4.3929,4.3929,4.3929,4.3881,0.0,4.3867,4.3867,4.3867,4.3867,4.3899,4.3929,4.3929,4.3945,4.3958,4.3958,4.3974,4.4116,4.4432,4.5658,4.6903,4.8017,4.8779,4.8797,4.7794,4.7423,4.6903,4.6104,4.6048,4.5677,4.4841,4.4804,4.5045,4.5547,4.5565,4.5565,4.5565,4.5565,4.5565,4.5565,4.5565,4.5565,4.5547,4.5045,4.4804,4.4785,4.4246,4.4005,0.0,4.367,4.3726,4.3968,4.367,4.3726,4.4005,4.4005,4.4005,4.4005,4.4005,4.4005,4.4005,4.4005,4.3782,4.3485,4.3188,4.3522,4.4064,4.4402,4.4559,4.4726,4.5063,4.5222,4.5302,4.5302,4.5302,4.5302,4.5302,4.539,4.5438,4.5438,4.5522,4.5594,4.5594,4.5594,4.5594,4.5594,4.5594,4.5594,4.5594,4.564,4.5665,4.5701,4.5746,4.5761,4.5798,4.58,4.5807,4.5807,4.5807,4.5807,4.5807,4.5807,4.5807,4.5807,4.5807,4.5807,4.5807,4.5807,4.5807,4.5807,4.5807,4.5807,0.0,4.3719,4.3753,4.3788,4.3788,4.3788,4.3788,4.3788,0.0,4.3788,4.3788,4.3822,4.3878,4.3888,4.3899,4.3973,4.3998,4.4302,4.5157,4.6048,4.7163,4.8723,4.8184,4.7627,4.746,4.6828,4.6048,4.5175,4.5119,4.4766,4.3968,4.3856,4.3856,4.3912,4.3856,4.3856,4.3912,4.3912,4.3893,4.3838,4.3949,4.3968,4.3912,4.3968,4.4005,4.4005,4.4005,4.4005,4.3949,4.3188,4.3336,4.3912,4.3113,4.328,4.3986,4.3949,4.3949,4.3986,4.3931,4.3912,4.3912,4.3856,4.3318,4.2575,4.1832,4.263,4.3838,4.3924,4.4113,4.4322,4.4411,4.4612,4.4788,4.4788,4.4788,4.4788,4.4788,4.5019,4.5201,4.5201,4.5419,4.5594,4.5594,4.5594,4.5594,4.5594,4.5594,4.5594,4.5594,4.5594,4.5631,4.5693,4.5695,4.5723,4.58,4.5798,4.5807,4.5807,4.5807,4.5807,4.5807,4.5807,4.5807,4.5807,4.5807,4.5807,4.5807,4.5807,4.5807,4.5807,4.5807,4.5807,4.2519,0.0,4.3355,4.3719,4.3719,4.3651,0.0,4.3651,4.3651,4.3651,0.0,4.3989,4.4598,4.4227,4.4022,4.465,4.4272,4.4207,4.5041,4.6444,4.7794,4.8779,4.8184,4.6958,4.5045,4.5305,4.4971,4.3503,4.3392,4.3299,4.3095,4.25,4.2445,4.3058,4.2482,4.2463,4.3076,4.3076,4.276,4.2184,4.341,4.367,4.3095,4.3726,4.4005,4.4005,4.4005,4.4005,4.3986,4.3801,4.3838,4.3912,4.3113,4.328,4.3931,4.3318,4.3466,4.3912,4.3299,4.3076,4.2983,4.2352,4.2036,4.185,4.1664,4.185,4.2337,4.3161,4.3422,4.3662,4.448,4.4751,4.4788,4.4788,4.4788,4.4788,4.4788,4.5019,4.5201,4.5201,4.5419,4.5594,4.5594,4.5594,4.5594,4.5594,4.5594,4.5594,4.5594,4.5594,4.5614,4.5631,4.566,4.5708,4.5723,4.5764,4.5807,4.5807,4.5807,4.5807,4.5807,4.5807,4.5807,4.5807,4.5807,4.5807,4.5807,4.5807,4.5807,4.5807,4.5807,4.5807,4.1821,4.2264,4.2753,4.2995,4.2759,4.2596,4.3141,0.0,0.0,0.0,0.0,0.0,4.4222,4.4292,4.4291,4.4346,4.469,4.5238,4.6033,4.6674,4.7503,4.8709,4.7517,4.6215,4.5231,4.4544,4.3782,4.2872,4.2463,4.224,4.224,4.1832,4.1794,4.224,4.146,4.1441,4.224,4.224,4.2017,4.1609,4.2482,4.2667,4.2259,4.2705,4.289,4.289,4.289,4.289,4.2872,4.25,4.2575,4.2816,4.1999,4.2184,4.2853,4.2407,4.2519,4.2835,4.2389,4.224,4.211,4.1311,4.1051,4.0958,4.0568,4.0438,4.0816,4.2534,4.3006,4.3236,4.4195,4.443,4.443,4.443,4.443,4.443,4.443,4.4739,4.5019,4.5019,4.5332,4.5594,4.5594,4.5594,4.5594,4.5594,4.5594,4.5594,4.5594,4.5594,4.5594,4.5594,4.5651,4.5708,4.5708,4.5764,4.5807,4.5807,4.5807,4.5807,4.5807,4.5807,4.5807,4.5807,4.5807,4.5807,4.5807,4.5807,4.5807,4.5807,4.5807,4.5807,4.0939,4.1515,4.2032,4.2157,4.1736,4.1533,4.2567,0.0,0.0,0.0,0.0,0.0,0.0,4.4191,0.0,0.0,4.514,4.6575,4.7645,4.7159,4.7118,4.8322,4.6702,4.5547,4.5732,4.3968,4.2705,4.2445,4.1794,4.1423,4.1423,4.1293,4.1274,4.1404,4.0624,4.0531,4.12,4.1349,4.1349,4.1219,4.1479,4.1534,4.1423,4.1534,4.159,4.159,4.159,0.0,4.1553,4.0861,4.0992,4.1516,4.0713,4.0899,4.159,4.146,4.1479,4.1571,4.146,4.133,4.1107,4.042,4.0197,4.0048,3.9324,3.9101,3.9584,4.1943,4.2612,4.2835,4.3763,4.4005,4.4005,4.4005,4.4005,4.4005,4.4005,4.4388,4.4751,4.4788,4.5201,4.5559,4.5586,4.5594,4.5594,4.5594,4.5594,4.5594,4.5594,4.5594,4.5594,4.5594,4.5651,4.5708,4.5708,4.5764,4.5807,4.5807,4.5807,4.5807,4.5807,4.5807,4.5807,4.5807,4.5807,4.5807,4.5807,4.5807,4.5807,4.5807,4.5807,4.5807,3.886,3.9968,4.1277,4.2029,4.2109,4.2076,4.2262,0.0,0.0,0.0,0.0,0.0,0.0,4.4065,4.3863,0.0,4.5456,4.6998,4.927,4.897,4.8093,4.6979,4.655,4.5268,4.2612,4.2612,4.224,4.0866,4.0657,4.0583,4.0583,3.9881,3.9825,4.0564,3.9751,3.9361,3.9472,4.0215,4.0197,3.9491,4.0921,4.1237,4.062,4.1293,4.159,4.159,0.0,4.159,4.159,4.146,4.1479,4.1516,4.0713,4.0899,4.1516,4.0828,4.1014,4.1497,4.081,4.0085,3.9454,3.9342,3.9305,3.9268,3.9138,3.9101,3.9472,4.1274,4.1776,4.2129,4.3615,4.4005,4.4005,4.4005,4.4005,4.4005,4.4005,4.425,4.4519,4.4751,4.5052,4.5332,4.5568,4.5594,4.5594,4.5594,4.5594,4.5594,4.5594,4.5594,4.5594,4.5594,4.5651,4.5708,4.5708,4.5764,4.5807,4.5807,4.5807,4.5807,4.5807,4.5807,4.5807,4.5807,4.5807,4.5807,4.5807,4.5807,4.5807,4.5807,4.5807,4.5807,3.8277,3.8912,3.9635,4.0053,4.0832,4.1679,4.2321,4.2139,0.0,0.0,0.0,0.0,0.0,0.0,4.5094,4.702,4.704,4.737,4.8956,4.7844,4.6743,4.6428,4.5663,4.4562,4.3039,4.2445,4.1664,4.049,3.9955,3.9695,3.9695,3.9324,3.9287,3.9677,3.9305,3.9101,3.9101,3.9491,3.9491,3.9101,3.9881,4.0048,3.9714,4.0067,4.0253,4.0253,0.0,4.0253,4.0253,4.0253,4.0253,4.0215,3.9844,3.9918,4.0197,3.9825,3.9918,4.0197,3.9825,3.9435,3.9101,3.9101,3.9101,3.9101,3.9101,3.9101,3.9361,4.0587,4.1256,4.1962,4.3578,4.4005,4.4005,4.4005,4.4005,4.4005,4.4005,4.4206,4.4479,4.4739,4.5019,4.5292,4.5559,4.5594,4.5594,4.5594,4.5594,4.5594,4.5594,4.5594,4.5594,4.5594,4.5651,4.5708,4.5708,4.5764,4.5807,4.5807,4.5807,4.5807,4.5807,4.5807,4.5807,4.5807,4.5807,4.5807,4.5807,4.5807,4.5807,4.5807,4.5807,4.5807,3.7418,3.7934,3.834,3.8196,0.0,4.0747,4.219,4.2072,0.0,0.0,0.0,0.0,0.0,4.4246,4.6002,4.8598,4.8052,4.7574,4.8402,4.6851,4.5677,4.5731,4.4686,4.3735,4.3206,4.2002,4.0944,4.0141,3.9472,3.9027,3.8822,3.8822,3.8729,3.8544,3.8544,3.8544,3.8544,3.8544,3.8729,3.9101,3.8915,3.8915,3.9082,3.8897,3.8822,3.8822,3.8822,3.8711,3.8544,3.8729,3.8822,3.8841,3.9027,3.9101,3.9101,3.9101,3.9101,3.9101,3.9101,3.9101,3.9101,3.9101,3.9101,3.9101,3.9101,3.9101,3.9287,4.0155,4.0828,4.1683,4.3299,4.3726,4.3763,4.3968,4.4005,4.4005,4.4005,4.4166,4.4388,4.465,4.4872,4.5096,4.5381,4.5419,4.5419,4.5419,4.5419,4.5419,4.5419,4.5476,4.5504,4.5504,4.5627,4.5715,4.5712,4.5771,4.5807,4.5807,4.5807,4.5807,4.5807,4.5807,4.5807,4.5807,4.5807,4.5807,4.5807,4.5807,4.5807,4.5807,4.5807,4.5807,3.5235,3.6743,3.8157,3.7538,3.8079,0.0,4.154,4.2013,0.0,4.4382,0.0,0.0,0.0,4.4363,4.5315,4.7003,4.7298,4.7574,4.8402,4.7776,4.646,4.4307,4.3923,4.2976,4.0866,4.044,3.9999,3.925,3.9138,3.8767,3.8024,3.7986,3.7634,3.6891,3.6872,3.6872,3.6872,3.6872,3.7615,3.9082,3.8339,3.8377,3.9064,3.8321,3.7986,3.7986,3.7986,3.7559,3.6928,3.7671,3.7986,3.8061,3.8804,3.9101,3.9101,3.9101,3.9101,3.9101,3.9101,3.9101,3.9101,3.9101,3.9101,3.9101,3.9101,3.9101,3.9287,4.0155,4.0453,4.0861,4.2463,4.289,4.3076,4.3819,4.4005,4.4005,4.4005,4.402,4.4106,4.4388,4.4438,4.4546,4.4812,4.4868,4.4868,4.4868,4.4868,4.4868,4.4868,4.5074,4.5232,4.5232,4.551,4.5739,4.5793,4.58,4.5807,4.5807,4.5807,4.5807,4.5807,4.5807,4.5807,4.5807,4.5807,4.5807,4.5807,4.5807,4.5807,4.5807,4.5807,4.5807,3.4084,3.5251,3.6337,3.636,3.7095,0.0,0.0,4.2016,4.222,4.2944,4.3853,0.0,0.0,0.0,4.5272,4.5876,4.6727,4.7408,4.7703,4.6263,4.4835,4.3943,4.2979,4.1622,3.9703,3.9527,3.8999,3.7689,3.7596,3.7466,3.7169,3.7151,3.7015,3.6718,3.6699,3.6699,3.6699,3.6699,3.7015,3.7596,3.7299,3.7312,3.7596,3.7281,3.7151,3.7151,3.7151,3.6978,3.6773,3.7559,3.7894,3.7968,3.8785,3.9101,3.9101,3.9101,3.9101,3.9101,3.9101,3.9101,3.9101,3.9101,3.9101,3.9101,3.9101,3.9101,3.9175,3.9491,3.9584,4.0085,4.224,4.2426,4.237,4.3689,4.3615,4.3392,4.3893,4.4005,4.4079,4.4346,4.4397,4.4479,4.4751,4.4788,4.4788,4.4788,4.4788,4.4849,4.503,4.4996,4.5074,4.5419,4.559,4.5739,4.58,4.5807,4.5807,4.5807,4.5807,4.5807,4.5807,4.5807,4.5807,4.5807,4.5316,4.5297,4.5807,4.5297,4.5316,4.5807,4.5807,4.5807,3.3327,3.4386,3.5362,0.0,0.0,0.0,4.0627,4.1474,4.1861,4.2585,4.3314,4.3631,4.3138,0.0,0.0,4.4895,4.5696,4.625,4.6121,4.4515,4.3146,4.2694,4.1453,4.0115,3.878,3.8452,3.7867,3.6779,3.6699,3.6588,3.6328,3.6328,3.6197,3.5906,3.5906,3.5906,3.5906,3.5906,3.5906,3.5906,3.5893,3.6172,3.6686,3.6439,3.6328,3.6328,3.6328,3.6147,3.5962,3.6798,3.7429,3.7968,3.8785,3.9101,3.9101,3.9101,3.8934,3.8711,3.8711,3.8544,3.8339,3.8339,3.8507,3.8711,3.8711,3.8897,3.9101,3.9101,3.9101,3.9547,4.1534,4.1627,4.1627,4.3243,4.3206,4.302,4.3838,4.4005,4.4048,4.4236,4.426,4.4332,4.4525,4.4552,4.4552,4.4552,4.4552,4.4612,4.48,4.4739,4.4896,4.5447,4.5384,4.5333,4.5406,4.5413,4.5413,4.5413,4.5413,4.5413,4.5413,4.5162,4.5007,4.5007,4.4736,4.4736,4.5007,4.4987,4.5123,4.5432,4.5691,4.5807,3.2927,3.4253,3.5605,0.0,0.0,0.0,3.9163,4.0249,4.1533,4.381,4.3402,4.2875,4.3606,4.3532,0.0,4.3983,4.4059,4.3903,4.3519,4.2763,4.1711,4.0262,3.9301,3.8534,3.7936,3.7103,3.6607,3.6668,3.6681,3.6328,3.5529,3.5491,3.5101,3.4234,3.4197,3.4197,3.4197,3.4197,3.4197,3.4197,3.4136,3.4989,3.6643,3.5844,3.5473,3.5454,3.5454,3.499,3.4253,3.5138,3.6439,3.7931,3.8729,3.9064,3.9064,3.9064,3.8562,3.7894,3.7894,3.7355,3.6699,3.6699,3.7225,3.7894,3.7894,3.8451,3.9082,3.9082,3.9082,3.9287,4.0155,4.0378,4.0791,4.2407,4.2779,4.3002,4.3801,4.3986,4.3986,4.3986,4.3986,4.3986,4.3986,4.3986,4.3986,4.3986,4.3986,4.3986,4.3986,4.4231,4.4638,4.5207,4.4757,4.4449,4.4568,4.4594,4.4594,4.4594,4.4574,4.4574,4.4594,4.3769,4.3305,4.3305,4.413,4.4149,4.3305,4.4949,4.5355,4.4613,4.5413,4.5787,3.0779,3.2336,0.0,3.4301,0.0,0.0,0.0,3.8923,0.0,0.0,4.0389,3.9267,4.0013,4.0342,0.0,3.9949,4.0597,4.1013,4.0597,3.9694,3.8873,3.8409,3.7485,3.6705,3.6192,3.5948,3.5583,3.4996,3.494,3.4829,3.4599,3.4587,3.4457,3.4197,3.4197,3.4197,3.4197,3.4161,3.4136,3.4136,3.4061,3.4024,3.4025,3.3784,3.3357,3.2819,3.2885,3.3076,3.3417,3.4253,3.4866,3.5312,3.5553,3.6017,3.6569,3.6569,3.6773,3.7058,3.7058,3.6891,3.6699,3.6699,3.6866,3.7058,3.7058,3.7219,3.7411,3.7411,3.7819,3.8321,3.8562,3.9064,3.99,4.1553,4.1516,4.133,4.2129,4.2314,4.2314,4.2314,4.276,4.2983,4.2407,4.2779,4.2965,4.2389,4.2314,4.259,4.3329,4.3957,4.4364,4.4451,4.441,4.4218,4.3724,4.3692,4.3692,4.3692,4.3111,4.3324,4.4555,4.3769,4.3305,4.3305,4.2957,4.2957,4.3305,4.3189,4.3634,4.4613,4.4833,4.5258,3.0878,3.2426,0.0,3.4395,3.5751,3.7007,3.7075,0.0,0.0,0.0,3.9117,3.8168,3.8888,3.9029,3.8905,3.8623,3.8636,3.868,3.8635,3.7644,3.6893,3.693,3.6201,3.562,3.5386,3.508,3.468,3.4161,3.4124,3.4124,3.4124,3.4124,3.4124,3.4124,3.4124,3.4124,3.4124,3.4086,3.4061,3.4061,3.3998,3.3548,3.2841,3.3204,3.3105,3.26,3.2356,3.2532,3.3039,3.3522,3.3714,3.3751,3.4067,3.4729,3.5454,3.512,3.5287,3.5646,3.5343,3.5231,3.5231,3.5231,3.5677,3.6216,3.6216,3.6458,3.6699,3.6699,3.7039,3.7411,3.7411,3.8024,3.9045,4.0717,4.0736,4.062,4.1423,4.159,4.159,4.159,4.198,4.2166,4.1683,4.1999,4.2166,4.1664,4.159,4.1855,4.2592,4.3171,4.3532,4.3579,4.3487,4.3233,4.2815,4.2783,4.2783,4.2783,4.2299,4.2473,4.3518,4.2763,4.2318,4.2318,4.2106,4.2106,4.2318,4.2454,4.2879,4.3576,4.4284,4.4871,3.2114,3.3527,0.0,3.5255,3.605,0.0,3.695,3.771,3.8577,3.925,0.0,3.8594,3.9267,3.8836,3.8508,3.8867,3.7702,3.6876,3.7166,3.6209,3.5532,3.5651,3.5235,3.499,3.5161,3.4473,3.3998,3.3998,3.3998,3.3998,3.3998,3.3998,3.3998,3.3998,3.3998,3.3998,3.3998,3.3998,3.3985,3.3985,3.3921,3.3513,3.2832,3.3617,3.3901,3.3752,3.3155,3.2882,3.2885,3.2941,3.2941,3.2941,3.3684,3.4482,3.5151,3.429,3.3999,3.3962,3.3157,3.2934,3.299,3.299,3.4067,3.538,3.538,3.59,3.6463,3.6463,3.6532,3.6588,3.6588,3.7201,3.8172,3.9709,4.016,4.0476,4.12,4.1367,4.1367,4.1367,4.1441,4.146,4.1386,4.1441,4.146,4.1367,4.1396,4.1511,4.1772,4.2038,4.2297,4.2623,4.2148,4.1839,4.1801,4.1808,4.1834,4.1847,4.1854,4.1861,4.1893,4.1184,4.0797,4.0797,4.1525,4.1525,4.0797,4.2338,4.2705,4.2048,4.3634,4.4439,2.9692,3.1563,0.0,0.0,3.4808,3.6055,3.6193,3.65,3.6784,3.6986,3.6904,3.6835,3.6991,3.6904,3.6636,3.6153,3.5792,3.527,3.4427,3.3933,3.3739,3.393,3.3712,3.3734,3.4236,3.4109,3.3998,3.3998,3.3998,3.3998,3.3998,3.3998,3.3998,3.3998,3.3998,3.3998,3.3998,3.3947,3.3921,3.3921,3.3842,3.3742,3.3558,3.3176,3.2687,3.2151,3.2625,3.2471,3.1947,3.2576,3.2465,3.191,3.2095,3.265,3.329,3.2518,3.2605,3.2995,3.2228,3.2381,3.2919,3.2919,3.3622,3.4476,3.4476,3.4587,3.4736,3.4736,3.5231,3.577,3.577,3.6365,3.7039,3.7424,3.8451,3.9435,3.9602,3.964,3.964,3.964,4.0178,4.0438,3.9751,4.0197,4.0434,3.9733,3.9826,4.0221,4.0935,4.1213,4.1407,4.1535,4.1434,4.1083,4.0415,4.0452,4.0579,4.0739,4.0796,4.0889,4.1042,4.0893,4.0797,4.0797,4.0971,4.0971,4.0797,4.1164,4.1564,4.2009,4.2376,4.3285,2.9825,0.0,0.0,3.364,0.0,3.5817,3.5905,3.6058,3.6208,3.6233,3.6276,3.6301,3.6301,3.6008,3.5645,3.5249,3.4576,3.3878,3.3254,3.2891,3.2757,3.2848,3.2923,3.3093,3.34,3.3429,3.3429,3.3429,3.3429,3.3429,3.3429,3.3429,3.3429,3.3429,3.3429,3.35,3.3662,3.3634,3.3689,3.3842,3.382,3.3807,3.3788,3.3406,3.3048,3.2761,3.2742,3.2521,3.2188,3.2207,3.1985,3.1597,3.1597,3.2096,3.265,3.1503,3.1565,3.2059,3.0905,3.1038,3.1747,3.1747,3.2609,3.3621,3.3621,3.3881,3.4197,3.4161,3.4476,3.4816,3.4791,3.539,3.602,3.602,3.7315,3.8414,3.8024,3.8247,3.8525,3.8525,3.8878,3.9045,3.8599,3.8897,3.9175,3.9101,3.9219,3.9513,4.0096,4.0256,4.0409,4.0555,4.0577,4.0389,3.9945,4.0014,4.0186,4.0389,4.0473,4.0583,4.079,4.0797,4.0797,4.0797,4.0797,4.0797,4.0797,4.0797,4.1029,4.1429,4.1816,4.2492,3.0305,0.0,3.235,3.4284,3.5184,0.0,3.5751,3.5949,3.6122,3.6122,3.6212,3.6301,3.6301,3.5801,3.5301,3.5042,3.3938,3.3007,3.2748,3.242,3.2231,3.2283,3.2536,3.2749,3.2795,3.2795,3.2795,3.2795,3.2795,3.2795,3.2795,3.2795,3.2795,3.2795,3.2795,3.297,3.3306,3.3306,3.3465,3.3807,3.3807,3.3807,3.3807,3.3807,3.3855,3.3923,3.3195,3.2931,3.2926,3.2244,3.1986,3.1986,3.1986,3.2392,3.2797,3.1334,3.1211,3.1543,2.9942,2.995,3.0639,3.052,3.151,3.2781,3.2929,3.343,3.3994,3.4062,3.4086,3.4074,3.4011,3.4546,3.5082,3.5082,3.6284,3.731,3.6785,3.7212,3.7676,3.7689,3.7801,3.7894,3.7894,3.8024,3.8284,3.8804,3.9008,3.9141,3.9208,3.9346,3.952,3.9739,3.9761,3.9765,3.9762,3.9922,4.0091,4.03,4.0422,4.0576,4.079,4.0797,4.0797,4.0797,4.0797,4.0797,4.0797,4.0797,4.0797,4.0816,4.1487,4.1874,0.0,0.0,3.2072,0.0,3.4688,3.4918,0.0,0.0,3.5839,0.0,3.6105,3.6301,3.6301,3.6215,3.5732,3.4458,3.4079,3.3455,3.2127,3.1907,3.1966,3.2266,3.2335,3.2487,3.2763,3.2795,3.2795,3.2795,3.2795,3.2795,3.2795,3.2795,3.2795,3.2795,3.2795,3.297,3.3306,3.3306,3.3465,3.3807,3.3807,3.3807,3.3807,3.3807,3.382,3.3815,3.3692,3.3655,3.365,3.3558,3.3503,3.3503,3.3503,3.3576,3.3571,3.2704,3.2421,3.2236,3.0691,3.069,3.1243,3.0542,3.0995,3.1922,3.2631,3.2896,3.3136,3.3807,3.4011,3.4011,3.3998,3.409,3.4164,3.4164,3.4929,3.5819,3.6464,3.67,3.6787,3.6853,3.7411,3.7894,3.7894,3.8469,3.8729,3.8154,3.8655,3.8855,3.8189,3.8723,3.9165,3.9205,3.9219,3.9219,3.9213,3.9495,3.9739,3.9947,4.0247,4.0527,4.079,4.0797,4.0797,4.0797,4.0797,4.0797,4.0797,4.0797,4.0797,4.0797,4.0913,4.1332,2.8373,2.991,3.1353,0.0,3.3862,3.4309,3.4894,3.5207,3.5447,3.5751,3.6036,3.6233,3.6233,3.5587,3.4872,3.4217,3.3388,3.2559,3.1903,3.18,3.1838,3.2002,3.202,3.2073,3.2231,3.2231,3.2231,3.2231,3.2231,3.2231,3.2231,3.2231,3.2231,3.2231,3.2231,3.2486,3.2999,3.3032,3.3273,3.3807,3.3807,3.3807,3.3807,3.3807,3.3807,3.3807,3.3807,3.3807,3.3807,3.3807,3.3807,3.3807,3.3807,3.3807,3.3715,3.2934,3.2627,3.2449,3.1311,3.087,3.0777,3.0427,3.0584,3.1085,3.1874,3.2447,3.2951,3.3725,3.3947,3.3934,3.3895,3.3881,3.3881,3.3881,3.4176,3.4571,3.5,3.5502,3.5888,3.5953,3.6302,3.6699,3.7151,3.7151,3.7113,3.7206,3.7912,3.8302,3.7949,3.8599,3.8934,3.8469,3.8822,3.8915,3.8469,3.9152,3.9698,3.9884,4.0202,4.0512,4.0739,4.0784,4.0797,4.0797,4.0797,4.0797,4.0797,4.0797,4.0797,4.0797,4.0797,4.099,0.0,0.0,3.0146,3.1959,3.2817,3.3431,0.0,0.0,3.4904,3.5424,3.5581,3.5663,3.5788,3.5026,3.4249,3.3852,3.2817,3.2007,3.1817,3.18,3.18,3.18,3.18,3.18,3.18,3.18,3.18,3.18,3.18,3.18,3.18,3.18,3.18,3.18,3.18,3.2073,3.2668,3.2747,3.3029,3.3522,3.3522,3.3508,3.3462,3.3462,3.3462,3.3476,3.3689,3.3807,3.3807,3.3807,3.3807,3.3807,3.3807,3.3807,3.3733,3.3115,3.2894,3.2784,3.1971,3.1348,3.0851,3.0661,3.0623,3.0805,3.1605,3.214,3.2643,3.3605,3.3739,3.3616,3.3765,3.3807,3.3807,3.3807,3.3807,3.3815,3.3881,3.4458,3.4984,3.5036,3.5286,3.5726,3.6543,3.637,3.6309,3.6922,3.7522,3.7819,3.7615,3.8116,3.8265,3.7652,3.8302,3.8571,3.8037,3.9014,3.9747,3.9963,4.0257,4.0519,4.0694,4.0746,4.0784,4.0797,4.0797,4.0797,4.0797,4.0797,4.0797,4.0797,4.0797,4.0797,0.0,2.6987,0.0,3.0734,3.15,0.0,0.0,0.0,3.4194,3.4745,3.4409,3.4192,3.4686,3.4974,3.4663,3.3197,3.2904,3.261,3.1903,3.18,3.18,3.18,3.18,3.18,3.18,3.18,3.18,3.18,3.18,3.18,3.18,3.18,3.18,3.18,3.18,3.1983,3.2318,3.2651,3.2797,3.2766,3.2766,3.27,3.2567,3.2567,3.2567,3.2616,3.3447,3.3807,3.3807,3.3807,3.3807,3.3807,3.3807,3.3807,3.3788,3.3752,3.3733,3.3623,3.2821,3.2509,3.2357,3.1599,3.1342,3.1488,3.2302,3.2039,3.1801,3.338,3.3256,3.2852,3.3605,3.3807,3.3807,3.3807,3.3807,3.3815,3.3881,3.3983,3.4072,3.4085,3.4783,3.5649,3.6464,3.7259,3.7782,3.7819,3.7856,3.7615,3.6866,3.6811,3.6798,3.6773,3.7466,3.805,3.8257,3.9199,3.9903,4.0175,4.0449,4.0617,4.0694,4.07,4.0739,4.0797,4.0797,4.0797,4.0797,4.0797,4.0797,4.0797,4.0797,4.0797,0.0,0.0,0.0,2.7985,2.963,3.101,3.1554,3.2557,3.3511,3.4053,3.4032,3.3968,3.4158,3.3896,3.3478,3.2928,3.2469,3.2093,3.1834,3.18,3.18,3.18,3.18,3.18,3.18,3.18,3.18,3.18,3.18,3.18,3.18,3.18,3.18,3.18,3.18,3.1947,3.2231,3.257,3.2684,3.2568,3.2568,3.2551,3.2501,3.2501,3.2501,3.2517,3.284,3.3105,3.3335,3.3075,3.3225,3.3629,3.3247,3.3232,3.3394,3.3229,3.2977,3.2661,3.2388,3.1743,3.1017,3.0723,3.0283,3.0008,3.0815,3.087,3.0852,3.1935,3.2045,3.2027,3.2816,3.3036,3.3151,3.3678,3.3807,3.382,3.3815,3.3881,3.3934,3.3934,3.4238,3.4604,3.4932,3.5254,3.5465,3.5516,3.6426,3.6835,3.603,3.6829,3.7071,3.6049,3.6662,3.7006,3.6719,3.7624,3.8307,3.8572,3.8846,3.9268,3.9837,3.9876,4.0159,4.0797,4.0797,4.0797,4.0797,4.0797,4.0797,4.0797,4.0797,4.0797,2.323,0.0,0.0,0.0,2.7309,2.8842,2.9616,3.0928,3.2121,3.2688,3.3023,3.3156,3.2883,3.2617,3.2511,3.2762,3.2244,3.18,3.18,3.18,3.18,3.18,3.18,3.18,3.18,3.18,3.18,3.18,3.18,3.18,3.18,3.18,3.1781,3.1727,3.1727,3.1819,3.1966,3.2197,3.2231,3.2092,3.2092,3.2092,3.2056,3.2056,3.2056,3.2056,3.2056,3.2384,3.2892,3.2599,3.2795,3.3199,3.2941,3.2894,3.297,3.3078,3.2826,3.2477,3.2605,3.1944,3.1017,3.1017,3.0454,2.9916,3.0448,3.0411,3.0375,3.1176,3.1213,3.1182,3.199,3.221,3.2339,3.2871,3.3201,3.3403,3.3403,3.3645,3.3855,3.3855,3.3921,3.4077,3.4424,3.45,3.4643,3.4958,3.5726,3.6105,3.5566,3.6179,3.624,3.5175,3.5807,3.6261,3.6212,3.7087,3.774,3.7995,3.8414,3.8853,3.9249,3.9548,4.0035,4.0752,4.079,4.0797,4.0797,4.0797,4.0797,4.0797,4.0797,4.0797,0.0,0.0,0.0,0.0,0.0,0.0,2.7768,0.0,3.003,3.0613,3.1326,3.1593,3.0844,3.1221,3.1867,3.2627,3.2206,3.18,3.18,3.18,3.18,3.18,3.18,3.18,3.18,3.18,3.18,3.18,3.18,3.18,3.18,3.18,3.1727,3.1598,3.1598,3.1559,3.1498,3.1498,3.1443,3.1295,3.1295,3.1254,3.119,3.119,3.119,3.119,3.119,3.1675,3.2467,3.2467,3.2467,3.2534,3.2908,3.2811,3.2548,3.3328,3.3364,3.312,3.3497,3.3125,3.2465,3.2465,3.1946,3.1298,3.1298,3.0766,3.0296,3.1078,3.0748,3.0344,3.1146,3.1378,3.1397,3.1397,3.2008,3.2564,3.2583,3.322,3.377,3.3807,3.3842,3.4171,3.5013,3.5262,3.5631,3.6409,3.5942,3.5491,3.5454,3.4748,3.4234,3.4197,3.4971,3.5863,3.6847,3.7704,3.8297,3.85,3.9258,3.9478,3.9023,3.9804,4.0407,4.0694,4.0752,4.079,4.079,4.0797,4.0797,4.0797,4.0797,4.0797,2.0054,0.0,0.0,0.0,0.0,0.0,2.514,2.6952,2.8723,2.9182,2.9711,3.0252,3.0817,3.0567,3.0522,3.1351,3.155,3.1576,3.1576,3.1576,3.1595,3.1653,3.1614,3.1632,3.1781,3.1709,3.169,0.0,3.18,3.1746,3.1671,3.1614,3.1574,3.1519,3.1519,3.1464,3.1351,3.1351,3.131,3.123,3.123,3.123,3.119,3.119,3.119,3.119,3.119,3.1329,3.1562,3.1562,3.186,3.2317,3.195,3.1584,3.1272,3.1288,3.0689,2.99,2.9991,2.9671,2.9209,2.9268,2.9121,2.8941,2.9008,2.886,2.8734,2.895,2.9021,2.9277,3.0271,3.0962,3.1397,3.1397,3.158,3.188,3.2472,3.2766,3.3096,3.3697,3.3802,3.3915,3.4207,3.4323,3.4474,3.4747,3.52,3.5268,3.4643,3.4903,3.4903,3.4271,3.442,3.4752,3.521,3.5476,3.597,3.6745,3.7001,3.769,3.8959,3.9225,3.9764,4.0602,4.07,4.0733,4.0733,4.0784,4.0797,4.0797,4.0797,4.0797,1.8722,1.9134,1.951,1.9551,0.0,0.0,2.3195,2.494,2.6639,2.7608,2.8502,2.922,2.9606,2.969,2.9802,3.0067,3.045,3.0825,3.1157,3.1213,3.131,3.1521,3.1519,3.1555,3.1651,3.1614,3.1595,3.167,3.169,3.169,3.1598,3.1538,3.1462,3.1406,3.1406,3.1368,3.1254,3.1271,3.1232,3.119,3.119,3.119,3.119,3.119,3.119,3.119,3.119,3.119,3.1173,3.0869,3.1174,3.1788,3.1239,3.0976,3.0948,3.0819,3.0421,2.9917,2.9815,2.9374,2.8832,2.8553,2.8234,2.7968,2.8006,2.802,2.8047,2.8197,2.8495,2.8901,2.9538,3.0063,3.0393,3.0393,3.065,3.1035,3.1513,3.2124,3.2839,3.3642,3.3807,3.3802,3.3842,3.3908,3.3972,3.4011,3.4525,3.4736,3.4216,3.4631,3.4767,3.4253,3.4197,3.4406,3.4932,3.4981,3.5375,3.6288,3.6764,3.7549,3.8775,3.9259,3.9673,4.0039,4.0447,4.0668,4.07,4.0778,4.0797,4.0797,4.0797,4.0797,1.7404,1.7651,1.8048,1.864,1.8873,0.0,2.1587,2.2887,2.4115,2.5716,2.7169,2.8003,2.7565,2.8424,2.9039,2.8612,2.8942,2.9597,3.0547,3.0703,3.0882,3.1346,3.1385,3.1404,3.1498,3.1498,3.1479,3.1498,3.154,3.156,3.156,3.15,3.1423,3.1276,3.1276,3.1254,3.119,3.119,3.119,3.119,3.119,3.119,3.1171,3.119,3.119,3.1171,3.1086,3.1052,3.0982,3.0256,3.0444,3.1145,3.0619,3.0649,3.0951,3.0924,3.1044,3.1201,3.0964,3.0423,2.9704,2.9062,2.8359,2.7783,2.7797,2.7797,2.7883,2.825,2.8633,2.8929,2.897,2.8982,2.8994,2.8994,2.9537,3.0099,3.0173,3.1317,3.2564,3.3385,3.3678,3.3807,3.3807,3.3873,3.3895,3.3895,3.4011,3.4086,3.4099,3.4161,3.4197,3.4197,3.4197,3.4513,3.5287,3.5361,3.5696,3.6532,3.7486,3.8147,3.8454,3.949,3.9829,3.9302,4.0162,4.0621,4.0694,4.0752,4.079,4.0797,4.0797,4.0797,1.6037,1.6407,1.683,1.6845,1.7735,0.0,1.9302,2.0512,2.1855,2.305,2.3961,2.4829,2.5495,2.5823,2.6041,2.6142,2.6732,2.7841,2.9739,2.9989,3.0204,3.0723,3.0723,3.0918,3.146,3.1406,3.1387,3.1498,3.1408,3.1353,3.1353,3.1291,3.1249,3.123,3.123,3.121,3.119,3.119,3.119,3.119,3.119,3.1151,3.1035,3.1151,3.1112,3.0918,3.0393,3.0121,3.0029,2.929,2.9856,3.1075,2.9813,2.9371,2.935,2.8713,2.8152,2.7692,2.7639,2.7519,2.7382,2.7328,2.7224,2.7104,2.7168,2.7184,2.7293,2.7855,2.8259,2.8569,2.8785,2.8881,2.8917,2.8917,2.908,2.9409,3.0063,3.0448,3.0907,3.1709,3.2908,3.3807,3.3807,3.3873,3.3895,3.3895,3.3972,3.4036,3.4099,3.4111,3.4136,3.4197,3.4197,3.4271,3.4439,3.4439,3.4822,3.5677,3.6077,3.6666,3.7523,3.8575,3.9204,3.9311,4.0157,4.0598,4.0621,4.0694,4.0746,4.0797,4.0797,4.0797,1.4961,1.5381,1.5843,1.5794,1.6651,0.0,0.0,1.8957,2.0161,2.1518,2.2087,2.2616,2.3476,2.3898,2.4224,2.4592,2.5492,2.6483,2.741,2.8521,2.954,3.0339,3.0418,3.0642,3.1288,3.1291,3.1291,3.1387,3.131,3.1254,3.1295,3.1232,3.119,3.119,3.119,3.119,3.119,3.119,3.1171,3.1112,3.1112,3.085,3.0415,3.0844,3.0589,2.9803,2.9825,2.9623,2.92,2.8446,2.8854,2.984,2.8747,2.8544,2.8762,2.8023,2.7754,2.7703,2.7367,2.7249,2.7199,2.6894,2.6792,2.6809,2.6842,2.6989,2.7213,2.7517,2.7869,2.8219,2.8482,2.8583,2.8645,2.8803,2.887,2.9015,2.9453,2.9868,3.0283,3.0723,3.177,3.2724,3.3128,3.3227,3.3401,3.3787,3.3908,3.3959,3.3998,3.4061,3.4111,3.4148,3.4185,3.4197,3.4197,3.4197,3.4581,3.5436,3.5773,3.635,3.7258,3.8448,3.9344,3.99,3.9934,4.0176,4.0598,4.0639,4.0673,4.0746,4.0784,4.0797,1.3947,1.4475,1.4994,1.4934,1.5528,1.6199,0.0,0.0,0.0,1.9867,2.0282,2.0619,2.1318,2.1916,2.2448,2.2854,2.4057,2.4858,2.4661,2.6518,2.8316,2.9526,2.9876,3.0208,3.076,3.0955,3.1073,3.114,3.1193,3.1246,3.1274,3.1232,3.119,3.119,3.119,3.119,3.119,3.1171,3.1112,3.0995,3.0975,3.063,2.9998,3.0624,3.0135,2.8856,2.9343,2.9109,2.8373,2.7621,2.7671,2.8156,2.7608,2.7844,2.8414,2.7732,2.785,2.8288,2.7754,2.7569,2.7468,2.6894,2.6691,2.6691,2.6691,2.6971,2.7272,2.7272,2.7562,2.7911,2.8143,2.8232,2.8355,2.8614,2.8731,2.881,2.887,2.9387,2.9869,2.9935,3.0473,3.1225,3.2197,3.2491,3.2821,3.3476,3.375,3.3881,3.3895,3.3998,3.4074,3.4099,3.4148,3.4185,3.4197,3.4197,3.4519,3.5274,3.5671,3.6188,3.6881,3.8274,3.9515,4.0477,3.9861,3.9877,4.058,4.058,4.0624,4.0668,4.0746,4.0784,1.287,1.3506,1.4116,1.3645,1.4103,1.4601,1.4433,0.0,1.5834,1.6597,0.0,1.803,1.8724,0.0,0.0,1.9684,2.1097,2.2177,2.2256,2.378,2.5532,2.7255,2.8307,2.9042,2.9397,3.0064,3.053,3.0589,3.1014,3.1278,3.1207,3.121,3.119,3.119,3.119,3.119,3.119,3.1092,3.1015,3.0995,3.0952,3.0801,3.0595,3.0818,3.0323,2.9307,2.8838,2.8189,2.7402,2.6654,2.6421,2.6488,2.66,2.7072,2.7643,2.6922,2.6687,2.6754,2.674,2.6741,2.6724,2.6708,2.6691,2.6691,2.6691,2.694,2.7213,2.7213,2.7459,2.7745,2.7757,2.7996,2.8224,2.8268,2.8551,2.8798,2.881,2.8883,2.898,2.9033,2.9118,2.9673,3.1256,3.2137,3.2619,3.2711,3.3348,3.3829,3.3895,3.3908,3.3972,3.4086,3.4111,3.4136,3.4197,3.4197,3.433,3.4689,3.4913,3.5163,3.5435,3.7187,3.8892,4.0477,4.0419,4.04,4.0504,4.0573,4.0591,4.0621,4.0668,4.0707,1.2467,1.2748,1.3026,1.2752,1.3135,1.3567,1.3411,1.3939,1.4577,1.4874,0.0,0.0,0.0,0.0,0.0,0.0,1.9196,2.0262,2.0638,2.211,2.3905,2.5836,2.7174,0.0,2.9344,2.9919,3.0103,2.9875,3.0325,3.0467,3.0177,3.0166,3.0166,3.0166,3.0166,3.0166,3.0166,3.0102,3.0204,3.041,2.996,2.9625,2.9364,2.9423,2.8677,2.7375,2.7545,2.7125,2.6307,2.612,2.6041,2.6059,2.6239,2.6527,2.6762,2.6481,2.6382,2.6416,2.652,2.6537,2.6554,2.6623,2.664,2.6657,2.6691,2.6808,2.6907,2.6907,2.7004,2.7164,2.7369,2.7669,2.7954,2.8102,2.8417,2.8687,2.8737,2.8749,2.8761,2.8834,2.8881,2.9118,2.9831,3.0644,3.1518,3.2454,3.2894,3.3288,3.3773,3.3868,3.3934,3.4036,3.4074,3.4124,3.4197,3.4197,3.4245,3.4351,3.4586,3.5039,3.5702,3.7077,3.8394,3.961,4.0199,4.0496,4.0496,4.0531,4.0546,4.0549,4.0647,4.07,1.2187,1.2189,1.2134,1.1898,1.2149,1.2356,1.2131,1.2631,1.3135,1.3135,1.3244,0.0,0.0,0.0,1.5315,1.6044,0.0,1.8405,1.8849,2.0188,2.1989,2.4374,2.5993,2.7348,0.0,2.9078,2.9345,2.9085,2.9556,2.9738,2.9416,2.9406,2.9406,2.9406,2.9406,2.9406,2.9406,2.9361,2.9399,2.9491,2.8909,2.8394,2.7987,2.7951,2.7166,2.584,2.6503,2.6286,2.5473,2.5733,2.5807,2.5826,2.597,2.6041,2.6043,2.6206,2.6277,2.6294,2.6399,2.6468,2.6502,2.6554,2.6555,2.6572,2.664,2.6657,2.6674,2.6674,2.6691,2.6758,2.7005,2.7305,2.7639,2.7908,2.8233,2.8505,2.8632,2.8669,2.87,2.8761,2.8822,2.8858,2.887,2.96,3.0595,3.1757,3.2124,3.2559,3.3366,3.3498,3.3655,3.3941,3.4023,3.4074,3.4136,3.4148,3.4173,3.4227,3.4498,3.51,3.6122,3.6925,3.7889,3.9059,3.9807,4.0285,4.0496,4.0285,4.0169,4.0169,4.0516,4.0666,0.0,0.0,0.0,1.1066,1.0934,1.0788,1.0122,1.0481,1.0887,1.0887,1.1354,1.1786,1.1786,1.2705,1.3549,1.378,1.5253,0.0,0.0,1.7478,1.9285,2.2651,2.4663,2.5703,0.0,2.6956,2.7937,2.8137,2.887,2.9339,2.9393,2.9406,2.9406,2.9406,2.9406,2.9406,2.9406,2.9262,2.8889,2.8258,2.8037,2.7586,2.6951,2.6828,2.6334,2.5639,2.6064,2.5799,2.513,2.5473,2.5605,2.5605,2.5605,2.5624,2.5677,2.6061,2.6203,2.6203,2.6294,2.6382,2.6502,2.6502,2.6502,2.6502,2.6502,2.6554,2.6589,2.6589,2.6657,2.6691,2.6708,2.6972,2.7307,2.7624,2.7926,2.8215,2.8531,2.86,2.8625,2.8682,2.8694,2.8737,2.8785,2.9594,3.0228,3.0283,3.0944,3.1733,3.2528,3.2638,3.297,3.3821,3.3908,3.3934,3.3998,3.4011,3.4093,3.4288,3.4612,3.524,3.6249,3.6396,3.7346,3.925,3.9315,3.9727,4.0496,3.9727,3.9342,3.9361,4.0207,4.0588,0.0,0.0,1.0538,1.0504,0.0,0.0,0.9932,1.0067,1.0218,1.0218,1.0363,1.0619,1.1025,1.1434,1.1835,1.2295,1.3317,1.4291,0.0,1.6651,1.8133,1.9011,2.1943,2.4178,2.4822,2.6326,2.7115,2.6743,2.7827,2.8336,2.7959,2.811,2.8174,2.8091,2.8091,2.8125,2.8222,2.7561,2.733,2.7526,2.6432,2.5964,2.6036,2.5519,2.5103,2.4756,2.512,2.5051,2.4746,2.5201,2.5394,2.5413,2.5565,2.5605,2.5605,2.5752,2.5807,2.5826,2.599,2.6063,2.6133,2.6312,2.6365,2.6382,2.6468,2.652,2.6537,2.6537,2.6572,2.6623,2.6623,2.7085,2.7567,2.7669,2.8069,2.8448,2.8574,2.86,2.86,2.8637,2.8675,2.8724,2.8737,2.9028,2.9466,3.0058,3.0846,3.1678,3.2491,3.3073,3.3521,3.3858,3.3895,3.3921,3.3998,3.3998,3.4018,3.4087,3.4244,3.457,3.5088,3.5799,3.6564,3.7373,3.8635,3.915,3.8854,3.915,3.8996,3.845,3.8734,3.9198,1.0125,1.0001,0.0,0.9935,0.9723,0.0,0.919,0.0,0.9425,0.9193,0.9311,0.9576,0.9986,1.0288,1.0619,0.0,0.0,1.2705,0.0,1.5312,1.6466,1.6472,1.9887,2.256,2.3486,2.494,2.5907,2.6202,2.6877,2.7263,2.7196,2.7346,2.7437,2.7335,2.7335,2.7361,2.7448,2.687,2.652,2.6484,2.5461,2.4874,2.4701,2.421,2.3915,2.3818,2.4168,2.423,2.4156,2.463,2.4846,2.4851,2.4989,2.5091,2.5243,2.5511,2.5605,2.5605,2.5752,2.5789,2.5826,2.6081,2.6154,2.6188,2.6345,2.6415,2.6383,2.6116,2.6285,2.6504,2.6236,2.6753,2.7352,2.7577,2.7957,2.8349,2.8549,2.86,2.86,2.86,2.8637,2.8657,2.8657,2.8724,2.8962,2.9582,3.0161,3.0809,3.1647,3.2449,3.3067,3.3414,3.369,3.3881,3.3921,3.3934,3.3934,3.3934,3.408,3.4279,3.4564,3.5353,3.6145,3.6952,3.7905,3.8392,3.845,3.8392,3.8084,3.7546,3.7546,3.8003]}]]